[[{"header":{"parameterUnit":"m.s-1","parameterCategory":1,"la1":30.6,"la2":28.766,"lo1":-90.7593,"lo2":-88.6598,"dx":0.0162,"dy":0.0183,"nx":116,"ny":114,"refTime":"2023-02-05T06:00:00:Z","depth":0,"parameterNumber":2,"parameterNumberName":"U-component_of_WINDS"},"data":[0.0,0.0,0.0,0.0,0.0,0.0,0.0,0.0,0.0,0.0,0.0,0.0,0.0,0.0,0.0,0.0,0.0,0.0,0.0,0.0,0.0,0.0,0.0,0.0,0.0,0.0,0.0,0.0,0.0,0.0,0.0,0.0,0.0,0.0,0.0,0.0,0.0,0.0,0.0,0.0,0.0,0.0,0.0,0.0,0.0,0.0,0.0,0.0,0.0,0.0,0.0,0.0,0.0,0.0,0.0,0.0,0.0,0.0,0.0,0.0,0.0,0.0,0.0,0.0,0.0,0.0,0.0,0.0,0.0,0.0,0.0,0.0,0.0,0.0,0.0,0.0,0.0,0.0,0.0,0.0,0.0,0.0,0.0,0.0,0.0,0.0,0.0,0.0,0.0,0.0,0.0,0.0,0.0,0.0,0.0,0.0,0.0,0.0,0.0,0.0,0.0,0.0,0.0,0.0,0.0,0.0,0.0,0.0,0.0,0.0,0.0,0.0,0.0,0.0,0.0,0.0,0.0,0.0,0.0,0.0,0.0,0.0,0.0,0.0,0.0,0.0,0.0,0.0,0.0,0.0,0.0,0.0,0.0,0.0,0.0,0.0,0.0,0.0,0.0,0.0,0.0,0.0,0.0,0.0,0.0,0.0,0.0,0.0,0.0,0.0,0.0,0.0,0.0,0.0,0.0,0.0,0.0,0.0,0.0,0.0,0.0,0.0,0.0,0.0,0.0,0.0,0.0,0.0,0.0,0.0,0.0,0.0,0.0,0.0,0.0,0.0,0.0,0.0,0.0,0.0,0.0,0.0,0.0,0.0,0.0,0.0,0.0,0.0,0.0,0.0,0.0,0.0,0.0,0.0,0.0,0.0,0.0,0.0,0.0,0.0,0.0,0.0,0.0,0.0,0.0,0.0,0.0,0.0,0.0,0.0,0.0,0.0,0.0,0.0,0.0,0.0,0.0,0.0,0.0,0.0,0.0,0.0,0.0,0.0,0.0,0.0,0.0,0.0,0.0,0.0,0.0,0.0,0.0,0.0,0.0,0.0,0.0,0.0,0.0,0.0,0.0,0.0,0.0,0.0,0.0,0.0,0.0,0.0,0.0,0.0,0.0,0.0,0.0,0.0,0.0,0.0,0.0,0.0,0.0,0.0,0.0,0.0,0.0,0.0,0.0,0.0,0.0,0.0,0.0,0.0,0.0,0.0,0.0,0.0,0.0,0.0,0.0,0.0,0.0,0.0,0.0,0.0,0.0,0.0,0.0,0.0,0.0,0.0,0.0,0.0,0.0,0.0,0.0,0.0,0.0,0.0,0.0,0.0,0.0,0.0,0.0,0.0,0.0,0.0,0.0,0.0,0.0,0.0,0.0,0.0,0.0,0.0,0.0,0.0,0.0,0.0,0.0,0.0,0.0,0.0,0.0,0.0,0.0,0.0,0.0,0.0,0.0,0.0,0.0,0.0,0.0,0.0,0.0,0.0,0.0,0.0,0.0,0.0,0.0,0.0,0.0,0.0,0.0,0.0,0.0,0.0,0.0,0.0,0.0,0.0,0.0,0.0,0.0,0.0,0.0,0.0,0.0,0.0,0.0,0.0,0.0,0.0,0.0,0.0,0.0,0.0,0.0,0.0,0.0,0.0,0.0,0.0,0.0,0.0,0.0,0.0,0.0,0.0,0.0,0.0,0.0,0.0,0.0,0.0,0.0,0.0,0.0,0.0,0.0,0.0,0.0,0.0,0.0,0.0,0.0,0.0,0.0,0.0,0.0,0.0,0.0,0.0,0.0,0.0,0.0,0.0,0.0,0.0,0.0,0.0,0.0,0.0,0.0,0.0,0.0,0.0,0.0,0.0,0.0,0.0,0.0,0.0,0.0,0.0,0.0,0.0,0.0,0.0,0.0,0.0,0.0,0.0,0.0,0.0,0.0,0.0,0.0,0.0,0.0,0.0,0.0,0.0,0.0,0.0,0.0,0.0,0.0,0.0,0.0,0.0,0.0,0.0,0.0,0.0,0.0,0.0,0.0,0.0,0.0,0.0,0.0,0.0,0.0,0.0,0.0,0.0,0.0,0.0,0.0,0.0,0.0,0.0,0.0,0.0,0.0,0.0,0.0,0.0,0.0,0.0,0.0,0.0,0.0,0.0,0.0,0.0,0.0,0.0,0.0,0.0,0.0,0.0,0.0,0.0,0.0,0.0,0.0,0.0,0.0,0.0,0.0,0.0,0.0,0.0,0.0,0.0,0.0,0.0,0.0,0.0,0.0,0.0,0.0,0.0,0.0,0.0,0.0,0.0,0.0,0.0,0.0,0.0,0.0,0.0,0.0,0.0,0.0,0.0,0.0,0.0,0.0,0.0,0.0,0.0,0.0,0.0,0.0,0.0,0.0,0.0,0.0,0.0,0.0,0.0,0.0,0.0,0.0,0.0,0.0,0.0,0.0,0.0,0.0,0.0,0.0,0.0,0.0,0.0,0.0,0.0,0.0,0.0,0.0,0.0,0.0,0.0,0.0,0.0,0.0,0.0,0.0,0.0,0.0,0.0,0.0,0.0,0.0,0.0,0.0,0.0,0.0,0.0,0.0,0.0,0.0,0.0,0.0,0.0,0.0,0.0,0.0,0.0,0.0,0.0,0.0,0.0,0.0,0.0,0.0,0.0,0.0,0.0,0.0,0.0,0.0,0.0,0.0,0.0,0.0,0.0,0.0,0.0,0.0,0.0,0.0,0.0,0.0,0.0,0.0,0.0,0.0,0.0,0.0,0.0,0.0,0.0,0.0,0.0,0.0,0.0,0.0,0.0,0.0,0.0,0.0,0.0,0.0,0.0,0.0,0.0,0.0,0.0,0.0,0.0,0.0,0.0,0.0,0.0,0.0,0.0,0.0,0.0,0.0,0.0,0.0,0.0,0.0,0.0,0.0,0.0,0.0,0.0,0.0,0.0,0.0,0.0,0.0,0.0,0.0,0.0,0.0,0.0,0.0,0.0,0.0,0.0,0.0,0.0,0.0,0.0,0.0,0.0,0.0,0.0,0.0,0.0,0.0,0.0,0.0,0.0,0.0,0.0,0.0,0.0,0.0,0.0,0.0,0.0,0.0,0.0,0.0,0.0,0.0,0.0,0.0,0.0,0.0,0.0,0.0,0.0,0.0,0.0,0.0,0.0,0.0,0.0,0.0,0.0,0.0,0.0,0.0,0.0,0.0,0.0,0.0,0.0,0.0,0.0,0.0,0.0,0.0,0.0,0.0,0.0,0.0,0.0,0.0,0.0,0.0,0.0,0.0,0.0,0.0,0.0,0.0,0.0,0.0,0.0,0.0,0.0,0.0,0.0,0.0,0.0,0.0,0.0,0.0,0.0,0.0,0.0,0.0,0.0,0.0,0.0,0.0,0.0,0.0,0.0,0.0,0.0,0.0,0.0,0.0,0.0,0.0,0.0,0.0,0.0,0.0,0.0,0.0,0.0,0.0,0.0,0.0,0.0,0.0,0.0,0.0,0.0,0.0,0.0,0.0,0.0,0.0,0.0,0.0,0.0,0.0,0.0,0.0,0.0,0.0,0.0,0.0,0.0,0.0,0.0,0.0,0.0,0.0,0.0,0.0,0.0,0.0,0.0,0.0,0.0,0.0,0.0,0.0,0.0,0.0,0.0,0.0,0.0,0.0,0.0,0.0,0.0,0.0,0.0,0.0,0.0,0.0,0.0,0.0,0.0,0.0,0.0,0.0,0.0,0.0,0.0,0.0,0.0,0.0,0.0,0.0,0.0,0.0,0.0,0.0,0.0,0.0,0.0,0.0,0.0,0.0,0.0,0.0,0.0,0.0,0.0,0.0,0.0,0.0,0.0,0.0,0.0,0.0,0.0,0.0,0.0,0.0,0.0,0.0,0.0,0.0,0.0,0.0,0.0,0.0,0.0,0.0,0.0,0.0,0.0,0.0,0.0,0.0,0.0,0.0,0.0,0.0,0.0,0.0,0.0,0.0,0.0,0.0,0.0,0.0,0.0,0.0,0.0,0.0,0.0,0.0,0.0,0.0,0.0,0.0,0.0,0.0,0.0,0.0,0.0,0.0,0.0,0.0,0.0,0.0,0.0,0.0,0.0,0.0,0.0,0.0,0.0,0.0,0.0,0.0,0.0,0.0,0.0,0.0,0.0,0.0,0.0,0.0,0.0,0.0,0.0,0.0,0.0,0.0,0.0,0.0,0.0,0.0,0.0,0.0,0.0,0.0,0.0,0.0,0.0,0.0,0.0,0.0,0.0,0.0,0.0,0.0,0.0,0.0,0.0,0.0,0.0,0.0,0.0,0.0,0.0,0.0,0.0,0.0,0.0,0.0,0.0,0.0,0.0,0.0,0.0,0.0,0.0,0.0,0.0,0.0,0.0,0.0,0.0,0.0,0.0,0.0,0.0,0.0,0.0,0.0,0.0,0.0,0.0,0.0,0.0,0.0,0.0,0.0,0.0,0.0,0.0,0.0,0.0,0.0,0.0,0.0,0.0,0.0,0.0,0.0,0.0,0.0,0.0,0.0,0.0,0.0,0.0,0.0,0.0,0.0,0.0,0.0,0.0,0.0,0.0,0.0,0.0,0.0,0.0,0.0,0.0,0.0,0.0,0.0,0.0,0.0,0.0,0.0,0.0,0.0,0.0,0.0,0.0,0.0,0.0,0.0,0.0,0.0,0.0,0.0,0.0,0.0,0.0,0.0,0.0,0.0,0.0,0.0,0.0,0.0,0.0,0.0,0.0,0.0,0.0,0.0,0.0,0.0,0.0,0.0,0.0,0.0,0.0,0.0,0.0,0.0,0.0,0.0,0.0,0.0,0.0,0.0,0.0,0.0,0.0,0.0,0.0,0.0,0.0,0.0,0.0,0.0,0.0,0.0,0.0,0.0,0.0,0.0,0.0,0.0,0.0,0.0,0.0,0.0,0.0,0.0,0.0,0.0,0.0,0.0,0.0,0.0,0.0,0.0,0.0,0.0,0.0,0.0,0.0,0.0,0.0,0.0,0.0,0.0,0.0,0.0,0.0,0.0,0.0,0.0,0.0,0.0,0.0,0.0,0.0,0.0,0.0,0.0,0.0,0.0,0.0,0.0,0.0,0.0,0.0,0.0,0.0,0.0,0.0,0.0,0.0,0.0,0.0,0.0,0.0,0.0,0.0,0.0,0.0,0.0,0.0,0.0,0.0,0.0,0.0,0.0,0.0,0.0,0.0,0.0,0.0,0.0,0.0,0.0,0.0,0.0,0.0,0.0,0.0,0.0,0.0,0.0,0.0,0.0,0.0,0.0,0.0,0.0,0.0,0.0,0.0,0.0,0.0,0.0,0.0,0.0,0.0,0.0,0.0,0.0,0.0,0.0,0.0,0.0,0.0,0.0,0.0,0.0,0.0,0.0,0.0,0.0,0.0,0.0,0.0,0.0,0.0,0.0,0.0,0.0,0.0,0.0,0.0,0.0,0.0,0.0,0.0,0.0,0.0,0.0,0.0,0.0,0.0,0.0,0.0,0.0,0.0,0.0,0.0,0.0,0.0,0.0,0.0,0.0,0.0,0.0,0.0,0.0,0.0,0.0,0.0,0.0,0.0,0.0,0.0,0.0,0.0,0.0,0.0,0.0,0.0,0.0,0.0,0.0,0.0,0.0,0.0,0.0,0.0,0.0,0.0,0.0,0.0,0.0,0.0,0.0,0.0,0.0,0.0,0.0,0.0,0.0,0.0,0.0,0.0,0.0,0.0,0.0,0.0,0.0,0.0,0.0,0.0,0.0,0.0,0.0,0.0,0.0,0.0,0.0,0.0,0.0,0.0,0.0,0.0,0.0,0.0,0.0,0.0,0.0,0.0,0.0,0.0,0.0,0.0,0.0,0.0,0.0,0.0,0.0,0.0,0.0,0.0,0.0,0.0,0.0,0.0,0.0,0.0,0.0,0.0,0.0,0.0,0.0,0.0,0.0,0.0,0.0,0.0,0.0,0.0,0.0,0.0,0.0,0.0,0.0,0.0,0.0,0.0,0.0,0.0,0.0,0.0,0.0,0.0,0.0,0.0,0.0,0.0,0.0,0.0,0.0,0.0,0.0,0.0,0.0,0.0,0.0,0.0,0.0,0.0,1.5673,0.0,0.0,0.0,0.0,0.0,0.0,0.0,0.0,0.0,0.0,0.0,0.0,0.0,0.0,0.0,0.0,0.0,0.0,0.0,0.0,0.0,0.0,0.0,0.0,0.0,0.0,0.0,0.0,0.0,0.0,0.0,0.0,0.0,0.0,0.0,0.0,0.0,0.0,0.0,0.0,0.0,0.0,0.0,0.0,0.0,0.0,0.0,0.0,0.0,0.0,0.0,0.0,0.0,0.0,0.0,0.0,0.0,0.0,0.0,0.0,0.0,0.0,0.0,0.0,0.0,0.0,0.0,0.0,0.0,0.0,0.0,0.0,0.0,0.0,0.0,0.0,0.0,0.0,0.0,0.0,0.0,0.0,0.0,0.0,0.0,0.0,0.0,0.0,0.0,0.0,0.0,0.0,0.0,0.0,0.0,0.0,0.0,0.0,0.0,0.0,0.0,0.0,0.0,0.0,0.0,0.0,0.0,0.0,0.0,0.0,0.0,0.0,0.0,0.0,0.0,0.0,1.5377,0.0,0.0,0.0,0.0,0.0,0.0,0.0,0.0,0.0,0.0,0.0,0.0,0.0,0.0,0.0,0.0,0.0,0.0,0.0,0.0,0.0,0.0,0.0,0.0,0.0,0.0,0.0,0.0,0.0,0.0,0.0,0.0,0.0,0.0,0.0,0.0,0.0,0.0,0.0,0.0,0.0,0.0,0.0,0.0,0.0,0.0,0.0,0.0,0.0,0.0,0.0,0.0,0.0,0.0,0.0,0.0,0.0,0.0,0.0,0.0,0.0,0.0,0.0,0.0,0.0,0.0,0.0,0.0,0.0,0.0,0.0,0.0,0.0,0.0,0.0,0.0,0.0,0.0,0.0,0.0,0.0,0.0,0.0,0.0,0.0,0.0,0.0,0.0,0.0,0.0,0.0,0.0,0.0,0.0,0.0,0.0,0.0,0.0,0.0,0.0,0.0,0.0,0.0,0.0,0.0,0.0,0.0,0.0,1.5594,1.6682,1.8143,1.8143,1.8143,1.8062,1.6558,1.5454,1.475,0.0,0.0,0.0,0.0,0.0,0.0,0.0,0.0,0.0,0.0,0.0,0.0,0.0,0.0,0.0,0.0,0.0,0.0,0.0,0.0,0.0,0.0,0.0,0.0,0.0,0.0,0.0,0.0,0.0,0.0,0.0,0.0,0.0,0.0,0.0,0.0,0.0,0.0,0.0,0.6804,0.6651,0.6982,0.7681,0.7339,0.0,0.0,0.0,0.0,0.0,0.0,0.0,0.0,0.0,0.0,0.0,0.0,0.0,0.0,0.0,0.0,0.0,0.0,0.0,0.0,0.0,0.0,0.0,0.0,0.0,0.0,0.0,0.0,0.0,0.0,0.0,0.0,0.0,0.0,0.0,0.0,0.0,0.0,0.0,0.0,0.0,0.0,0.0,1.3916,1.403,0.0,0.0,0.0,0.0,0.0,0.0,0.0,0.0,0.0,0.0,0.0,0.0,0.0,1.4655,1.5253,1.5365,1.5851,1.6762,1.6754,1.6867,1.7096,1.7096,1.7096,1.7077,1.6848,0.0,1.5551,1.5662,0.0,0.0,0.0,0.0,0.0,0.0,0.0,0.0,0.0,0.0,0.0,0.0,0.0,0.0,0.0,0.0,0.0,0.0,0.0,0.0,0.0,0.0,0.0,0.0,0.0,0.0,0.0,0.0,0.0,0.0,0.0,0.0,0.0,0.0,0.0,0.0,0.4329,0.554,0.6268,0.6308,0.6632,0.7182,0.6827,0.7022,0.7616,0.7454,0.0,0.0,0.0,0.0,0.0,0.0,0.0,0.0,0.0,0.0,0.0,0.0,0.0,0.0,0.0,0.0,0.0,0.0,0.0,0.0,0.0,0.0,0.0,0.0,0.0,0.0,0.0,0.0,0.0,0.0,0.0,0.0,0.0,0.0,0.0,0.0,0.0,0.0,0.0,1.459,1.4317,1.4422,1.4579,1.4657,0.0,0.0,0.0,0.0,0.0,0.0,0.0,0.0,0.0,1.3991,1.438,1.4759,1.5106,1.5502,1.6355,1.766,1.8051,1.8739,1.9656,1.9656,1.9656,1.9638,1.9135,1.8474,1.7626,1.6267,1.5967,1.6401,0.0,0.0,0.0,0.0,0.0,1.8739,0.0,0.0,0.0,0.0,0.0,0.0,0.0,0.0,0.0,0.0,0.0,0.0,0.0,0.0,0.0,0.4618,0.0,0.0,0.0,0.0,0.0,0.0,0.0,0.0,0.0,0.0,0.0,0.0,0.5088,0.5642,0.5834,0.6118,0.6471,0.6874,0.6775,0.692,0.726,0.7281,0.7321,0.0,0.0,0.0,0.0,0.0,0.0,0.0,0.0,0.0,0.0,0.0,0.0,0.0,0.0,0.0,0.0,0.0,0.0,0.0,0.0,0.0,0.0,0.0,0.0,0.0,0.0,0.0,0.0,0.0,0.0,0.0,0.0,0.0,0.0,0.0,0.0,0.0,0.0,1.427,1.3831,1.4056,1.3707,1.361,0.0,0.0,0.0,0.0,0.0,0.0,1.396,1.4777,1.5221,1.5117,1.5419,1.5715,1.6034,1.6628,1.7638,1.9051,1.9646,2.0582,2.1794,2.1794,2.1794,2.1757,2.1106,2.0482,1.9756,1.7314,1.6665,1.7147,1.6555,1.7307,1.8695,1.8482,1.8922,1.9656,0.0,0.0,0.0,0.0,0.0,0.0,0.0,0.0,0.0,0.0,0.0,0.0,0.0,0.0,0.3246,0.3556,0.3918,0.4324,0.0,0.0,0.0,0.0,0.0,0.0,0.0,0.0,0.0,0.5408,0.4849,0.5119,0.6181,0.6321,0.6634,0.7093,0.7466,0.7647,0.7618,0.681,0.707,0.7995,0.0,0.0,0.0,0.0,0.0,0.0,0.0,0.0,0.0,0.0,0.0,0.0,0.0,0.0,0.0,0.0,0.0,0.0,0.0,0.0,0.0,0.0,0.0,0.0,0.0,0.0,0.0,0.0,0.0,0.0,0.0,0.0,0.0,0.0,0.0,0.0,0.0,0.0,0.0,1.153,1.1006,0.0,0.0,0.0,0.0,1.4153,1.5779,1.6438,1.5625,1.6353,1.6787,1.678,1.7527,1.8665,2.0173,2.0236,2.0713,2.161,2.1647,2.1721,2.1794,2.1794,2.1794,2.1794,2.1757,2.1702,2.1482,1.8996,1.7997,1.8034,1.8005,1.8951,2.0291,1.951,1.9748,2.0346,0.0,0.0,0.0,0.0,0.0,0.0,0.0,0.0,0.0,0.0,0.0,0.0,0.0,0.2036,0.266,0.3312,0.3724,0.3915,0.388,0.0,0.0,0.0,0.0,0.0,0.0,0.0,0.4716,0.4851,0.4871,0.5244,0.5943,0.5993,0.6409,0.7109,0.7256,0.7627,0.8086,0.7227,0.6907,0.701,0.7021,0.7473,0.0,0.0,0.0,0.0,0.0,0.0,0.0,0.0,0.0,0.0,0.0,0.0,0.0,0.0,0.0,0.0,0.0,0.0,0.0,0.0,0.0,0.0,0.0,0.0,0.0,0.0,0.0,0.0,0.0,0.0,0.0,0.0,0.0,0.0,0.0,0.0,0.0,1.3062,1.2452,0.0,1.3082,1.4268,1.4813,1.4417,1.5941,1.6548,1.5735,1.6952,1.7906,1.8427,1.9227,2.0181,2.1327,2.1345,2.1749,2.2575,2.2575,2.2832,2.3336,2.3336,2.3336,2.3336,2.3336,2.3052,2.2501,2.1612,2.0621,1.9594,1.9069,1.9546,2.0474,2.0181,2.0933,2.207,0.0,0.0,0.0,0.0,0.0,0.0,0.0,0.0,0.0,0.0,0.0,-0.0587,0.0595,0.1262,0.1948,0.2721,0.3093,0.3292,0.3305,0.0,0.0,0.0,0.0,0.0,0.0,0.463,0.4752,0.4832,0.5176,0.5461,0.5713,0.6072,0.6455,0.6885,0.7164,0.7627,0.8115,0.7544,0.7169,0.6977,0.7023,0.7559,0.8292,0.0,0.0,0.0,0.0,0.0,0.0,0.0,0.0,0.0,0.0,0.0,0.0,0.0,0.0,0.0,0.0,0.0,0.0,0.0,0.0,0.0,0.0,0.0,0.0,0.0,0.0,0.0,0.0,0.0,0.0,0.0,0.0,0.0,0.0,0.0,1.2523,1.4021,1.3385,1.3192,1.411,1.4905,1.5352,1.5301,1.6542,1.7319,1.7326,1.8328,1.941,2.0501,2.1061,2.174,2.2602,2.2602,2.2868,2.3391,2.3391,2.3676,2.419,2.419,2.419,2.419,2.419,2.383,2.3231,2.3363,2.2685,2.1461,2.0394,2.0407,2.1025,2.1134,2.2045,2.3259,0.0,0.0,0.0,0.0,0.0,0.0,0.0,0.0,0.0,0.0,0.0,-0.1753,-0.0194,0.0506,0.111,0.1736,0.1964,0.2476,0.3394,0.2922,0.0,0.0,0.0,0.0,0.4531,0.4893,0.5223,0.5492,0.5693,0.5683,0.5514,0.6565,0.6826,0.6433,0.7297,0.7695,0.7725,0.7734,0.7885,0.8066,0.7371,0.7705,0.8579,0.0,0.0,0.0,0.0,0.0,0.0,0.0,0.0,0.0,0.0,0.0,0.0,0.0,0.0,0.0,0.0,0.0,0.0,0.0,0.0,0.0,0.0,0.0,0.0,0.0,0.0,0.0,0.0,0.0,0.0,0.0,0.0,0.0,1.5588,1.3679,1.2699,1.4069,1.3519,1.3357,1.4188,1.4968,1.5856,1.6895,1.7759,1.8896,2.0456,2.0558,2.1318,2.2951,2.3024,2.341,2.419,2.419,2.419,2.419,2.4226,2.4226,2.419,2.4226,2.4226,2.419,2.419,2.4016,2.3735,2.4074,2.4014,2.3555,2.1994,2.1649,2.2091,2.241,2.3022,2.3724,0.0,0.0,0.0,0.0,0.0,0.0,0.0,0.0,0.0,0.0,-0.3671,-0.2641,-0.0843,-0.0206,0.0459,0.1361,0.1573,0.1917,0.2523,0.0,0.0,0.0,0.0,0.0,0.4923,0.4943,0.504,0.5214,0.5451,0.5451,0.5224,0.5863,0.6252,0.6426,0.7012,0.7617,0.8238,0.8525,0.8685,0.8651,0.7548,0.7788,0.8772,0.0,0.0,0.0,0.0,0.0,0.0,0.0,0.0,0.0,0.0,0.0,0.0,0.0,0.0,0.0,0.0,0.0,0.0,0.0,0.0,0.0,0.0,0.0,0.0,0.0,0.0,0.0,0.0,0.0,0.0,0.0,0.0,1.5454,1.568,1.4628,1.4131,1.4902,1.5474,1.5828,1.5868,1.7282,1.8313,1.8629,1.9976,2.0986,2.1427,2.2006,2.2529,2.2988,2.3566,2.3988,2.419,2.419,2.419,2.4208,2.4787,2.4768,2.4226,2.4805,2.475,2.419,2.419,2.4151,2.4074,2.4161,2.4171,2.4058,2.3325,2.3116,2.321,2.3059,2.3157,2.338,0.0,0.0,0.0,0.0,0.0,0.0,0.0,0.0,0.0,0.0,-0.4755,-0.3693,-0.1472,-0.1122,-0.0559,0.0648,0.129,0.1672,0.1777,0.0,0.0,0.0,0.0,0.4551,0.4845,0.5046,0.5193,0.5272,0.5786,0.5951,0.5784,0.6338,0.6706,0.6913,0.7212,0.7744,0.8414,0.8659,0.8945,0.9172,0.8262,0.8541,0.946,0.9252,0.9924,1.0967,1.0618,1.1111,1.1713,1.0257,0.0,0.0,0.0,0.0,0.0,0.0,0.0,0.0,0.0,0.0,0.0,0.0,0.0,0.0,0.0,0.0,0.0,0.0,0.0,0.0,0.0,0.0,0.0,0.0,1.7007,1.6906,1.7457,1.5987,1.5235,1.6341,1.6852,1.7261,1.7648,1.8885,1.9715,1.9795,2.1041,2.1941,2.2281,2.2758,2.3153,2.3492,2.3951,2.419,2.419,2.4064,2.3996,2.3996,2.4816,2.4944,2.4543,2.546,2.564,0.0,2.502,2.4696,2.4292,2.4241,2.42,0.0,0.0,0.0,0.0,0.0,2.3081,2.3301,0.0,0.0,0.0,0.0,0.0,0.0,0.0,0.0,0.0,0.0,0.0,-0.4717,-0.2104,-0.2066,-0.1658,-0.023,0.0937,0.152,0.0,0.0,0.0,0.3337,0.4419,0.4884,0.4571,0.5183,0.5502,0.5502,0.6336,0.6702,0.6654,0.7326,0.7596,0.7543,0.7707,0.8018,0.8404,0.8493,0.8945,0.9573,0.9318,0.9678,1.037,1.0445,1.127,1.2395,1.2326,1.2414,1.2429,1.1284,0.0,0.0,0.0,0.0,0.0,0.0,0.0,0.0,0.0,0.0,0.0,0.0,0.0,0.0,0.0,0.0,0.0,0.0,0.0,0.0,0.0,0.0,0.0,0.0,1.8309,1.8812,2.0065,1.7746,1.6542,1.8167,1.801,1.8226,1.9322,2.0055,2.0526,2.0709,2.1522,2.2337,2.3042,0.0,0.0,0.0,0.0,2.4158,2.4279,2.3951,2.3765,2.3783,2.4683,2.5061,2.5,2.6045,2.6464,2.6311,2.6,2.5297,2.4387,2.4426,2.4261,2.3977,2.3571,2.3458,2.3471,2.3058,2.3097,0.0,0.0,0.0,0.0,0.0,0.0,0.0,0.0,0.0,0.0,-0.6224,-0.5878,-0.4959,-0.2816,-0.2499,-0.1977,-0.0826,-0.0065,0.0841,0.0,0.0,0.3221,0.4054,0.4429,0.4737,0.4981,0.5327,0.5502,0.5502,0.6045,0.6317,0.6308,0.693,0.7205,0.7236,0.7955,0.8316,0.8444,0.9084,0.9464,0.9651,1.0273,1.0635,1.0754,1.0384,1.1151,1.2337,1.1856,1.2582,1.3607,1.2467,1.2759,1.3443,1.2404,0.0,0.0,0.0,0.0,0.0,0.0,0.0,0.0,0.0,0.0,0.0,0.0,0.0,0.0,0.0,0.0,0.0,0.0,0.0,0.0,1.8831,1.9612,2.0273,2.0968,2.0352,1.9841,1.9937,2.0069,2.0153,2.0182,2.1329,2.2068,2.2108,2.288,2.3397,2.356,2.33,0.0,2.4726,2.3867,2.3838,2.4755,2.4379,2.4181,2.4199,0.0,0.0,2.5387,2.5889,2.5613,2.4765,2.495,2.476,2.436,2.5019,2.5084,2.478,2.4677,2.4503,2.4286,2.4177,2.4183,2.4362,0.0,0.0,0.0,0.0,0.0,0.0,0.0,0.0,0.0,0.0,-0.6544,-0.5773,-0.3456,-0.4184,-0.4133,-0.2351,-0.1097,0.0,0.0,0.2485,0.326,0.4063,0.4558,0.4894,0.5098,0.5358,0.5435,0.5301,0.6105,0.6536,0.6613,0.7147,0.751,0.7725,0.8193,0.8512,0.873,0.9348,0.9737,0.999,1.042,1.085,1.1274,1.1552,1.2256,1.3075,1.28,1.3097,1.3562,1.295,1.2979,1.325,1.2909,1.2425,1.2032,0.0,0.0,0.0,0.0,0.0,0.0,0.0,0.0,0.0,0.0,0.0,0.0,0.0,0.0,1.4845,0.0,0.0,1.8647,2.0288,2.1087,2.1685,2.2178,2.2145,2.184,2.1266,2.0847,2.076,2.1156,2.1986,2.2427,2.2261,2.3156,2.3639,2.3448,2.33,2.3632,2.4563,2.4046,2.4229,2.5176,2.4817,2.4646,2.4663,2.588,2.6328,2.6167,2.6712,2.6736,2.6331,2.614,2.5754,2.5275,2.5478,2.5461,2.5347,2.5706,2.529,2.4491,2.4491,2.4491,2.4633,0.0,0.0,0.0,0.0,0.0,0.0,0.0,0.0,0.0,0.0,0.0,-0.6532,-0.4288,-0.5554,-0.5772,0.0,0.0,0.0,0.0,0.23,0.33,0.3879,0.4621,0.5049,0.5098,0.531,0.538,0.5313,0.625,0.684,0.7087,0.7516,0.7924,0.8332,0.8457,0.873,0.9133,0.9562,0.9961,1.0293,1.034,1.0855,1.1667,1.234,1.3083,1.381,1.3761,1.3395,1.2966,1.3116,1.2826,1.2524,1.3169,1.3009,1.257,1.2649,1.298,0.0,0.0,0.0,0.0,0.0,0.0,0.0,0.0,0.0,1.5088,1.5335,1.5648,1.6335,1.7826,1.8886,2.0031,2.1555,2.2188,2.2665,2.3129,2.3141,2.284,2.2136,2.1334,2.1177,2.1978,2.2416,2.2504,2.2154,2.3053,2.3466,2.3117,2.3203,2.3618,2.443,2.437,2.4761,2.5635,2.5288,2.5114,2.5131,2.5919,2.6477,2.6799,2.7313,2.7663,2.7825,2.7228,2.6814,2.6458,2.6008,2.5913,2.6099,2.6691,2.6099,2.4931,2.4931,2.4931,2.5095,0.0,0.0,0.0,0.0,0.0,0.0,0.0,0.0,0.0,0.0,0.0,0.0,0.0,0.0,0.0,0.0,0.0,0.0,0.0083,0.1622,0.2914,0.386,0.4442,0.4863,0.5098,0.5127,0.5452,0.6076,0.6321,0.6751,0.7359,0.7589,0.7945,0.8399,0.8773,0.9153,0.9554,1.0029,1.0254,1.0332,1.048,1.0985,1.1536,1.0935,1.1988,1.3763,1.3334,1.2695,1.2185,1.3083,1.278,1.2275,1.3583,1.3588,1.3137,1.3264,0.0,1.2026,1.2531,1.3069,1.3638,1.428,1.4536,1.4848,0.0,0.0,1.6817,1.6507,1.7615,1.8546,1.8177,1.9337,2.0676,2.1647,2.2188,2.2665,2.3129,2.2947,2.2643,2.2313,2.2357,2.2388,2.2283,2.2785,2.2982,2.265,2.3017,2.3105,2.2772,2.3162,2.3884,2.4976,2.4668,2.5015,2.6097,2.5725,2.5537,2.5537,2.6283,2.6656,2.6704,2.6423,2.6165,2.5901,2.5823,2.6487,2.7572,2.686,2.6962,2.757,2.7638,2.7182,2.6454,2.6454,2.6454,2.6622,0.0,0.0,0.0,0.0,0.0,0.0,0.0,0.0,0.0,0.0,0.0,0.0,0.0,0.0,0.0,0.0,0.0,0.0,-0.0435,0.1379,0.2744,0.3519,0.4141,0.4517,0.4626,0.4825,0.5072,0.5386,0.5877,0.6493,0.723,0.7591,0.8109,0.8753,0.9039,0.9271,0.9445,0.9718,0.9826,0.9839,0.9939,1.0171,1.0432,0.9953,1.0308,1.1082,1.1279,1.1015,0.0,0.0,1.1742,1.1672,1.2766,1.2936,1.2744,1.285,1.2594,0.0,1.3014,1.4226,1.5341,1.5416,1.64,1.7391,1.7584,1.8223,1.8768,1.8765,1.9312,1.9845,1.9988,2.0701,2.1405,0.0,2.2099,2.2367,2.2842,2.2414,2.1957,2.1688,2.1902,2.2117,2.2287,2.2669,2.2789,2.249,2.3176,2.3458,2.3123,2.3699,2.4448,2.5364,2.5229,2.5586,2.6477,2.6333,2.6234,2.6234,2.6539,2.6824,2.7051,2.663,2.6365,2.6234,2.6234,2.6826,2.7773,2.7469,2.7807,2.8501,2.8501,2.8298,2.8045,2.8045,2.774,2.747,0.0,0.0,0.0,0.0,0.0,0.0,0.0,0.0,0.0,0.0,0.0,0.0,0.0,0.0,0.0,0.0,0.0,0.0,0.0,0.0937,0.2404,0.3076,0.3737,0.419,0.444,0.4679,0.4896,0.5103,0.5629,0.63,0.7048,0.7392,0.7981,0.8734,0.8883,0.9056,0.924,0.927,0.9331,0.9389,0.9389,0.9489,0.9577,0.8996,0.8825,0.8986,0.9576,0.945,0.0,0.0,1.0526,1.0725,1.1854,1.2259,1.2352,1.268,1.2996,1.3374,1.3906,1.5344,1.6646,1.6454,1.7902,1.937,1.9244,1.9954,2.072,2.0998,2.0998,2.1034,2.1332,2.1316,2.1369,2.1711,2.1659,2.182,2.2612,2.2198,2.1721,2.1539,2.1669,2.1931,2.2274,2.2537,2.2586,2.2307,2.3292,2.3746,2.3422,2.4288,2.505,2.5576,2.5812,2.6167,2.6691,2.6808,2.6808,2.6691,2.6808,2.6971,2.7131,2.6824,2.681,2.6996,2.6996,2.7554,2.8415,2.8213,2.8586,2.9314,2.9314,2.9179,2.9044,2.9467,2.8975,2.8229,0.0,0.0,0.0,0.0,0.0,0.0,0.0,0.0,0.0,0.0,0.0,0.0,0.0,0.0,0.0,0.0,0.0,0.0,0.0,0.0075,0.1717,0.2589,0.3203,0.3926,0.4762,0.4798,0.5151,0.5871,0.5887,0.6241,0.6901,0.6917,0.7326,0.8038,0.8043,0.8435,0.9085,0.8828,0.8865,0.912,0.912,0.9266,0.935,0.7987,0.7868,0.8475,0.8894,0.0,0.0,0.0,0.9386,0.9379,1.1168,1.1864,0.0,1.3175,1.4028,0.0,1.5058,1.59,1.6782,1.7088,1.8285,1.9552,2.0119,2.1441,2.2594,2.2868,2.2709,2.2309,2.1549,2.0564,2.0099,2.082,2.0649,2.0996,2.2582,2.2508,2.2276,2.2262,2.2276,2.2276,0.0,2.2537,2.2586,2.2307,2.3292,2.3746,2.3422,2.478,2.5576,2.5592,2.6285,2.6674,2.6691,2.7083,2.7083,2.6708,2.7099,2.7083,2.6725,2.6708,2.7097,2.7773,2.7773,2.8635,2.9971,2.9264,2.9397,3.0074,3.0074,2.9634,2.9162,3.0618,3.0192,2.9077,0.0,0.0,0.0,0.0,0.0,0.0,0.0,0.0,0.0,0.0,0.0,0.0,0.0,0.0,0.0,0.0,0.0,0.0,0.0,0.007,0.1605,0.1984,0.2663,0.3279,0.3794,0.3893,0.4162,0.4635,0.4995,0.5591,0.6379,0.6551,0.7177,0.812,0.8,0.8175,0.8554,0.8275,0.8118,0.8018,0.7802,0.7542,0.7213,0.6338,0.6174,0.6497,0.0,0.0,0.0,0.0,0.0,0.0,1.0145,0.0,0.0,1.2685,0.0,0.0,1.6048,1.719,1.841,1.9464,2.0296,2.1098,2.2031,2.2243,2.216,2.1754,2.1606,2.1093,1.9613,1.9588,1.992,2.0246,2.036,2.0882,2.2262,2.1953,2.1566,2.1566,2.1566,0.0,0.0,0.0,0.0,2.3001,2.3816,2.446,2.4831,2.5795,2.6336,2.6336,2.6573,2.6691,2.6691,2.6824,2.7079,2.7452,2.8117,2.7828,2.6708,2.7215,2.73,2.7097,2.7587,2.8398,2.9381,2.9634,3.0159,3.0835,3.0835,3.0666,3.0514,3.1004,3.0905,3.0497,0.0,0.0,0.0,0.0,0.0,0.0,0.0,0.0,0.0,0.0,0.0,0.0,0.0,0.0,0.0,0.0,0.0,0.0,0.0,0.0,0.1744,0.2145,0.2524,0.2926,0.3356,0.3243,0.3446,0.3998,0.4347,0.4895,0.5642,0.581,0.6292,0.6975,0.6851,0.6929,0.7148,0.6897,0.6734,0.665,0.6779,0.6446,0.5902,0.5755,0.5807,0.0,0.0,0.0,0.0,0.0,0.0,0.0,0.0,0.0,0.0,0.0,1.4937,1.652,1.733,1.8608,1.9967,2.0962,2.1604,2.2136,2.2682,2.2242,2.1494,2.0754,2.0309,1.9681,1.8515,1.8508,1.8892,1.9513,1.9529,2.0038,2.1678,2.1512,2.1292,2.1563,2.1583,2.1698,0.0,0.0,0.0,2.3374,2.4575,2.549,2.5981,2.6962,2.752,2.752,2.7249,2.7097,2.7097,2.7232,2.7691,2.8425,2.8811,2.8485,2.7537,2.801,2.8112,2.7943,2.8415,2.9059,2.9822,3.0294,3.0768,3.119,3.119,3.119,3.119,3.119,3.119,3.119,0.0,0.0,0.0,0.0,0.0,0.0,0.0,0.0,0.0,0.0,0.0,0.0,0.0,0.0,0.0,0.0,0.0,0.0,0.0,0.0,0.0,0.2972,0.2739,0.2869,0.3471,0.2901,0.3048,0.3955,0.3994,0.4265,0.4761,0.476,0.4769,0.4779,0.4757,0.4864,0.5044,0.4878,0.4905,0.5145,0.6043,0.5981,0.5411,0.606,0.0,0.0,0.0,0.0,0.0,0.0,0.0,1.0831,1.1192,1.2644,1.4326,1.5005,1.6705,1.8464,1.8867,2.0069,2.1266,2.1576,2.2141,2.2528,2.2135,2.1416,2.0642,1.9933,1.8954,1.8228,0.0,0.0,1.7247,1.877,1.8403,1.8707,2.0936,2.1258,2.1529,0.0,0.0,0.0,0.0,0.0,0.0,2.3636,0.0,2.6759,2.681,2.8214,2.8976,2.8942,2.8247,2.7841,2.7807,2.827,2.8815,2.9471,2.9242,2.9077,2.8993,2.9044,2.9414,3.0057,3.0072,3.0497,3.114,3.1173,3.119,3.119,3.119,3.1207,3.1258,3.1258,3.1258,3.1258,0.0,0.0,0.0,0.0,0.0,0.0,0.0,0.0,0.0,0.0,0.0,0.0,0.0,0.0,0.0,0.0,0.0,0.0,0.0,0.0,0.0,0.0,0.0,0.0,0.0,0.0,0.0,0.0,0.0,0.4268,0.4208,0.421,0.4305,0.449,0.4289,0.4339,0.4588,0.474,0.4709,0.4615,0.0,0.5001,0.4692,0.0,0.0,0.0,0.0,0.0,0.0,0.0,1.0831,1.1717,1.1511,1.2683,1.4261,1.499,1.6514,1.8272,1.9699,2.0631,2.1402,2.222,2.1996,2.1553,2.1451,1.9967,1.8555,1.8366,1.7678,1.7283,1.7825,0.0,0.0,2.0276,1.9959,0.0,2.1786,2.2023,0.0,2.2279,0.0,2.319,2.3376,2.4973,0.0,0.0,2.6851,2.7517,2.8367,2.879,2.8739,2.8111,2.8484,2.8416,2.7807,2.9031,2.9495,2.9138,3.0148,3.0076,2.9027,2.9567,2.9617,2.9314,2.9871,3.0226,3.0429,3.097,3.119,3.119,3.119,3.1549,3.2022,3.2022,3.2022,3.2107,0.0,0.0,0.0,0.0,0.0,0.0,0.0,0.0,0.0,0.0,0.0,0.0,0.0,0.0,0.0,0.0,0.0,0.0,0.0,0.0,0.0,0.0,0.0,0.0,0.0,0.0,0.0,0.0,0.0,0.0,0.0,0.3662,0.3619,0.3645,0.3335,0.3258,0.3356,0.0,0.0,0.0,0.0,0.0,0.0,0.0,0.0,0.0,0.0,0.0,0.0,1.1055,1.1798,1.2613,1.2773,1.393,1.5412,1.6306,1.7602,1.9088,2.0574,2.1332,2.1824,2.2384,2.1722,2.0857,2.0522,1.8855,1.7313,1.7137,1.7032,1.7132,1.7693,1.78,1.8318,0.0,0.0,0.0,2.1079,2.16,2.2057,0.0,2.3139,0.0,2.4306,2.5937,2.7278,0.0,2.8373,2.8888,2.9692,2.9901,2.9753,2.9313,2.9583,2.952,2.9093,2.993,3.0231,2.9991,3.0801,3.0787,2.9991,3.0395,3.0362,2.9991,0.0,3.0581,3.0615,3.1021,3.119,3.1224,3.1565,3.1938,3.2344,3.2666,3.278,3.2882,0.0,0.0,0.0,0.0,0.0,0.0,0.0,0.0,0.0,0.0,0.0,0.0,0.0,0.0,0.0,0.0,0.0,0.0,0.0,0.0,0.0,0.0,0.0,0.0,0.0,0.0,0.0,0.0,0.0,0.0,0.0,0.0,0.0,0.0,0.0,0.0,0.0,0.0,0.0,0.0,0.0,0.0,0.0,0.0,0.0,0.0,0.0,0.0,0.0,1.2048,1.2799,1.3387,1.4149,1.5455,1.6904,1.7931,1.9076,2.023,2.1273,2.1926,2.2296,2.2296,2.1368,2.0284,1.964,1.8088,1.6734,1.6528,1.6988,1.759,1.8159,1.8155,1.8352,1.908,0.0,1.8696,1.998,2.0839,2.1867,2.3255,2.3477,2.412,2.5592,2.6831,2.801,2.9226,2.9952,3.0455,3.0749,3.1148,3.137,3.137,3.0991,3.082,3.0855,3.0855,3.0968,3.119,3.119,3.119,3.119,3.119,3.119,3.119,0.0,0.0,3.119,3.119,3.119,3.1258,3.2005,3.2361,3.2547,3.3271,3.3558,3.366,0.0,0.0,0.0,0.0,0.0,0.0,0.0,0.0,0.0,0.0,0.0,0.0,0.0,0.0,0.0,0.0,0.0,0.0,0.0,0.0,0.0,0.0,0.0,0.0,0.0,0.0,0.0,0.0,0.0,0.0,0.0,0.0,0.0,0.0,0.0,0.0,0.0,0.0,0.0,0.0,0.0,0.0,0.0,0.0,0.0,0.0,0.0,0.0,0.0,0.0,1.304,1.3569,1.3771,1.5161,1.6862,1.7651,1.8895,2.0196,2.1036,2.1773,2.2296,2.2296,2.0983,1.9657,1.9524,1.8058,1.6953,1.7847,1.8078,1.8641,2.0297,2.0078,1.9879,2.0666,2.0699,2.0699,2.0953,2.1634,2.2429,0.0,2.3949,2.4897,2.637,2.7844,0.0,0.0,0.0,3.1395,3.1125,3.1845,3.2265,3.2265,3.1626,3.1388,3.1617,3.1599,3.1465,3.119,3.119,3.119,3.119,3.119,3.119,3.119,3.119,0.0,3.119,3.119,3.119,3.1258,3.2005,3.2662,3.3305,3.4032,3.4303,3.4404,0.0,0.0,0.0,0.0,0.0,0.0,0.0,0.0,0.0,0.0,0.0,0.0,0.0,0.0,0.0,0.0,0.0,0.0,0.0,0.0,0.0,0.0,0.0,0.0,0.0,0.0,0.0,0.0,0.0,0.0,0.0,0.0,0.0,0.0,0.0,0.0,0.0,0.0,0.0,0.0,0.0,0.0,0.0,0.0,0.0,0.0,0.0,0.0,0.0,0.0,1.2738,1.2601,1.3758,1.5376,1.7011,1.7817,1.8984,2.0204,2.1156,2.1837,2.2237,2.2003,2.0584,1.9174,1.8981,1.7771,1.6919,1.7666,1.8557,1.9523,2.0622,2.072,2.0754,2.114,2.0852,2.072,2.114,2.1512,2.229,2.3797,2.4481,2.5558,2.7447,2.8631,2.9868,3.1278,0.0,3.2196,3.2248,3.2401,3.2616,3.2858,3.2529,3.2273,3.2161,3.2161,3.1842,3.119,3.119,3.119,3.119,3.119,3.119,3.119,3.119,0.0,3.119,3.119,3.119,3.1309,3.2425,3.3085,3.3541,3.4675,3.5081,3.5131,0.0,0.0,0.0,0.0,0.0,0.0,0.0,0.0,0.0,0.0,0.0,0.0,0.0,0.0,0.0,0.0,0.0,0.0,0.0,0.0,0.0,0.0,0.0,0.0,0.0,0.0,0.0,0.0,0.0,0.0,0.0,0.0,0.0,0.0,0.0,0.0,0.0,0.0,0.0,0.0,0.0,0.0,0.0,0.0,0.0,0.0,0.0,0.0,0.0,0.0,1.2062,1.1701,1.3505,1.5178,1.6664,1.7658,1.8825,2.0026,2.1201,2.19,2.2194,2.1718,2.0292,1.8892,1.8498,1.7624,1.7029,1.7437,1.8961,2.0328,2.0668,2.1117,2.1376,2.1224,2.0805,2.0657,2.1123,2.1343,2.2206,2.4254,2.4864,0.0,2.8383,2.9243,0.0,3.1379,0.0,0.0,3.3302,3.2905,3.2856,3.3317,3.3332,3.306,3.2501,3.2501,3.2056,3.119,3.119,3.119,3.119,3.119,3.119,3.119,3.119,0.0,0.0,3.119,3.1275,3.1562,3.2899,3.3508,3.3795,3.5109,3.56,3.56,0.0,0.0,0.0,0.0,0.0,0.0,0.0,0.0,0.0,0.0,0.0,0.0,0.0,0.0,0.0,0.0,0.0,0.0,0.0,0.0,0.0,0.0,0.0,0.0,0.0,0.0,0.0,0.0,0.0,0.0,0.0,0.0,0.0,0.0,0.0,0.0,0.0,0.0,0.0,0.0,0.0,0.0,0.0,0.0,0.0,0.0,0.0,0.0,1.0144,1.0266,1.0913,1.1777,1.2471,1.3622,1.5014,1.6435,1.7861,1.9329,2.0823,2.1762,2.2194,2.1718,2.0292,1.8892,1.8498,1.7989,1.7737,1.8207,1.9688,2.1022,2.1423,2.1871,2.1989,2.1309,0.0,2.1887,2.1275,2.1786,2.2767,2.4321,0.0,0.0,2.8694,2.9671,3.0595,0.0,0.0,0.0,3.3721,3.3361,3.3317,3.3734,3.3734,3.3343,3.2517,3.2501,3.2056,3.119,3.119,3.119,3.119,3.119,3.119,3.119,3.119,0.0,0.0,3.119,3.1579,3.2276,3.3085,3.3812,3.4489,3.5295,3.56,3.56,0.0,0.0,0.0,0.0,0.0,0.0,0.0,0.0,0.0,0.0,0.0,0.0,0.0,0.0,0.0,0.0,0.0,0.0,0.0,0.0,0.0,0.0,0.0,0.0,0.0,0.0,0.0,0.0,0.0,0.0,0.0,0.0,0.0,0.0,0.0,0.0,0.0,0.0,0.0,0.0,0.0,0.0,0.0,0.0,0.0,0.0,0.0,0.0,0.0,1.0169,1.0766,1.1419,1.1879,1.2272,1.3042,1.5497,1.748,1.913,2.0196,2.1366,2.212,2.1415,1.9806,1.8321,1.8038,1.7527,1.7282,1.7864,1.9593,2.1039,2.1213,2.1825,2.2195,0.0,0.0,0.0,2.206,2.1833,2.2504,2.4826,2.5704,2.7063,0.0,0.0,3.0936,0.0,0.0,0.0,3.3775,3.3652,3.3522,3.3451,3.3451,3.2996,3.2092,3.2074,3.177,3.119,3.119,3.119,3.119,3.119,3.1427,3.187,3.187,0.0,0.0,3.2056,3.231,3.2983,3.3288,3.3846,3.459,3.5329,3.56,3.56,0.0,0.0,0.0,0.0,0.0,0.0,0.0,0.0,0.0,0.0,0.0,0.0,0.0,0.0,0.0,0.0,0.0,0.0,0.0,0.0,0.0,0.0,0.0,0.0,0.0,0.0,0.0,0.0,0.0,0.0,0.0,0.0,0.0,0.0,0.0,0.0,0.0,0.0,0.0,0.0,0.0,0.0,0.0,0.0,0.0,0.0,0.0,0.0,0.0,0.0,0.0,1.1109,1.1736,1.1818,0.0,1.426,1.6199,1.7918,1.9046,2.0471,2.1474,2.0857,1.9494,1.8151,1.753,1.7189,1.7177,1.7785,1.9561,2.1039,2.115,2.1796,2.2296,0.0,0.0,2.1803,2.2587,2.2029,2.2401,2.4756,0.0,2.6795,0.0,2.9828,3.0751,0.0,0.0,0.0,0.0,3.3565,3.3494,3.3214,3.306,3.2681,3.2004,3.1879,3.166,3.1389,3.1269,3.119,3.119,3.119,3.1481,3.1972,0.0,0.0,0.0,3.2429,3.273,3.3423,3.3643,3.4184,3.4895,3.5397,3.56,3.56,0.0,0.0,0.0,0.0,0.0,0.0,0.0,0.0,0.0,0.0,0.0,0.0,0.0,0.0,0.0,0.0,0.0,0.0,0.0,0.0,0.0,0.0,0.0,0.0,0.0,0.0,0.0,0.0,0.0,0.0,0.0,0.0,0.0,0.0,0.0,0.0,0.0,0.0,0.0,0.0,0.0,0.0,0.0,0.0,0.0,0.0,0.0,0.0,0.0,0.0,0.0,0.0,0.0,0.0,0.0,0.0,1.3581,1.5197,1.7268,1.8899,2.0032,1.9999,1.9495,1.8585,1.7061,1.7219,1.7813,1.83,1.9783,2.1118,2.1521,2.1988,2.2296,0.0,0.0,0.0,2.2656,2.246,2.2691,0.0,0.0,2.4744,2.6572,2.813,0.0,0.0,0.0,0.0,0.0,3.2986,3.3199,3.3199,3.2745,3.2501,3.2501,3.2022,3.1807,3.1789,3.1389,3.119,3.119,3.119,3.119,0.0,0.0,0.0,0.0,3.2005,3.273,3.3474,3.4201,3.4945,3.5583,3.56,3.56,3.56,0.0,0.0,0.0,0.0,0.0,0.0,0.0,0.0,0.0,0.0,0.0,0.0,0.0,0.0,0.0,0.0,0.0,0.0,0.0,0.0,0.0,0.0,0.0,0.0,0.0,0.0,0.0,0.0,0.0,0.0,0.0,0.0,0.0,0.0,0.0,0.0,0.0,0.0,0.0,0.0,0.0,0.0,0.0,0.0,0.0,0.0,0.0,0.0,0.0,0.0,0.0,0.0,0.0,0.0,0.0,0.0,0.0,1.5621,1.6153,1.7743,1.9177,1.8906,1.82,1.7546,1.7459,1.7227,1.7348,1.8507,1.9938,2.1118,2.1521,2.1988,2.2141,2.163,0.0,0.0,0.0,0.0,0.0,2.4848,2.6638,2.832,0.0,0.0,0.0,0.0,0.0,0.0,0.0,3.2986,3.3045,3.2729,3.2264,3.1879,3.1601,3.1468,3.1389,3.1389,3.1252,3.119,3.119,3.119,0.0,0.0,0.0,0.0,0.0,3.2966,3.3491,3.4167,3.4404,3.4962,3.56,3.56,3.56,3.56,0.0,0.0,0.0,0.0,0.0,0.0,0.0,0.0,0.0,0.0,0.0,0.0,0.0,0.0,0.0,0.0,0.0,0.0,0.0,0.0,0.0,0.0,0.0,0.0,0.0,0.0,0.0,0.0,0.0,0.0,0.0,0.0,0.0,0.0,0.0,0.0,0.0,0.0,0.0,0.0,0.0,0.0,0.684,0.0,0.0,0.0,0.0,0.0,0.0,0.0,0.0,0.0,0.0,0.0,0.0,0.0,0.0,0.0,1.5161,1.6593,1.8047,1.7947,1.7689,1.7468,1.7423,1.748,1.7833,1.8911,2.0256,2.1369,2.1779,2.2106,2.2158,2.1684,0.0,0.0,0.0,0.0,0.0,2.4979,0.0,0.0,0.0,0.0,0.0,0.0,0.0,0.0,0.0,3.2823,3.306,3.2777,3.2298,3.2021,3.1967,3.1601,3.1524,3.1694,3.1368,3.119,3.119,3.119,0.0,0.0,0.0,0.0,0.0,3.3288,3.3829,3.4523,3.481,3.5199,3.56,3.56,3.5785,3.6011,0.0,0.0,0.0,0.0,0.0,0.0,0.0,0.0,0.0,0.0,0.0,0.0,0.0,0.0,0.0,0.0,0.0,0.0,0.0,0.0,0.0,0.0,0.0,0.0,0.0,0.0,0.0,0.0,0.0,0.0,0.0,0.0,0.0,0.0,0.0,0.0,0.0,0.0,0.0,0.0,0.0,0.0,0.0,0.0,0.0,0.0,0.0,0.0,0.0,0.0,0.0,0.0,0.0,0.0,0.0,0.0,0.0,0.0,0.0,1.5544,1.6726,1.7138,1.7798,1.8089,1.7165,1.796,0.0,1.9533,2.0669,2.1733,2.2209,2.2296,2.2279,2.2229,0.0,0.0,0.0,2.314,0.0,0.0,2.5929,0.0,0.0,0.0,0.0,0.0,0.0,0.0,0.0,3.2579,3.3243,3.3243,3.2755,3.269,3.3064,3.2212,3.1987,3.2346,3.1565,3.119,3.119,3.119,0.0,0.0,0.0,0.0,0.0,3.3102,3.3829,3.4573,3.5295,3.56,3.56,3.56,3.6113,3.6694,0.0,0.0,0.0,0.0,0.0,0.0,0.0,0.0,0.0,0.0,0.0,0.0,0.0,0.0,0.0,0.0,0.0,0.0,0.0,0.0,0.0,0.0,0.0,0.0,0.0,0.0,0.0,0.0,0.0,0.0,0.0,0.0,0.0,0.0,0.0,0.0,0.0,0.0,0.0,0.0,0.0,0.0,0.0,0.0,0.0,0.0,0.9511,0.9656,0.0,0.0,0.0,0.0,0.0,0.0,0.0,0.0,1.3693,0.0,0.0,0.0,1.6025,1.6671,1.7203,1.772,0.0,1.8663,1.9254,2.0528,2.1221,2.1733,2.2209,2.2296,2.2124,2.1546,0.0,2.2135,2.1632,2.3375,0.0,2.6064,2.7262,2.8009,0.0,0.0,0.0,0.0,0.0,0.0,0.0,3.2828,3.3666,3.3666,3.2949,3.2307,3.1742,3.1777,3.1548,3.1046,3.1156,3.119,3.119,3.119,0.0,0.0,0.0,0.0,3.2361,3.3102,3.3829,3.4573,3.5295,3.56,3.56,3.56,3.6113,3.6694,0.0,0.0,0.0,0.0,0.0,0.0,0.0,0.0,0.0,0.0,0.0,0.0,0.0,0.0,0.0,0.0,0.0,0.0,0.0,0.0,0.0,0.0,0.0,0.0,0.0,0.0,0.0,0.0,0.0,0.0,0.0,0.0,0.0,0.0,0.0,0.0,0.0,0.0,0.0,0.0,0.0,0.0,0.0,0.0,0.0,0.0,0.9182,0.9414,0.0,1.0422,1.1254,1.1943,0.0,0.0,0.0,0.0,1.3676,0.0,0.0,1.5544,1.6197,1.6597,1.7362,1.8198,1.8773,1.9443,2.0194,2.1039,2.1569,2.2003,2.2237,2.2398,2.23,0.0,2.2143,0.0,0.0,0.0,2.4782,2.6047,2.7027,0.0,0.0,0.0,0.0,0.0,0.0,0.0,0.0,3.3128,3.3623,3.3256,3.3201,3.2757,3.1902,3.1884,3.1675,3.1236,3.1407,3.1487,3.147,3.1291,3.119,0.0,0.0,0.0,3.2361,3.3102,3.3829,3.4573,3.5295,3.56,3.56,3.56,3.6113,3.6694,0.0,0.0,0.0,0.0,0.0,0.0,0.0,0.0,0.0,0.0,0.0,0.0,0.0,0.0,0.0,0.0,0.0,0.0,0.0,0.0,0.0,0.0,0.0,0.0,0.0,0.0,0.0,0.0,0.0,0.0,0.0,0.0,0.0,0.0,0.0,0.0,0.0,0.0,0.0,0.0,0.0,0.0,0.0,0.0,0.0,0.0,0.0,0.0,0.0,1.0104,1.1109,1.2257,1.2289,0.0,0.0,0.0,0.0,0.0,1.5271,1.616,1.6749,1.6987,1.7975,1.8973,1.921,2.0259,2.1224,2.1343,2.187,2.2262,2.2144,2.2316,0.0,0.0,0.0,0.0,2.3655,2.3791,2.4264,2.5456,2.6317,0.0,0.0,0.0,0.0,0.0,0.0,0.0,0.0,3.3256,3.3311,3.2619,3.3146,3.3054,3.2234,3.2073,3.1859,3.1534,3.16,3.1598,3.1524,3.13,3.119,0.0,0.0,0.0,3.2361,3.3102,3.3829,3.4573,3.5295,3.56,3.56,3.56,3.6113,3.6711,0.0,0.0,0.0,0.0,0.0,0.0,0.0,0.0,0.0,0.0,0.0,0.0,0.0,0.0,0.0,0.0,0.0,0.0,0.0,0.0,0.0,0.0,0.0,0.0,0.0,0.0,0.0,0.0,0.0,0.0,0.0,0.0,0.0,0.0,0.0,0.0,0.0,0.0,0.0,0.0,0.0,0.0,0.0,0.0,0.0,0.0,0.0,0.0,0.0,1.1438,1.1977,1.2072,1.2241,0.0,0.0,0.0,0.0,0.0,1.5585,1.627,1.7004,1.8262,1.8736,1.9244,2.0547,2.1021,2.1376,2.2006,0.0,0.0,0.0,2.1396,2.1485,0.0,0.0,2.4084,0.0,0.0,2.5725,2.5607,0.0,0.0,0.0,0.0,0.0,0.0,0.0,0.0,0.0,3.2711,3.2729,3.2601,3.2063,3.1384,3.0577,3.1529,3.1153,2.9461,3.0365,3.064,3.0391,3.0942,3.119,0.0,0.0,3.1633,3.2361,3.3102,3.3829,3.4573,3.5295,3.56,3.56,3.56,3.6113,3.6778,0.0,0.0,0.0,0.0,0.0,0.0,0.0,0.0,0.0,0.0,0.0,0.0,0.0,0.0,0.0,0.0,0.0,0.0,0.0,0.0,0.0,0.0,0.0,0.0,0.0,0.0,0.0,0.0,0.0,0.0,0.0,0.0,0.0,0.0,0.0,0.0,0.0,0.0,0.0,0.0,0.0,0.0,0.0,0.0,0.0,0.0,0.0,0.0,0.0,0.0,1.1887,1.2177,1.2274,0.0,0.0,0.0,0.0,0.0,1.5517,1.621,1.7044,1.8533,1.8894,1.9092,1.9802,2.0264,2.0771,0.0,0.0,0.0,0.0,0.0,2.2185,2.2756,0.0,2.4415,2.4929,2.5169,0.0,0.0,0.0,0.0,0.0,0.0,0.0,0.0,0.0,0.0,0.0,0.0,3.1751,3.1317,3.1788,3.1237,2.9574,3.0963,3.1098,2.9983,3.0658,3.0994,3.1029,3.114,3.119,3.119,0.0,3.1396,3.1769,3.2513,3.3021,3.3427,3.4556,3.5013,3.5064,3.5447,3.5819,3.6214,0.0,0.0,0.0,0.0,0.0,0.0,0.0,0.0,0.0,0.0,0.0,0.0,0.0,0.0,0.0,0.0,0.0,0.0,0.0,0.0,0.0,0.0,0.0,0.0,0.0,0.0,0.0,0.0,0.0,0.0,0.0,0.0,0.0,0.0,0.0,0.0,0.0,0.0,0.0,0.0,0.0,0.0,0.0,0.0,0.0,0.0,0.0,0.0,0.0,0.0,0.0,0.0,0.0,0.0,0.0,0.0,1.3829,1.4454,1.5409,1.6051,1.6841,1.8499,1.9029,1.9215,1.9396,1.9997,2.0707,0.0,0.0,0.0,0.0,2.1996,0.0,2.3612,2.4252,2.4717,2.498,0.0,0.0,0.0,0.0,0.0,0.0,0.0,0.0,0.0,0.0,0.0,0.0,0.0,3.0834,3.0228,3.139,3.106,2.9023,3.0411,3.0784,3.013,3.0644,3.1031,3.127,3.1127,3.1162,3.1332,3.1232,3.1292,3.1515,3.2073,3.2395,3.2699,3.3981,3.4607,3.4827,3.538,3.56,3.5718,0.0,0.0,0.0,0.0,0.0,0.0,0.0,0.0,0.0,0.0,0.0,0.0,0.0,0.0,0.0,0.0,0.0,0.0,0.0,0.0,0.0,0.0,0.0,0.0,0.0,0.0,0.0,0.0,0.0,0.0,0.0,0.0,0.0,0.0,0.0,0.0,0.0,0.0,0.0,0.0,0.0,0.0,0.0,0.0,0.0,0.0,0.0,0.0,0.0,0.0,0.0,0.0,0.0,0.0,0.0,0.0,1.3545,1.3829,1.5441,1.5784,1.6187,1.8352,1.9406,2.0116,2.0869,2.16,0.0,2.2212,0.0,0.0,0.0,2.0448,2.1275,2.3138,2.4296,2.533,0.0,0.0,0.0,0.0,0.0,0.0,0.0,0.0,0.0,0.0,0.0,0.0,0.0,0.0,0.0,3.021,3.032,2.9922,2.9005,2.9849,2.9553,2.8117,2.9213,2.9734,2.978,3.037,3.1042,3.1734,3.137,3.1599,3.2226,3.2276,3.2696,3.3406,3.4184,3.4928,3.5515,3.5583,3.56,3.5718,0.0,0.0,0.0,0.0,0.0,0.0,0.0,0.0,0.0,0.0,0.0,0.0,0.0,0.0,0.0,0.0,0.0,0.0,0.0,0.0,0.0,0.0,0.0,0.0,0.0,0.0,0.0,0.0,0.0,0.0,0.0,0.0,0.0,0.0,0.0,0.0,0.0,0.0,0.0,0.0,0.0,0.0,0.0,0.0,0.0,0.0,0.0,0.0,0.0,0.0,1.3509,0.0,0.0,0.0,0.0,0.0,1.4092,1.4913,1.5532,1.6333,1.7168,1.8014,1.9118,0.0,0.0,2.0314,2.0331,2.0775,2.1278,0.0,0.0,0.0,2.2685,2.3879,2.4602,0.0,0.0,0.0,0.0,0.0,0.0,0.0,0.0,0.0,0.0,0.0,0.0,0.0,0.0,0.0,0.0,2.9445,2.9953,2.9812,2.9005,2.9794,2.9532,2.8224,2.9157,2.9972,3.0666,3.0932,3.1306,3.1789,3.164,3.1583,3.1667,3.2107,3.2462,3.2835,3.4015,3.4962,3.56,3.56,3.56,3.5718,0.0,0.0,0.0,0.0,0.0,0.0,0.0,0.0,0.0,0.0,0.0,0.0,0.0,0.0,0.0,0.0,0.0,0.0,0.0,0.0,0.0,0.0,0.0,0.0,0.0,0.0,0.0,0.0,0.0,0.0,0.0,0.0,0.0,0.0,0.0,0.0,0.0,0.0,0.0,0.0,0.0,0.0,0.0,0.0,0.0,0.0,0.0,0.0,0.0,0.0,1.3509,0.0,0.0,0.0,0.0,0.0,0.0,1.5646,1.5876,1.6678,1.7557,1.8031,0.0,0.0,2.0268,1.9993,1.9853,2.0572,2.0974,2.1427,2.2175,0.0,0.0,0.0,0.0,0.0,0.0,0.0,0.0,0.0,0.0,0.0,0.0,0.0,0.0,0.0,0.0,0.0,0.0,0.0,0.0,0.0,2.9537,2.9555,2.9005,2.9537,2.9412,2.8596,2.9399,3.0278,3.1166,3.1151,3.1463,3.2004,3.1862,3.1703,3.1599,3.209,3.2564,3.3089,3.41,3.4962,3.56,3.56,3.56,3.5718,0.0,0.0,0.0,0.0,0.0,0.0,0.0,0.0,0.0,0.0,0.0,0.0,0.0,0.0,0.0,0.0,0.0,0.0,0.0,0.0,0.0,0.0,0.0,0.0,0.0,0.0,0.0,0.0,0.0,0.0,0.0,0.0,0.0,0.0,0.0,0.0,0.0,0.0,0.0,0.0,0.0,1.3156,1.3413,0.0,0.0,0.0,0.0,0.0,0.0,0.0,1.3509,0.0,0.0,0.0,0.0,0.0,1.5028,1.5774,1.6502,1.6716,1.7061,1.8521,0.0,0.0,2.0835,2.119,2.141,2.2127,2.1701,2.1427,2.2175,2.1701,0.0,0.0,0.0,0.0,0.0,0.0,0.0,0.0,0.0,0.0,0.0,0.0,0.0,0.0,0.0,0.0,0.0,0.0,0.0,0.0,2.9005,2.9005,2.9005,2.9005,2.9005,2.9005,2.9824,3.0452,3.0898,3.0842,3.1422,3.2467,3.2004,3.1996,3.2293,3.2293,3.319,3.4506,3.4506,3.4962,3.56,3.56,3.56,3.5718,0.0,0.0,0.0,0.0,0.0,0.0,0.0,0.0,0.0,0.0,0.0,0.0,0.0,0.0,0.0,0.0,0.0,0.0,0.0,0.0,0.0,0.0,0.0,0.0,0.0,0.0,0.0,0.0,0.0,0.0,0.0,0.0,0.0,0.0,0.0,0.0,0.0,0.0,0.0,0.0,0.0,1.3049,1.3148,0.0,0.0,0.0,0.0,0.0,0.0,0.0,0.0,0.0,0.0,0.0,0.0,1.5426,1.5808,1.6417,1.6648,1.7077,0.0,1.8031,0.0,0.0,0.0,2.0352,0.0,0.0,2.136,2.1427,2.2175,0.0,0.0,0.0,0.0,0.0,0.0,0.0,0.0,0.0,0.0,0.0,0.0,0.0,0.0,0.0,0.0,0.0,0.0,0.0,0.0,0.0,2.9005,2.9005,2.9005,2.9005,2.9005,2.9005,2.9824,3.0564,3.1263,3.1816,3.2224,3.2517,3.2713,3.2319,3.1596,3.2645,3.3947,3.5261,3.5261,3.5397,3.56,3.56,3.56,3.5718,0.0,0.0,0.0,0.0,0.0,0.0,0.0,0.0,0.0,0.0,0.0,0.0,0.0,0.0,0.0,0.0,0.0,0.0,0.0,0.0,0.0,0.0,0.0,0.0,0.0,0.0,0.0,0.0,0.0,0.0,0.0,0.0,0.0,0.0,0.0,0.0,0.0,0.0,0.0,0.0,0.0,1.2906,1.3057,0.0,0.0,0.0,0.0,0.0,0.0,0.0,0.0,0.0,0.0,0.0,0.0,1.6079,1.635,1.6756,1.7061,1.7456,1.7867,1.8155,1.9135,2.0069,2.0403,0.0,0.0,0.0,2.1634,2.1769,2.2212,2.2296,0.0,0.0,0.0,0.0,0.0,0.0,0.0,0.0,0.0,0.0,0.0,0.0,0.0,0.0,0.0,0.0,0.0,0.0,0.0,0.0,2.8822,2.8858,2.8539,2.884,2.9005,2.9005,2.9824,3.0613,3.1433,3.2228,3.2556,3.2501,3.2598,3.2371,3.2012,3.3188,3.4253,3.5199,3.5481,3.56,3.56,3.56,3.56,3.5667,0.0,0.0,0.0,0.0,0.0,0.0,0.0,0.0,0.0,0.0,0.0,0.0,0.0,0.0,0.0,0.0,0.0,0.0,0.0,0.0,0.0,0.0,0.0,0.0,0.0,0.0,0.0,0.0,0.0,0.0,0.0,0.0,0.0,0.0,0.0,0.0,0.0,0.0,0.0,0.0,1.2562,1.2731,1.3043,1.3741,0.0,0.0,0.0,0.0,0.0,0.0,0.0,0.0,1.5697,1.5747,1.5933,1.6604,1.679,1.6942,1.7625,1.78,1.7952,1.8623,1.9406,0.0,2.1106,2.182,2.2279,2.2212,0.0,2.2296,2.2296,0.0,0.0,0.0,0.0,0.0,0.0,0.0,0.0,0.0,0.0,0.0,0.0,0.0,0.0,0.0,0.0,0.0,0.0,0.0,0.0,2.7688,2.84,2.8473,2.7816,2.8539,2.8932,0.0,2.9824,3.0577,3.1323,3.2153,3.2542,3.2534,3.2057,3.2331,3.3167,3.3765,3.4226,3.4621,3.525,3.5532,3.56,3.56,3.56,3.56,0.0,0.0,0.0,0.0,0.0,0.0,0.0,0.0,0.0,0.0,0.0,0.0,0.0,0.0,0.0,0.0,0.0,0.0,0.0,0.0,0.0,0.0,0.0,0.0,0.0,0.0,0.0,0.0,0.0,0.0,0.0,0.0,0.0,0.0,0.0,0.0,0.0,0.0,0.0,0.0,1.2291,1.2451,1.2738,1.3097,1.3765,0.0,0.0,0.0,0.0,0.0,0.0,0.0,1.6451,1.6864,1.736,1.7523,1.7557,1.7608,1.7749,1.78,0.0,1.8003,1.9034,2.0356,2.1752,2.2178,2.2127,2.1563,2.1904,2.2296,2.2296,0.0,0.0,0.0,0.0,0.0,0.0,0.0,0.0,0.0,0.0,0.0,0.0,0.0,0.0,0.0,0.0,0.0,0.0,0.0,0.0,2.6851,2.7024,2.7346,2.7798,2.797,2.8374,0.0,2.9824,3.0283,3.0491,3.1615,3.2473,3.3014,3.2567,3.2993,3.3972,3.3455,3.3963,3.5026,3.4831,3.5098,3.56,3.56,3.56,3.56,0.0,0.0,0.0,0.0,0.0,0.0,0.0,0.0,0.0,0.0,0.0,0.0,0.0,0.0,0.0,0.0,0.0,0.0,0.0,0.0,0.0,0.0,0.0,0.0,0.0,0.0,0.0,0.0,0.0,0.0,0.0,0.0,0.0,0.0,0.0,0.0,0.0,0.0,0.0,0.0,1.2154,1.256,1.3185,1.3825,1.4674,1.5595,1.594,0.0,0.0,0.0,0.0,0.0,0.0,0.0,1.7337,1.771,1.7557,1.727,1.727,0.0,0.0,1.8251,0.0,2.0788,2.1583,2.2057,2.2178,2.1803,2.204,2.2296,0.0,0.0,0.0,0.0,0.0,0.0,0.0,0.0,0.0,0.0,0.0,0.0,0.0,0.0,0.0,0.0,0.0,0.0,0.0,2.5631,2.5595,2.6007,2.641,2.6796,2.7218,2.7603,2.8209,2.9005,2.9427,2.993,3.0519,3.154,3.2444,3.3184,3.2952,3.3057,3.3419,3.3336,3.3641,3.417,3.4415,3.4726,3.5131,3.5464,3.56,3.56,0.0,0.0,0.0,0.0,0.0,0.0,0.0,0.0,0.0,0.0,0.0,0.0,0.0,0.0,0.0,0.0,0.0,0.0,0.0,0.0,0.0,0.0,0.0,0.0,0.0,0.0,0.0,0.0,0.0,0.0,0.0,0.0,0.0,0.0,0.0,0.0,0.0,0.0,0.0,0.0,1.2545,1.3136,1.3977,1.4861,1.5812,1.6783,1.7388,1.7219,1.6807,1.7557,0.0,0.0,0.0,0.0,1.6841,1.7591,1.7371,0.0,0.0,1.7337,1.7969,1.8724,1.9853,0.0,2.097,2.1566,2.2124,2.2124,2.2212,2.2307,0.0,0.0,0.0,0.0,0.0,0.0,0.0,0.0,0.0,0.0,0.0,0.0,0.0,0.0,0.0,0.0,0.0,0.0,2.5154,2.5191,2.5191,2.5191,2.597,2.6465,2.6602,2.7402,2.8209,2.9005,2.9005,2.96,3.0731,3.1396,3.2231,3.3199,3.3273,3.309,3.2749,3.3224,3.3284,3.318,3.3843,3.4269,3.4573,3.5199,3.5481,3.56,0.0,0.0,0.0,0.0,0.0,0.0,0.0,0.0,0.0,0.0,0.0,0.0,0.0,0.0,0.0,0.0,0.0,0.0,0.0,0.0,0.0,0.0,0.0,0.0,0.0,0.0,0.0,0.0,0.0,0.0,0.0,0.0,0.0,0.0,0.0,0.0,0.0,0.0,0.0,0.0,0.0,1.4496,1.4608,1.5048,1.5812,1.6716,1.6807,1.6773,1.6807,1.7557,1.6898,0.0,0.0,0.0,0.0,1.7591,1.7732,0.0,0.0,0.0,1.7969,0.0,1.9046,1.9367,0.0,0.0,2.1343,0.0,2.1854,0.0,0.0,0.0,0.0,0.0,0.0,0.0,0.0,0.0,0.0,0.0,0.0,0.0,0.0,0.0,0.0,0.0,0.0,0.0,2.4355,2.4355,2.4355,2.4355,2.5136,2.5888,2.6583,2.7402,2.8209,2.9005,2.9005,2.9459,3.0283,3.0393,3.145,3.3229,3.3564,3.3675,3.3578,3.2916,3.2998,3.3459,3.2823,3.3376,3.4506,3.4607,3.5064,3.56,0.0,0.0,0.0,0.0,0.0,0.0,0.0,0.0,0.0,0.0,0.0,0.0,0.0,0.0,0.0,0.0,0.0,0.0,0.0,0.0,0.0,0.0,0.0,0.0,0.0,0.0,0.0,0.0,0.0,0.0,0.0,1.414,1.4209,0.0,0.0,0.0,0.0,0.0,0.0,0.0,0.0,0.0,0.0,0.0,1.6307,1.6749,1.7179,1.7044,1.6807,1.7557,1.7084,1.64,1.7462,0.0,0.0,0.0,0.0,0.0,1.78,1.7507,1.7365,0.0,1.8589,1.9096,1.9828,2.0619,2.1358,2.1931,0.0,0.0,0.0,0.0,0.0,0.0,0.0,0.0,0.0,0.0,0.0,0.0,0.0,0.0,0.0,0.0,0.0,0.0,0.0,2.419,2.419,2.419,2.419,2.419,2.4548,2.5117,2.5925,2.6722,2.7769,2.9005,2.9005,2.9427,3.021,3.021,3.1052,3.2564,3.2949,3.3246,3.3419,3.3045,3.2925,3.3,3.3222,3.3536,3.3981,3.481,3.5312,3.56,0.0,0.0,0.0,0.0,0.0,0.0,0.0,0.0,0.0,0.0,0.0,0.0,0.0,0.0,0.0,0.0,0.0,0.0,0.0,0.0,0.0,0.0,0.0,0.0,0.0,0.0,0.0,0.0,0.0,0.0,1.4583,1.5558,1.5929,0.0,1.5891,0.0,0.0,0.0,0.0,0.0,0.0,0.0,0.0,0.0,0.0,0.0,0.0,0.0,0.0,0.0,0.0,0.0,0.0,0.0,0.0,0.0,0.0,0.0,0.0,0.0,1.7111,1.7648,1.8205,1.8809,0.0,0.0,2.1297,0.0,0.0,0.0,0.0,0.0,0.0,0.0,0.0,0.0,0.0,0.0,0.0,0.0,0.0,0.0,0.0,0.0,0.0,0.0,0.0,2.419,2.419,2.419,2.419,2.419,2.4392,2.4787,2.5393,2.619,2.7409,2.9005,2.8785,2.9115,2.9898,2.9898,3.0501,3.1592,3.2281,3.2894,3.3332,3.3105,3.2809,3.2558,3.3143,3.3379,3.3541,3.4636,3.5278,3.56,0.0,0.0,0.0,0.0,0.0,0.0,0.0,0.0,0.0,0.0,0.0,0.0,0.0,0.0,0.0,0.0,0.0,0.0,0.0,0.0,0.0,0.0,0.0,0.0,0.0,0.0,0.0,0.0,0.0,0.0,1.6109,1.6863,1.7205,1.7172,1.6814,1.664,1.6678,0.0,0.0,0.0,0.0,0.0,0.0,0.0,0.0,0.0,0.0,0.0,0.0,0.0,0.0,0.0,0.0,0.0,0.0,0.0,0.0,0.0,0.0,1.7766,0.0,1.7783,1.7834,1.8053,0.0,0.0,0.0,0.0,0.0,0.0,0.0,0.0,0.0,0.0,0.0,0.0,0.0,0.0,0.0,0.0,0.0,0.0,0.0,0.0,0.0,0.0,0.0,2.419,2.419,2.419,2.419,2.419,2.4934,2.5356,2.5393,2.619,2.7409,2.8987,2.8227,2.8282,2.906,2.906,2.9507,3.0387,3.194,3.3041,3.3707,3.2887,3.2517,3.2417,3.1648,3.2192,3.3423,3.3491,3.4382,3.56,0.0,0.0,0.0,0.0,0.0,0.0,0.0,0.0,0.0,0.0,0.0,0.0,0.0,0.0,0.0,0.0,0.0,0.0,0.0,0.0,0.0,0.0,0.0,0.0,0.0,0.0,0.0,0.0,0.0,1.6777,1.6153,1.7147,1.7396,1.6973,1.704,1.7194,1.7422,1.7681,0.0,0.0,0.0,0.0,0.0,0.0,0.0,0.0,0.0,0.0,0.0,0.0,0.0,0.0,0.0,0.0,0.0,0.0,0.0,0.0,0.0,0.0,0.0,1.78,1.78,1.8121,1.9338,1.9894,2.057,0.0,0.0,0.0,0.0,0.0,0.0,0.0,0.0,0.0,0.0,0.0,0.0,0.0,0.0,0.0,0.0,0.0,0.0,0.0,0.0,0.0,2.419,2.419,2.419,2.419,2.4493,2.4879,2.5393,2.5686,2.6631,2.8227,2.7934,2.8227,2.9005,2.9005,2.9721,3.0999,3.1586,3.2284,3.3033,3.2982,3.2761,3.254,3.2913,3.3202,3.3525,3.445,3.5143,3.56,0.0,0.0,0.0,0.0,0.0,0.0,0.0,0.0,0.0,0.0,0.0,0.0,0.0,0.0,0.0,0.0,0.0,0.0,0.0,0.0,0.0,0.0,0.0,0.0,0.0,0.0,0.0,0.0,0.0,0.0,0.0,1.744,1.7491,1.6977,1.732,1.7584,0.0,0.0,0.0,1.7777,0.0,0.0,1.6755,0.0,0.0,0.0,0.0,0.0,0.0,0.0,0.0,0.0,0.0,0.0,0.0,0.0,0.0,0.0,1.78,0.0,0.0,0.0,1.7986,1.8528,1.9858,0.0,2.1157,0.0,0.0,0.0,0.0,0.0,0.0,0.0,0.0,0.0,0.0,0.0,0.0,0.0,0.0,0.0,0.0,0.0,0.0,0.0,0.0,0.0,2.419,2.419,2.419,2.419,2.419,2.4585,2.5393,2.5136,2.5944,2.7798,2.753,2.797,2.9005,2.9005,2.9574,3.0613,3.1176,3.2008,3.2996,3.2982,3.2777,3.2575,3.3244,3.3461,3.3558,3.4793,3.538,3.56,0.0,0.0,0.0,0.0,0.0,0.0,0.0,0.0,0.0,0.0,0.0,0.0,0.0,0.0,0.0,0.0,0.0,0.0,0.0,0.0,0.0,0.0,0.0,0.0,0.0,0.0,0.0,0.0,0.0,0.0,0.0,0.0,1.7607,0.0,1.7647,1.7789,1.78,0.0,1.7789,1.7766,0.0,1.7503,1.765,0.0,0.0,0.0,1.6671,1.6939,0.0,1.7403,0.0,0.0,0.0,0.0,0.0,0.0,0.0,0.0,0.0,0.0,0.0,0.0,0.0,0.0,2.0258,0.0,2.2398,0.0,0.0,0.0,0.0,0.0,0.0,0.0,0.0,0.0,0.0,0.0,0.0,0.0,0.0,0.0,0.0,0.0,0.0,0.0,0.0,2.419,2.419,2.419,2.419,2.419,2.419,2.4566,2.5356,2.4585,2.5401,2.775,2.6979,2.7446,2.9005,2.9005,2.9005,2.9115,3.0705,3.2302,3.3698,3.2854,3.2518,3.2523,3.2383,3.278,3.3525,3.4252,3.4996,3.56,0.0,0.0,0.0,0.0,0.0,0.0,0.0,0.0,0.0,0.0,0.0,0.0,0.0,0.0,0.0,0.0,0.0,0.0,0.0,0.0,0.0,0.0,0.0,0.0,0.0,0.0,0.0,0.0,0.0,0.0,0.0,0.0,0.0,0.0,1.7392,1.7572,1.78,1.78,0.0,0.0,1.7607,1.7282,0.0,0.0,0.0,0.0,0.0,1.6841,1.7105,0.0,1.7368,1.7491,0.0,0.0,0.0,0.0,0.0,0.0,1.78,0.0,0.0,0.0,0.0,0.0,0.0,0.0,0.0,0.0,0.0,0.0,0.0,0.0,0.0,0.0,0.0,0.0,0.0,0.0,0.0,0.0,0.0,0.0,0.0,0.0,0.0,0.0,2.419,2.419,2.419,2.419,2.419,2.419,2.419,2.43,2.453,2.43,2.5126,2.6924,2.6722,2.7446,2.9005,2.9005,2.9317,2.9934,3.0944,3.1971,3.2915,3.2624,3.2802,3.3283,3.3151,3.3541,3.4286,3.503,3.5414,3.5667,0.0,0.0,0.0,0.0,0.0,0.0,0.0,0.0,0.0,0.0,0.0,0.0,0.0,0.0,0.0,0.0,0.0,0.0,0.0,0.0,0.0,0.0,0.0,0.0,0.0,0.0,0.0,0.0,0.0,0.0,0.0,0.0,0.0,0.0,0.0,0.0,0.0,0.0,0.0,0.0,1.7322,0.0,0.0,1.678,1.67,0.0,0.0,0.0,1.7014,1.7076,1.7272,0.0,0.0,0.0,0.0,0.0,0.0,0.0,0.0,0.0,0.0,0.0,0.0,0.0,2.0504,2.1637,2.2704,0.0,0.0,0.0,0.0,0.0,0.0,0.0,0.0,0.0,0.0,0.0,0.0,0.0,0.0,0.0,0.0,0.0,0.0,2.419,2.419,2.419,2.419,2.419,2.419,2.419,2.419,2.419,2.419,2.419,2.5016,2.6602,2.6602,2.7446,2.9005,2.9005,2.9262,2.9769,3.0889,3.1659,3.214,3.2592,3.2931,3.3159,3.332,3.366,3.4167,3.5211,3.56,3.5667,0.0,0.0,0.0,0.0,0.0,0.0,0.0,0.0,0.0,0.0,0.0,0.0,0.0,0.0,0.0,0.0,0.0,0.0,0.0,0.0,0.0,0.0,0.0,0.0,0.0,0.0,0.0,0.0,0.0,0.0,0.0,0.0,0.0,0.0,0.0,0.0,0.0,0.0,0.0,1.8182,1.6984,1.7111,0.0,0.0,1.6408,0.0,1.6109,1.6365,1.7097,1.6879,1.7252,0.0,0.0,0.0,0.0,0.0,1.785,0.0,0.0,0.0,0.0,0.0,0.0,0.0,2.0888,2.2191,2.3426,2.4016,0.0,0.0,0.0,0.0,0.0,0.0,0.0,0.0,0.0,0.0,0.0,0.0,0.0,0.0,0.0,2.419,2.419,2.419,2.419,2.419,2.419,2.419,2.419,2.419,2.419,2.419,2.419,2.419,2.5016,2.6602,2.6602,2.7446,2.9005,2.9005,2.9005,2.9097,3.0705,3.1397,3.1488,3.2708,3.3011,3.2789,3.3276,3.355,3.3791,3.5109,3.56,3.5616,0.0,0.0,0.0,0.0,0.0,0.0,0.0,0.0,0.0,0.0,0.0,0.0,0.0,0.0,0.0,0.0,0.0,0.0,0.0,0.0,0.0,0.0,0.0,0.0,0.0,0.0,0.0,0.0,0.0,0.0,0.0,0.0,0.0,0.0,0.0,0.0,0.0,0.0,0.0,1.8202,1.7928,0.0,1.6954,1.6637,1.6338,1.6065,1.5872,1.5926,1.6177,0.0,1.7252,1.78,0.0,0.0,0.0,0.0,0.0,0.0,0.0,0.0,0.0,0.0,0.0,0.0,2.1113,2.2473,2.3649,0.0,0.0,0.0,0.0,0.0,0.0,0.0,0.0,0.0,0.0,0.0,0.0,0.0,0.0,0.0,0.0,2.419,2.419,2.419,2.419,2.419,2.419,2.419,2.419,2.419,2.419,2.419,2.419,2.419,2.5016,2.6602,2.6602,2.7446,2.9005,2.9005,2.9005,2.9097,3.0705,3.1397,3.1488,3.2708,3.3621,3.4252,3.4027,3.4459,3.5211,3.5481,3.56,3.5684,0.0,0.0,0.0,0.0,0.0,0.0,0.0,0.0,0.0,0.0,0.0,0.0,0.0,0.0,0.0,0.0,0.0,0.0,0.0,0.0,0.0,0.0,0.0,0.0,0.0,0.0,0.0,0.0,0.0,0.0,0.0,0.0,0.0,0.0,0.0,0.0,0.0,0.0,1.9139,1.915,1.7945,0.0,1.713,1.6488,1.6263,1.6219,1.5904,1.6011,1.6382,1.6876,1.7384,0.0,0.0,1.8606,1.8826,0.0,1.8606,1.8741,0.0,0.0,0.0,1.8228,0.0,0.0,0.0,2.2213,2.3346,2.3855,2.3937,0.0,0.0,0.0,0.0,0.0,0.0,0.0,0.0,0.0,0.0,0.0,0.0,0.0,0.0,2.419,2.419,2.419,2.419,2.419,2.419,2.419,2.419,2.419,2.419,2.419,2.419,2.4603,2.5401,2.6602,2.7016,2.7831,2.9005,2.9005,2.9005,2.9097,3.0705,3.1397,3.1513,3.2922,3.3882,3.4477,3.4202,3.4268,3.4585,3.5329,3.56,3.565,0.0,0.0,0.0,0.0,0.0,0.0,0.0,0.0,0.0,0.0,0.0,0.0,0.0,0.0,0.0,0.0,0.0,0.0,0.0,0.0,0.0,0.0,0.0,1.8194,0.0,0.0,0.0,0.0,0.0,0.0,0.0,0.0,0.0,0.0,0.0,0.0,0.0,0.0,0.0,1.9636,0.0,1.7413,1.7773,1.6623,1.6383,1.6652,1.6144,1.6377,1.6961,1.7329,0.0,1.8202,1.8819,1.9166,0.0,0.0,0.0,0.0,0.0,0.0,0.0,0.0,0.0,2.1259,0.0,0.0,0.0,2.3917,0.0,0.0,0.0,0.0,0.0,0.0,0.0,0.0,0.0,0.0,0.0,0.0,0.0,0.0,0.0,2.419,2.419,2.419,2.419,2.419,2.419,2.419,2.419,2.419,2.419,2.419,2.419,2.5007,2.5797,2.6602,2.742,2.8227,2.9005,2.9005,2.9005,2.9078,3.054,3.1268,3.1507,3.2963,3.3759,3.4105,3.4304,3.4116,3.3909,3.5268,3.5694,3.56,0.9113,0.9063,0.0,0.0,0.0,0.0,0.0,0.0,0.0,0.0,0.0,0.0,0.0,0.0,0.0,0.0,0.0,0.0,1.3964,0.0,0.0,0.0,0.0,0.0,1.9187,0.0,0.0,0.0,0.0,0.0,0.0,0.0,0.0,0.0,2.0136,0.0,0.0,0.0,1.9487,0.0,1.8345,1.8523,0.0,1.7773,1.716,1.6681,1.6622,1.6893,1.7335,0.0,1.8594,1.924,0.0,2.0074,2.0801,0.0,0.0,0.0,0.0,0.0,0.0,0.0,2.0362,0.0,0.0,0.0,2.3247,2.3671,0.0,0.0,0.0,0.0,0.0,0.0,0.0,0.0,0.0,0.0,0.0,0.0,0.0,0.0,0.0,0.0,2.419,2.419,2.419,2.419,2.419,2.419,2.419,2.419,2.419,2.419,2.419,2.5007,2.5797,2.6602,2.742,2.8227,2.9005,2.9005,2.9005,2.906,2.9941,3.0742,3.147,3.2375,3.2967,3.3473,3.4807,3.5207,3.5094,3.598,3.6028,3.56,0.9899,0.9689,0.0,0.0,0.0,0.0,0.0,0.0,0.0,0.0,0.0,0.0,0.0,0.0,0.0,0.0,0.0,1.3457,0.0,0.0,0.0,0.0,0.0,0.0,0.0,0.0,0.0,0.0,2.0643,0.0,0.0,0.0,0.0,0.0,1.9167,0.0,1.8224,0.0,1.8388,0.0,0.0,0.0,0.0,1.7667,1.6742,1.6219,1.6577,1.6955,1.7386,0.0,1.8586,0.0,0.0,0.0,0.0,0.0,0.0,0.0,0.0,0.0,0.0,0.0,0.0,0.0,2.18,0.0,2.2875,0.0,0.0,0.0,0.0,0.0,0.0,0.0,0.0,0.0,0.0,0.0,0.0,0.0,0.0,0.0,0.0,0.0,0.0,0.0,0.0,2.419,2.419,2.419,2.419,2.419,2.419,2.419,2.419,2.5456,2.6264,2.662,2.7886,2.8675,2.9005,2.9005,2.9005,2.9078,3.0338,3.1091,3.1507,3.2779,3.3401,3.3715,3.5323,3.5398,3.4711,3.5942,3.6266,3.6028,1.0628,0.0,0.0,0.0,0.0,0.0,0.0,0.0,0.0,0.0,0.0,0.0,1.4055,1.3852,0.0,0.0,1.2741,1.2967,0.0,0.0,1.5369,1.7247,1.7864,0.0,0.0,0.0,0.0,0.0,0.0,0.0,0.0,0.0,0.0,0.0,0.0,1.7951,1.7652,0.0,0.0,1.7893,1.8613,1.9104,1.9273,1.7803,1.6981,1.6653,1.7101,1.7438,1.7777,1.8405,1.8874,0.0,1.983,0.0,0.0,0.0,0.0,0.0,2.0512,0.0,0.0,0.0,0.0,0.0,0.0,0.0,0.0,0.0,0.0,0.0,0.0,0.0,0.0,0.0,0.0,0.0,0.0,0.0,0.0,0.0,0.0,0.0,0.0,0.0,0.0,2.419,2.419,2.419,2.419,2.419,2.419,2.419,2.419,2.43,2.453,2.5915,2.6722,2.6961,2.8345,2.9005,2.9005,2.9005,2.9115,2.9372,3.0338,3.1109,3.1788,3.2742,3.3403,3.3972,3.5642,3.5568,3.4665,3.6245,3.6744,3.6597,1.1216,1.0531,0.0,0.0,0.0,0.0,0.0,0.0,0.0,0.0,0.0,0.0,0.0,0.0,0.0,0.0,0.0,1.0661,1.2172,0.0,1.5315,1.5828,1.7788,1.9244,0.0,0.0,2.1539,2.1478,0.0,0.0,0.0,0.0,0.0,0.0,0.0,1.8921,1.8057,1.7718,1.742,1.7236,1.8425,1.8841,1.8732,0.0,1.8627,1.8612,1.8627,0.0,0.0,1.9441,1.9921,0.0,0.0,0.0,0.0,0.0,0.0,0.0,0.0,0.0,0.0,2.136,0.0,0.0,0.0,0.0,2.2784,0.0,0.0,0.0,0.0,0.0,0.0,0.0,0.0,0.0,0.0,0.0,0.0,0.0,0.0,0.0,0.0,0.0,0.0,2.419,2.419,2.419,2.419,2.419,2.419,2.419,2.419,2.4566,2.5338,2.619,2.6998,2.778,2.8601,2.9005,2.9005,2.9005,2.9427,3.0118,2.939,3.0399,3.2509,3.177,3.2375,3.3972,3.5642,3.5945,3.5663,3.7265,3.756,3.7278,0.0,0.0,0.0,0.0,0.0,0.0,0.0,1.3524,0.0,0.0,0.0,0.0,0.0,1.1794,1.1362,0.0,0.0,1.094,1.2115,1.3481,0.0,0.0,0.0,1.9871,0.0,0.0,2.2137,2.2288,2.2081,0.0,0.0,0.0,0.0,0.0,0.0,1.7878,0.0,0.0,0.0,0.0,0.0,1.9414,1.9256,0.0,0.0,1.8102,1.8553,1.8702,0.0,1.9465,1.98,1.9962,2.0227,2.0616,2.1071,2.1476,2.1809,0.0,0.0,0.0,2.2229,2.1989,0.0,0.0,0.0,0.0,0.0,0.0,0.0,0.0,0.0,0.0,0.0,0.0,0.0,0.0,0.0,0.0,0.0,0.0,0.0,0.0,0.0,0.0,0.0,2.419,2.419,2.419,0.0,2.419,2.419,2.419,2.4713,2.5117,2.5393,2.6733,2.753,2.7816,2.862,2.9005,2.9005,2.9005,2.9445,3.021,3.0485,3.1347,3.2619,3.2889,3.3623,3.4711,3.5844,3.6523,3.6921,3.7615,3.8131,3.8636,1.2829,0.0,0.0,0.0,0.0,0.0,0.0,0.0,0.0,0.0,1.2389,0.0,1.164,0.0,1.1211,0.0,1.0819,1.1237,1.2478,1.3381,0.0,1.6001,1.8052,0.0,0.0,0.0,2.1712,2.1735,0.0,2.164,0.0,0.0,0.0,0.0,0.0,1.7477,1.7241,0.0,1.648,0.0,0.0,1.9708,0.0,0.0,1.8401,1.8478,0.0,1.9046,1.9121,1.9558,1.9708,1.9747,2.0,2.0296,2.0615,2.1023,2.1477,2.1871,2.2003,2.2163,0.0,0.0,2.2296,0.0,2.2296,0.0,0.0,0.0,0.0,0.0,0.0,0.0,0.0,0.0,0.0,0.0,0.0,0.0,0.0,0.0,0.0,0.0,0.0,0.0,2.419,2.419,2.419,2.419,0.0,0.0,2.419,2.419,2.497,2.554,2.5815,2.7137,2.7934,2.8227,2.8748,2.9005,2.9005,2.9299,2.9879,3.065,3.1176,3.2008,3.3041,3.3293,3.4014,3.5096,3.5973,3.6795,3.7554,3.8024,3.8872,3.9962,0.0,0.0,0.0,0.0,1.4314,0.0,0.0,0.0,1.2831,0.0,1.1889,1.1553,1.1515,1.1021,1.0933,1.1515,1.1059,1.1432,1.3048,1.3689,0.0,0.0,1.6609,1.7422,1.6819,0.0,0.0,0.0,0.0,0.0,0.0,0.0,0.0,0.0,1.8703,0.0,1.7258,1.6731,1.6812,1.7479,1.9031,1.969,1.9708,1.9708,0.0,1.9708,1.9708,1.9708,1.9708,1.9708,1.9708,1.9693,1.9711,1.9744,1.9803,2.0244,2.0682,2.1118,2.1521,2.1974,2.2296,2.2296,0.0,0.0,0.0,0.0,2.2374,0.0,0.0,0.0,0.0,0.0,0.0,0.0,0.0,0.0,0.0,0.0,0.0,0.0,0.0,0.0,0.0,2.419,2.419,2.419,2.419,2.419,0.0,0.0,0.0,2.4263,2.5081,2.5888,2.6638,2.7457,2.8246,2.9005,2.9005,2.9023,2.9097,2.9861,3.0668,3.147,3.147,3.2339,3.3733,3.3023,3.3647,3.5151,3.6028,3.6835,3.7658,3.8505,3.9774,4.1156,1.4901,1.4428,1.4153,0.0,1.4648,1.4462,0.0,0.0,0.0,0.0,1.1284,1.0783,1.0383,1.0545,1.0756,1.0921,1.1211,0.0,0.0,0.0,0.0,1.4096,1.6411,1.7422,1.6819,1.9006,0.0,1.9996,0.0,0.0,2.0466,0.0,0.0,0.0,0.0,0.0,1.725,1.6731,1.7047,1.7963,1.8783,1.935,0.0,0.0,1.9708,1.9708,1.9708,1.9708,1.9708,1.9708,1.9708,1.9747,2.0037,2.0158,2.0297,2.1055,2.1337,2.1553,2.2003,2.2209,2.2296,2.2296,2.2296,2.2296,0.0,0.0,0.0,0.0,0.0,0.0,0.0,0.0,0.0,0.0,0.0,0.0,0.0,0.0,0.0,0.0,0.0,0.0,0.0,2.419,2.419,2.419,2.419,2.419,0.0,0.0,0.0,2.5081,2.6458,2.7284,2.7493,2.8301,2.8803,2.9005,2.9005,2.9317,2.9898,3.0118,3.098,3.2302,3.2302,3.2871,3.3825,3.4215,3.5004,3.6046,3.6868,3.7694,3.856,3.9974,4.0747,4.128,1.5916,0.0,0.0,1.4804,0.0,0.0,1.3552,0.0,0.0,1.2015,1.145,0.0,1.101,1.082,1.0894,1.1397,1.1748,0.0,1.3086,0.0,0.0,1.3977,1.5313,1.5957,1.5795,1.7639,0.0,1.8983,0.0,0.0,2.0019,0.0,0.0,0.0,0.0,1.7312,1.7312,1.7229,1.7544,1.8185,1.8949,0.0,0.0,1.9708,1.9708,1.9708,1.9708,1.9708,1.9708,1.9708,1.9708,1.9729,1.9965,2.0052,2.0176,2.083,2.1181,2.143,2.1869,2.2135,2.2296,2.2296,2.2296,2.2296,2.2296,2.2296,2.2296,0.0,0.0,0.0,0.0,0.0,0.0,0.0,0.0,0.0,0.0,0.0,0.0,0.0,0.0,0.0,0.0,2.419,2.419,2.419,2.453,2.4566,0.0,0.0,0.0,2.5393,2.7291,2.8154,2.7798,2.931,2.9702,2.9005,2.9354,2.9769,3.0228,3.0925,3.1739,3.2619,3.2981,3.3385,3.3862,3.4674,3.55,3.6413,3.7569,3.8303,3.8854,4.012,4.0799,4.1279,1.6712,0.0,0.0,0.0,0.0,0.0,0.0,1.2862,0.0,1.2237,0.0,1.1575,1.2128,1.136,1.1232,1.23,0.0,1.2931,1.3921,1.3496,1.3428,1.3959,1.3925,1.4084,1.4485,1.5959,0.0,0.0,0.0,0.0,1.969,0.0,0.0,0.0,0.0,0.0,0.0,1.7907,1.8145,0.0,1.9225,1.9639,1.9708,1.9708,1.9708,1.9708,1.9708,1.9708,1.9708,1.9708,1.9708,1.9708,1.9708,1.9744,1.9856,2.0263,2.0715,2.1166,2.1583,2.1988,2.2296,2.2296,2.2296,2.2296,2.2296,2.2296,2.2296,2.2296,2.2296,0.0,0.0,0.0,0.0,0.0,0.0,0.0,0.0,0.0,0.0,0.0,0.0,0.0,0.0,0.0,2.419,2.419,2.4842,2.4934,0.0,0.0,0.0,0.0,2.7805,0.0,2.8275,0.0,3.0742,2.9482,3.0081,3.0411,3.0558,3.1959,3.2656,3.2803,3.3495,3.3862,3.4027,3.4821,3.5738,3.6743,3.8157,3.8707,3.8799,3.9588,4.0414,4.1224,0.0,0.0,0.0,0.0,0.0,1.2352,1.1911,1.1444,1.1094,1.1007,1.0532,1.0394,1.0946,1.1261,1.1701,1.2337,1.2797,0.0,0.0,0.0,0.0,1.3353,1.3717,1.4084,1.4485,1.5629,1.6711,0.0,1.844,1.9118,0.0,0.0,0.0,0.0,0.0,0.0,1.7967,1.8066,0.0,1.8779,1.8968,1.9314,1.9708,1.9708,1.9708,1.9708,1.9708,1.9708,1.9708,1.9708,1.9708,1.9708,1.9708,1.9927,2.028,2.0732,2.1181,2.1598,2.2046,2.2237,2.2296,2.2296,2.2296,2.2296,2.2296,2.2296,2.2296,2.2296,2.2296,2.2296,2.2296,0.0,0.0,0.0,0.0,0.0,0.0,0.0,0.0,0.0,0.0,0.0,0.0,0.0,0.0,0.0,2.4318,2.4355,0.0,0.0,0.0,0.0,0.0,0.0,0.0,0.0,0.0,3.1959,3.1439,3.1531,3.2179,3.2472,3.2949,3.3605,3.3733,3.4192,3.4857,3.5716,3.6945,3.8303,3.8597,3.8707,3.8799,3.9588,4.0414,4.1224,0.0,0.0,0.0,0.0,0.0,0.0,0.0,1.1475,0.0,1.1548,1.136,1.1525,1.237,1.2206,1.2241,1.2776,1.3048,1.3198,1.3198,1.3198,1.3198,1.3198,1.3719,0.0,1.4485,1.5205,1.6278,1.7713,1.8027,1.8702,0.0,0.0,0.0,0.0,0.0,1.7686,0.0,0.0,0.0,1.8535,1.9095,1.946,1.9708,1.9708,1.9708,1.9708,1.9708,1.9708,1.9708,1.9708,1.9708,1.9708,1.9708,1.9821,2.0122,2.0797,2.1134,2.1446,2.2123,2.2296,2.2296,2.2296,2.2296,2.2296,2.2296,2.2296,2.2296,2.2296,2.2296,2.2296,2.2296,2.2527,0.0,0.0,0.0,0.0,0.0,0.0,0.0,0.0,0.0,0.0,0.0,0.0,0.0,0.0,0.0,0.0,0.0,0.0,0.0,0.0,0.0,0.0,0.0,0.0,0.0,3.1971,3.2008,3.2228,3.2601,3.3036,3.344,3.3825,3.4247,3.4637,3.5096,3.6395,3.7624,3.8707,3.8707,3.8964,3.9368,3.9753,4.0671,4.1791,0.0,1.6914,0.0,0.0,1.3595,0.0,1.2196,1.161,1.1452,1.204,1.219,1.2621,1.3632,1.2948,1.2613,1.3148,1.3198,1.3198,1.3198,1.3198,1.3198,1.3198,1.3665,1.4084,1.4485,1.4814,1.5863,0.0,1.7713,1.8386,0.0,0.0,0.0,0.0,0.0,0.0,0.0,0.0,1.8283,1.8361,1.9314,1.9708,1.9708,1.9708,1.9708,1.9708,1.9708,1.9708,1.9708,1.9708,1.9708,1.9708,1.9708,1.9764,1.998,2.0764,2.1055,2.1307,2.2092,2.2296,2.2296,2.2296,2.2296,2.2296,2.2296,2.2296,2.2296,2.2296,2.2296,2.2296,2.2296,2.2477,0.0,0.0,0.0,0.0,0.0,0.0,0.0,0.0,0.0,0.0,0.0,0.0,0.0,0.0,0.0,2.4934,2.4493,2.5227,0.0,0.0,0.0,0.0,3.0962,0.0,3.3256,0.0,3.2632,3.2931,3.3133,3.377,3.4156,3.4376,3.5004,3.5371,3.5646,3.7129,3.812,3.8726,3.8891,3.9331,3.9937,4.0267,4.1203,4.2323,0.0,0.0,0.0,0.0,0.0,0.0,0.0,1.0946,1.032,1.1035,1.1452,1.1889,1.2492,1.245,1.2613,1.3148,1.3198,1.3198,1.3198,1.3198,1.3198,1.3198,1.325,1.3682,1.4485,1.4549,1.5581,0.0,0.0,1.8386,0.0,0.0,0.0,0.0,0.0,0.0,0.0,1.8593,1.8836,1.8874,1.946,1.9708,1.9708,1.9708,1.9708,1.9708,1.9708,1.9708,1.9708,1.9708,1.9708,1.9708,1.9708,1.9947,2.0348,2.0845,2.126,2.1658,2.2149,2.2296,2.2296,2.2296,2.2296,2.2296,2.2296,2.2296,2.2296,2.2296,2.2296,2.2296,2.2296,2.2307,2.2335,0.0,0.0,0.0,0.0,0.0,0.0,0.0,0.0,0.0,0.0,0.0,0.0,0.0,0.0,2.4603,2.5246,2.6043,2.7189,2.873,0.0,3.199,3.344,3.3697,0.0,3.4656,3.4009,3.4082,3.4784,3.4857,3.5316,3.6064,3.6156,3.6578,3.7327,3.8212,3.8634,3.8781,3.9496,3.9827,4.0065,4.1534,4.2176,4.2396,0.0,0.0,0.0,0.0,0.0,0.0,0.0,1.2259,1.1999,1.2287,1.2077,1.2153,1.2814,1.2889,1.296,1.3185,1.3198,1.3198,1.3198,1.3198,1.3198,1.3198,1.3547,1.3983,1.4485,1.4737,1.5597,0.0,0.0,1.8177,1.9106,0.0,0.0,0.0,0.0,1.7303,1.8125,1.8341,1.8612,1.8949,1.9479,1.9708,1.9708,1.9708,1.9708,1.9708,1.9708,1.9708,1.9708,1.9708,1.9708,1.9708,1.9708,1.9803,2.0017,2.0449,2.0894,2.1322,2.1764,2.2092,2.2296,2.2296,2.2296,2.2296,2.2296,2.2296,2.2296,2.2296,2.2296,2.2296,2.2296,2.2296,2.2296,0.0,0.0,0.0,0.0,0.0,0.0,0.0,0.0,0.0,0.0,0.0,0.0,0.0,0.0,2.5062,2.5374,2.6153,2.7336,2.895,0.0,3.1458,3.3073,3.3568,3.3972,3.427,3.4435,3.4692,3.5023,3.5536,3.6229,3.7052,3.7533,3.8193,3.9016,3.9808,4.0141,4.0159,4.0506,4.0928,4.1423,4.2066,4.2598,4.3057,1.7903,0.0,1.5283,0.0,1.4406,1.4136,1.3323,1.3198,1.3198,1.3198,1.2751,1.2613,1.3135,1.3198,1.3198,1.3198,1.3198,1.3198,1.3198,1.3198,1.3198,1.3198,1.3615,0.0,1.4485,1.4783,1.5599,1.698,1.7298,0.0,0.0,0.0,0.0,0.0,1.6745,1.6771,1.7646,1.7807,1.8185,1.8708,1.9244,1.9566,1.9708,1.9708,1.9708,1.9708,1.9708,1.9708,1.9708,1.9708,1.9708,1.9708,1.9708,1.9708,1.9782,2.0193,2.0633,2.1086,2.1491,2.1943,2.2296,2.2296,2.2296,2.2296,2.2296,2.2296,2.2296,2.2296,2.2296,2.2296,2.2296,2.2296,2.2296,0.0,0.0,0.0,0.0,0.0,0.0,0.0,2.4145,2.4556,2.4547,0.0,0.0,0.0,0.0,0.0,2.6458,2.6778,0.0,0.0,0.0,0.0,0.0,0.0,3.4156,3.4174,3.4986,3.55,3.5756,3.6615,3.7441,3.8245,3.8799,3.9515,4.0304,4.0873,4.1095,4.1113,4.1352,4.1809,4.2323,4.2561,4.3002,4.3515,1.6934,1.4743,1.324,1.3223,1.3223,1.3223,1.3198,1.3198,1.3198,1.3198,1.3185,1.3185,1.3198,1.3198,1.3198,1.3198,1.3198,1.3198,1.3198,1.3198,1.3198,0.0,0.0,1.3615,1.4485,1.4501,1.5549,1.7699,0.0,0.0,1.8864,0.0,1.6798,1.7265,1.6186,1.5994,1.6552,1.7076,1.7626,1.8165,1.8688,1.9225,1.9708,1.9708,1.9708,1.9708,1.9708,1.9708,1.9708,1.9708,1.9708,1.9708,1.9708,1.9708,1.9782,2.0193,2.0633,2.1086,2.1491,2.1943,2.2296,2.2296,2.2296,2.2296,2.2296,2.2296,2.2296,2.2296,2.2296,2.2296,2.2296,2.2296,2.2296,2.2296,0.0,0.0,0.0,0.0,0.0,0.0,2.569,2.6245,2.5466,0.0,0.0,0.0,0.0,0.0,0.0,0.0,0.0,3.1305,3.2155,0.0,3.377,3.4582,3.4986,3.5004,3.5881,3.6703,3.7492,3.8303,3.9111,3.9863,3.9879,4.0341,4.1077,4.1095,4.1095,4.1168,4.1992,4.2286,4.2396,4.3185,4.3496,4.3515,1.4384,1.3684,1.3198,1.3198,1.3198,1.3198,1.3198,1.2072,1.1708,1.303,1.3198,1.3198,1.3198,1.3198,1.3198,0.0,1.3198,1.3198,0.0,1.3198,1.3198,1.3198,1.3584,1.4074,1.462,1.4989,1.5661,1.6596,0.0,0.0,0.0,1.6749,1.6577,1.6727,1.6014,1.6189,1.7055,1.7229,1.7605,1.8165,1.8669,1.9006,1.9188,1.9566,1.9708,1.9708,1.9708,1.9708,1.9708,1.9708,1.9708,1.9708,1.9708,1.9708,1.9782,2.0193,2.0633,2.1086,2.1491,2.1943,2.2296,2.2296,2.2296,2.2296,2.2296,2.2296,2.2296,2.2296,2.2296,2.2296,2.2296,2.2296,2.2296,2.2296,0.0,0.0,0.0,0.0,0.0,0.0,2.4393,2.485,0.0,2.5319,0.0,0.0,0.0,0.0,0.0,0.0,0.0,0.0,3.2706,0.0,3.4619,3.5445,3.5899,3.5899,3.6721,3.7547,3.834,3.9148,3.9662,3.9955,4.1056,4.168,4.1974,4.2506,4.2745,4.2763,4.302,4.3112,4.3149,4.3423,4.3515,4.3515,1.3198,1.3198,1.3198,1.3198,1.3198,1.3198,1.3198,1.2162,1.1818,1.303,1.289,1.282,1.3163,1.2983,0.0,1.3181,1.3198,1.3198,1.3198,1.3198,1.3403,1.3817,1.4048,1.4419,1.5002,0.0,0.0,1.6478,1.6603,1.6628,1.6502,1.6282,1.6319,1.6475,1.5944,1.6168,1.6993,1.6993,1.7312,1.7827,1.8165,1.8419,1.865,1.9207,1.9406,1.9424,1.9621,1.9708,1.9708,1.9708,1.9708,1.9708,1.9708,1.9708,1.9747,2.0,2.0398,2.0829,2.126,2.1705,2.2092,2.2268,2.2296,2.2296,2.2296,2.2296,2.2296,2.2296,2.2296,2.2296,2.2296,2.2296,2.2296,2.2296,0.0,2.2296,2.2296,0.0,0.0,0.0,0.0,0.0,0.0,2.5944,0.0,0.0,0.0,0.0,0.0,0.0,0.0,3.1825,3.3109,0.0,3.5481,3.6321,3.6758,3.6758,3.7584,3.8358,3.9166,3.9662,4.023,4.0855,4.1864,4.247,4.2782,4.3277,4.3515,4.3515,4.3515,4.3515,4.3515,4.3515,4.3515,4.3515,1.3198,1.3198,0.0,0.0,1.3198,0.0,1.3198,1.3198,1.3198,1.3198,1.2372,1.2156,1.3112,1.2614,1.249,1.3134,0.0,0.0,0.0,1.3198,1.3704,1.4846,1.4551,0.0,1.55,1.5539,1.6048,1.6987,1.7163,1.698,1.6425,1.5969,1.6019,1.6475,1.5982,1.6032,1.65,1.65,1.6795,1.725,1.7291,1.7605,1.8106,1.8631,1.8874,1.8968,1.946,1.9672,1.9708,1.9708,1.9708,1.9708,1.9708,1.9708,1.9708,1.9729,2.0017,2.0399,2.0878,2.1291,2.1703,2.2135,2.2282,2.2296,2.2296,2.2296,2.2296,2.2296,2.2296,2.2296,2.2296,2.2296,2.2296,2.2296,2.2296,2.2296,2.2296,0.0,0.0,0.0,0.0,0.0,0.0,2.7567,2.8007,0.0,0.0,0.0,0.0,0.0,3.1201,3.2638,3.3587,3.4798,3.6358,3.718,3.7584,3.7584,3.8395,3.9184,3.99,4.0026,4.0873,4.2304,4.2359,4.28,4.3515,4.3515,4.3515,4.3515,4.3515,4.3515,4.3515,4.3515,4.3515,4.3515,0.0,0.0,1.3198,1.3198,1.3198,1.3198,1.3198,1.3198,1.3198,1.3198,1.2372,1.2156,1.3112,1.2738,1.2638,1.3146,1.3198,1.3198,1.3198,1.3198,1.3704,1.4846,1.4808,1.5036,1.564,1.6038,1.6196,1.6031,1.6464,1.641,1.5894,1.6183,1.6375,1.6488,1.6384,1.6375,1.65,1.65,1.6573,1.6731,1.7126,1.7394,1.7544,1.8086,1.8535,1.893,1.9043,1.935,1.9708,1.9708,1.9708,1.9708,1.9708,1.9708,1.9764,2.007,2.0229,2.0399,2.0878,2.1291,2.1628,2.1733,2.2032,2.2296,2.2296,2.2296,2.2296,2.2296,2.2296,2.2296,2.2296,2.2296,2.2296,2.2296,2.2296,2.2296,2.2296,2.2824,0.0,0.0,2.5708,2.6539,2.6337,2.7383,2.8099,0.0,0.0,0.0,0.0,0.0,3.3757,3.3532,3.5546,3.6813,3.7217,3.801,3.8414,3.8432,3.9221,3.9717,3.9937,4.1167,4.1937,4.2323,4.2947,4.3331,4.3515,4.3515,4.3515,4.3515,4.3515,4.3515,4.3515,4.3515,4.3515,4.3515,1.3198,1.3198,1.3198,1.3198,1.3198,1.2908,1.2018,1.262,1.3198,1.3198,1.2768,1.2473,1.2561,1.2431,1.2591,1.3146,1.3198,1.3198,1.3198,1.3198,1.3605,1.4534,1.4926,1.5284,1.5654,1.6209,1.623,1.5654,1.596,1.5948,1.5666,1.596,1.6238,1.65,1.65,1.65,1.65,1.65,1.65,1.6543,1.6816,1.693,1.6993,1.7524,1.7927,1.8204,1.8458,1.8874,1.9332,1.9332,1.9497,1.9708,1.9708,1.9708,1.9729,1.9947,2.0035,2.0106,2.0565,2.0846,2.1102,2.1506,2.1943,2.2296,2.2296,2.2296,2.2398,2.2719,2.2801,2.2919,2.3241,2.3038,2.2801,2.2801,2.2516,2.2296,2.2296,2.3132,0.0,2.4598,2.6465,2.7599,2.7391,2.8631,2.9475,2.9537,0.0,0.0,3.2467,3.4816,3.5587,3.438,3.6395,3.7676,3.8028,3.8487,3.8891,3.9239,3.968,4.0286,4.102,4.1901,4.2506,4.2873,4.3296,4.3515,4.3515,4.3515,4.3515,4.3515,4.3515,4.3515,4.3515,4.3515,4.3515,4.3515,1.3198,1.3198,1.3198,1.3198,1.296,1.221,1.0544,1.1697,1.2756,1.2756,1.3012,1.289,1.2102,1.1941,1.2265,1.3116,1.3112,1.3047,1.3047,1.3146,1.3458,1.4025,1.4869,1.5396,1.5598,1.6095,1.6073,1.5454,1.5565,1.561,1.561,1.5698,1.6008,1.65,1.65,1.65,1.65,1.65,1.65,1.65,1.65,1.65,1.6552,1.7013,1.7229,1.7374,1.7907,1.84,1.8798,1.8968,1.9262,1.9584,1.9672,1.9708,1.9708,1.9708,1.9708,1.9764,2.0106,2.0246,2.0501,2.1383,2.1899,2.2209,2.2282,2.2381,2.2634,2.3274,2.3477,2.3763,2.4372,2.3898,2.346,2.3697,2.3021,2.2533,2.2769,0.0,2.4835,2.5291,2.7619,2.9008,2.8618,3.0348,3.1254,3.0705,3.2606,0.0,0.0,3.6299,3.689,3.561,3.6945,3.808,3.8872,3.8891,3.9276,4.0084,4.0194,4.0983,4.2304,4.2433,4.2837,4.3515,4.3515,4.3515,4.3515,4.3515,4.3515,4.3515,4.3515,4.3515,4.3515,4.3515,4.3515,4.3515,1.3198,1.3198,1.3198,1.3198,1.1836,1.0659,1.0341,1.0563,1.0745,1.0745,1.218,1.3146,1.2995,1.1549,1.129,1.3047,1.2679,1.2354,1.2354,1.2938,1.3308,1.3357,1.435,1.5117,1.5598,1.5698,1.5432,1.4835,1.5343,1.561,1.561,1.6117,1.6402,1.65,1.65,1.65,1.65,1.65,1.65,1.65,1.65,1.65,1.6522,1.6595,1.6909,1.7374,1.7907,1.8165,1.8361,1.9262,1.9332,1.9114,1.9566,1.9708,1.9708,1.9708,1.9708,1.9711,1.9782,2.0052,2.0501,2.1383,2.1658,2.1809,2.2209,2.2784,2.3257,2.3376,2.3898,2.4355,2.4474,2.3898,2.3799,2.5067,2.412,2.3663,0.0,0.0,2.6123,2.6853,2.871,2.9905,2.9829,3.1099,3.2151,3.2676,3.3405,3.4412,3.5844,3.6923,3.7694,3.812,3.8377,3.8909,3.9698,3.9698,4.012,4.0912,4.1607,4.2066,4.2323,4.3002,4.3386,4.3515,4.3515,4.3515,4.3515,4.3515,4.3515,4.3515,4.3515,4.3515,4.3515,4.3515,4.3515,4.3515,1.3198,1.3198,1.2873,1.1818,1.0897,1.0303,1.0303,1.0303,1.0303,1.0303,1.2,1.3198,1.3198,1.2407,1.1788,1.1653,1.1697,1.1722,1.1722,1.2412,1.2789,1.2722,1.3736,1.4579,1.5107,1.513,1.4824,1.4213,1.448,1.4801,1.5118,1.5399,1.5888,1.65,1.65,1.65,1.65,1.65,1.6325,1.6095,1.6375,1.6333,1.6107,1.6387,1.6659,1.693,1.7483,1.7666,1.7827,1.8912,1.9114,1.8987,1.953,1.9708,1.9708,1.9708,1.9708,1.9708,1.9708,2.0,2.0399,2.0797,2.1259,2.1757,2.2382,2.2975,2.363,2.4425,2.4864,2.5203,2.5608,2.5067,2.4932,2.6015,2.4949,0.0,0.0,2.6522,2.7109,2.81,3.0068,3.1419,3.1637,3.2748,3.3617,3.399,3.4582,3.5271,3.6043,3.7267,3.8433,3.9522,3.9845,3.9974,3.99,4.0322,4.0946,4.1754,4.2121,4.2525,4.2947,4.3331,4.3515,4.3515,4.3515,4.3515,4.3515,4.3515,4.3515,4.3515,4.3515,4.3515,4.3515,4.3515,4.3515,4.3515,1.3198,1.2843,1.2054,1.0563,1.0303,1.0303,1.0303,1.0303,1.0303,1.0303,1.1597,1.2532,1.2532,1.2532,1.1927,1.0428,1.0764,1.1075,1.1075,1.178,1.218,1.2149,1.3248,1.4071,1.4491,1.4491,1.419,1.36,1.3873,1.426,1.4709,1.4994,1.5545,1.6293,1.6445,1.6361,1.612,1.6395,1.612,1.5567,1.6224,1.6183,1.5756,1.6308,1.65,1.6573,1.7118,1.7209,1.7312,1.8496,1.8817,1.8836,1.9479,1.9708,1.9708,1.9708,1.9708,1.9708,1.9708,1.9927,2.0224,2.0481,2.1133,2.1917,2.2749,2.3442,2.4272,2.5592,2.5981,2.6336,2.7097,2.6623,2.6404,2.7334,0.0,0.0,0.0,2.7998,2.8596,2.9639,3.1457,3.2751,3.3076,3.3975,3.4637,3.4831,3.5505,3.6073,3.6444,3.7628,3.882,3.9969,4.0896,4.1093,4.0451,4.1075,4.1791,4.258,4.258,4.2892,4.3515,4.3515,4.3515,4.3515,4.3515,4.3515,4.3515,4.3515,4.3515,4.3515,4.3515,4.3515,4.3515,4.3515,4.3515,4.3515,1.3198,1.1763,1.0467,1.0322,1.0303,1.0303,1.0303,1.0303,1.0303,1.0303,1.0428,1.0505,1.0505,1.0505,1.0467,1.0322,1.0341,1.038,1.038,1.117,1.1654,1.164,1.3049,1.3831,1.3862,1.3873,1.3576,1.2978,1.4095,1.4663,1.4721,1.5832,1.6129,1.5698,1.6238,1.5914,1.4976,1.6061,1.5906,1.5047,1.6082,1.6183,1.5756,1.6308,1.65,1.6573,1.7118,1.6972,1.6795,1.838,1.8574,1.8341,1.9369,1.9708,1.9708,1.9708,1.9708,1.9708,1.9708,1.9711,1.9972,2.098,2.1646,2.2344,2.3391,2.4562,2.5659,2.6454,2.7165,2.7874,2.8688,2.818,2.8128,2.9599,0.0,0.0,3.0548,3.0891,3.1215,3.1972,3.2808,3.3337,3.3384,3.3834,3.4443,3.5196,3.5653,3.655,3.8035,3.8229,3.8552,3.9085,4.1134,4.2176,4.2121,4.2176,4.2616,4.3423,4.3423,4.3441,4.3515,4.3515,4.3515,4.3515,4.3515,4.3515,4.3515,4.3515,4.3515,4.3515,4.3515,4.3515,4.3515,4.3515,4.3515,4.3515,1.3198,1.2615,1.1726,1.0505,1.0303,1.0303,1.0303,1.0303,1.0303,1.0303,1.0303,1.0303,1.0303,1.0303,1.0303,1.0303,1.0303,1.043,1.0761,1.1301,1.1851,1.2377,1.2948,1.3238,1.3238,1.3624,1.3684,1.3467,1.392,1.4329,1.4698,1.5175,1.5466,1.5632,1.6238,1.6246,1.5868,1.6327,1.6082,1.5462,1.6187,1.6183,1.5756,1.6308,1.65,1.6573,1.7118,1.7167,1.7188,1.8477,1.8746,1.8727,1.946,1.9708,1.9783,2.0198,2.0318,2.0408,2.0827,2.0337,1.9984,2.1142,2.1758,2.2521,2.4131,2.543,2.6488,2.7232,2.7994,2.8636,2.8942,2.8738,2.9042,3.0531,0.0,3.0004,3.2256,3.2171,3.2175,3.2882,3.3626,3.4083,3.4083,3.4661,3.5369,3.618,3.6371,3.6904,3.7988,3.8812,3.9511,4.0158,4.1728,4.2213,4.1554,4.2543,4.3185,4.3515,4.3515,4.3515,4.3515,4.3515,4.3515,4.3515,4.3515,4.3515,4.3515,4.3515,4.3515,4.3515,4.3515,4.3515,4.3444,4.3142,4.3214,4.3444,1.3198,1.3198,1.2764,1.1358,1.0665,1.0303,1.0303,1.0303,1.0303,1.0303,1.0303,1.0303,1.0303,1.0303,1.0303,1.0303,1.0303,1.0527,1.1052,1.1533,1.2214,1.3136,1.2992,1.3089,1.3454,1.3695,1.3886,1.4073,1.4272,1.4572,1.4994,1.5175,1.5377,1.5632,1.6238,1.6314,1.5994,1.6361,1.6095,1.5512,1.6233,1.6183,1.5756,1.6308,1.65,1.6552,1.6909,1.7146,1.7442,1.8341,1.8746,1.8987,1.953,1.9708,1.9842,2.0513,2.0703,2.0838,2.1515,2.1021,2.0617,2.1793,2.2422,2.3264,2.5218,2.6384,2.7334,2.8314,2.8958,2.9501,2.9958,3.0042,3.0448,3.1681,3.1478,3.1765,3.3508,3.3305,3.3254,3.4015,3.4539,3.4844,3.4844,3.5537,3.6214,3.6761,3.7015,3.7466,3.821,3.9456,4.0262,4.0533,4.1955,4.2212,4.1188,4.2732,4.3515,4.3515,4.3515,4.3515,4.3515,4.3515,4.3515,4.3515,4.3515,4.3515,4.3515,4.3515,4.3515,4.3515,4.3515,4.3515,4.3463,4.3105,4.3178,4.3444,1.3198,1.3198,1.3143,1.2946,1.1467,1.0322,1.0303,1.0303,1.0303,1.0303,1.0303,1.0312,1.0322,1.0312,1.0303,1.0303,1.0303,1.0527,1.1062,1.1804,1.2682,1.3758,1.3214,1.3454,1.4663,1.412,1.4097,1.4698,1.5298,1.561,1.561,1.6216,1.6173,1.5632,1.6238,1.5868,1.4898,1.6028,1.5881,1.4997,1.607,1.6183,1.5756,1.6287,1.65,1.65,1.65,1.6858,1.7394,1.7927,1.8458,1.9006,1.953,1.9708,1.9824,2.0494,2.0703,2.0853,2.1545,2.1724,2.1999,2.313,2.3809,2.4731,2.666,2.7485,2.8246,2.9785,3.0106,3.0565,3.2039,3.231,3.2564,3.3288,3.3406,3.3677,3.4387,3.4506,3.4776,3.5498,3.56,3.56,3.56,3.6332,3.6812,3.6829,3.7499,3.8244,3.8954,4.0206,4.0528,3.9738,4.165,4.2277,4.1411,4.2812,4.3515,4.3515,4.3515,4.3515,4.3515,4.3515,4.3515,4.3515,4.3515,4.3515,4.3515,4.3515,4.3515,4.3515,4.3515,4.3515,4.3515,4.3497,4.3497,4.3515,1.3198,1.3198,1.3143,1.2946,1.2475,1.1712,1.0488,1.0303,1.0303,1.0303,1.0303,1.0772,1.1995,1.1036,1.0303,1.0303,1.0547,1.1055,1.1823,1.2393,1.283,1.3142,1.3002,1.3065,1.343,1.4084,1.4514,1.4698,1.5298,1.561,1.561,1.5776,1.5776,1.5632,1.6238,1.6314,1.6015,1.6361,1.6333,1.6057,1.6362,1.64,1.6283,1.6437,1.65,1.65,1.65,1.7097,1.7887,1.8046,1.8708,1.9479,1.9639,2.0019,2.0543,2.1201,2.1724,2.2338,2.3445,2.3723,2.3799,2.4051,2.4535,2.5457,2.7377,2.8636,2.9683,3.0666,3.1275,3.1935,3.2899,3.3068,3.3305,3.4049,3.4167,3.4438,3.5182,3.5261,3.5346,3.5566,3.6096,3.6434,3.6434,3.7127,3.7787,3.8294,3.9046,3.9554,3.9757,4.0118,4.0394,4.0545,4.1519,4.1955,4.1668,4.2905,4.3515,4.3515,4.3515,4.3515,4.3515,4.3515,4.3515,4.3515,4.3515,4.3515,4.3515,4.3515,4.3515,4.3515,4.3515,4.3515,4.3444,4.3069,4.3178,4.3444,1.3198,1.3899,1.4476,1.4338,1.3515,1.2553,1.1496,1.0743,1.042,1.0762,1.0508,1.0704,1.176,1.0929,1.0303,1.0303,1.0841,1.1475,1.2164,1.2637,1.2905,1.2905,1.2905,1.3017,1.3238,1.4201,1.4812,1.505,1.5666,1.5952,1.5952,1.5952,1.5952,1.5974,1.6337,1.65,1.65,1.65,1.65,1.65,1.65,1.65,1.65,1.65,1.65,1.65,1.65,1.7188,1.8106,1.8106,1.8989,2.0094,2.0094,2.0557,2.1231,2.1889,2.2388,2.2987,2.4246,2.4605,2.4777,2.5453,2.5857,2.6658,2.8837,2.9945,3.0835,3.185,3.2408,3.2949,3.3694,3.3846,3.4184,3.5255,3.5424,3.5656,3.6394,3.6495,3.6495,3.6495,3.6941,3.7229,3.7229,3.7905,3.8633,3.9377,3.9859,4.0096,4.0096,4.0096,4.0254,4.0577,4.1133,4.1446,4.1446,4.26,4.3178,4.3178,4.3178,4.3286,4.3515,4.3515,4.3515,4.3515,4.3515,4.3515,4.3515,4.3515,4.3515,4.3515,4.3515,4.3515,4.3462,4.3142,4.3214,4.3444,1.3448,1.497,1.6274,1.6463,1.4502,1.2905,1.2905,1.1516,1.0723,1.1508,1.0841,1.0303,1.0303,1.0303,1.0303,1.0303,1.1115,1.1819,1.2233,1.2656,1.2905,1.2905,1.2905,1.3152,1.3708,1.4306,1.4926,1.5521,1.6117,1.6457,1.65,1.65,1.65,1.65,1.65,1.65,1.65,1.65,1.65,1.65,1.65,1.65,1.65,1.65,1.65,1.65,1.65,1.7188,1.8125,1.8279,1.9382,2.0703,2.0763,2.1261,2.1919,2.2583,2.2823,2.3152,2.4425,2.4874,2.5417,2.7295,2.7769,2.8378,3.0677,3.1323,3.1816,3.3305,3.3609,3.3846,3.4641,3.4793,3.525,3.6677,3.6897,3.7134,3.7821,3.7905,3.7905,3.7905,3.7973,3.8007,3.8007,3.8667,3.9377,4.0045,4.0096,4.0096,4.0096,4.0096,4.0121,4.0154,4.0655,4.0903,4.0903,4.2041,4.2635,4.2711,4.275,4.3032,4.3515,4.3515,4.3515,4.3515,4.3515,4.3515,4.3515,4.3515,4.3515,4.3515,4.3515,4.3515,4.3515,4.3515,4.3515,4.3479,1.5447,1.4782,1.4469,1.6199,1.4502,1.2905,1.2905,1.2178,1.1611,1.1606,1.0841,1.0303,1.0303,1.0303,1.0303,1.0303,1.1301,1.2148,1.2705,1.2856,1.2905,1.2905,1.2905,1.2968,1.3079,1.3695,1.4283,1.4903,1.5499,1.603,1.65,1.65,1.65,1.65,1.65,1.65,1.65,1.65,1.65,1.65,1.65,1.65,1.65,1.65,1.65,1.65,1.65,1.7188,1.8313,1.9686,2.0383,2.0778,2.1321,2.1934,2.2598,2.3206,2.3789,2.447,2.5809,2.6929,2.8062,2.9506,3.0629,3.138,3.1371,3.2169,3.3355,3.4822,3.5109,3.5532,3.6907,3.7161,3.728,3.7618,3.7669,3.7719,3.7889,3.7905,3.7905,3.7905,3.8413,3.8751,3.8751,3.9436,3.9943,4.0096,4.0096,4.0096,4.0096,4.0096,4.0286,4.0709,4.085,4.0903,4.0903,4.1621,4.2223,4.2711,4.3142,4.3392,4.3515,4.3515,4.3515,4.3515,4.3515,4.3515,4.3515,4.3515,4.3515,4.3515,4.3515,4.3515,4.3515,4.3515,4.3515,4.3444,1.5723,1.5334,1.5146,1.63,1.5456,1.4433,1.3847,1.3,1.2387,1.223,1.1457,1.0753,1.0352,1.0303,1.0469,1.088,1.1641,1.2334,1.2866,1.2905,1.2905,1.2905,1.2905,1.2905,1.2905,1.3214,1.3671,1.426,1.5152,1.5764,1.6073,1.638,1.65,1.65,1.65,1.65,1.65,1.65,1.65,1.65,1.65,1.65,1.65,1.65,1.65,1.65,1.65,1.7392,1.8771,1.9928,2.0917,2.171,2.2074,2.2628,2.3176,2.3505,2.4066,2.4829,2.5854,2.7352,2.8826,2.9777,3.1521,3.2999,3.29,3.3703,3.4793,3.5926,3.6451,3.6935,3.7753,3.7905,3.8024,3.8379,3.843,3.8548,3.8903,3.8937,3.8937,3.8937,3.9276,3.9512,3.9512,3.9876,4.0096,4.0096,4.0096,4.0096,4.0096,4.0096,4.0229,4.0521,4.0521,4.0631,4.0903,4.1512,4.1958,4.2264,4.2542,4.2847,4.3124,4.2828,4.2977,4.3497,4.3232,4.3268,4.3515,4.3515,4.3515,4.3515,4.3515,4.3515,4.3515,4.3515,4.3339,4.3069,1.5535,1.6074,1.65,1.65,1.6392,1.5932,1.4858,1.3789,1.3065,1.2929,1.2269,1.1535,1.0821,1.0479,1.0704,1.1743,1.2129,1.2467,1.2876,1.2905,1.2905,1.2905,1.2905,1.2905,1.2905,1.2905,1.32,1.3792,1.4915,1.5499,1.561,1.6216,1.65,1.65,1.65,1.65,1.65,1.65,1.65,1.65,1.65,1.65,1.65,1.65,1.65,1.65,1.65,1.7618,1.9203,1.9847,2.1248,2.2733,2.2957,2.337,2.3819,2.4044,2.4522,2.5136,2.6025,2.7656,2.9311,3.0174,3.2288,3.4305,3.4941,3.547,3.6079,3.6998,3.7652,3.8125,3.8261,3.8278,3.8481,3.9089,3.9174,3.9394,4.0011,4.0096,4.0096,4.0096,4.0096,4.0096,4.0096,4.0096,4.0096,4.0096,4.0096,4.0096,4.0096,4.0096,4.0096,4.0096,4.0096,4.0436,4.1111,4.1612,4.1925,4.2048,4.1925,4.21,4.2519,4.2021,4.2366,4.3339,4.2902,4.2995,4.3515,4.3515,4.3515,4.3515,4.3515,4.3515,4.3497,4.3392,4.2958,4.2382,1.6337,1.6425,1.65,1.65,1.591,1.5288,1.4778,1.4271,1.3695,1.2992,1.2798,1.268,1.2563,1.1203,1.0958,1.2582,1.2778,1.2837,1.2905,1.2905,1.2905,1.2905,1.2905,1.2905,1.2905,1.2905,1.32,1.3792,1.4491,1.5085,1.561,1.6216,1.65,1.65,1.65,1.65,1.65,1.65,1.65,1.65,1.65,1.65,1.65,1.65,1.65,1.65,1.65,1.7618,1.9273,2.0388,2.1636,2.2897,2.4014,2.4395,2.4694,2.5854,2.6258,2.6717,2.8565,3.0107,3.1638,3.3533,3.5181,3.6567,3.7273,3.7009,3.7032,3.8413,3.8768,3.9039,3.969,3.9808,3.9842,3.9943,3.996,3.9994,4.0096,4.0096,4.0096,4.0096,4.0096,4.0096,4.0096,4.0096,4.0096,4.0096,4.0096,4.0096,4.0096,4.0096,4.0096,4.0096,4.0096,4.0709,4.2007,4.2048,4.2408,4.3082,4.2391,4.2013,4.1916,4.1832,4.2162,4.2789,4.2731,4.2995,4.3515,4.3515,4.3515,4.3515,4.3515,4.3515,4.3444,4.2976,4.2103,4.1155,1.65,1.65,1.65,1.65,1.6207,1.591,1.5722,1.4399,1.3286,1.2954,1.2905,1.2905,1.2905,1.222,1.2064,1.2837,1.2905,1.2905,1.2905,1.2905,1.2905,1.2905,1.2905,1.2905,1.2905,1.2905,1.32,1.3792,1.4399,1.5017,1.561,1.6216,1.65,1.65,1.65,1.65,1.65,1.65,1.65,1.65,1.65,1.65,1.65,1.65,1.65,1.6602,1.7269,1.8436,1.9838,2.104,2.2474,2.3864,2.4425,2.4859,2.5262,2.5869,2.6557,2.736,2.8242,3.0282,3.2269,3.2798,3.4881,3.6895,3.7206,3.7661,3.8193,3.8853,3.9326,3.9723,4.0045,4.0096,4.0096,4.0096,4.0096,4.0096,4.0096,4.0096,4.0096,4.0096,4.0096,4.0096,4.0096,4.0096,4.0096,4.0096,4.0096,4.0096,4.0096,4.0096,4.0299,4.0696,4.0316,4.1128,4.3231,4.2021,4.2195,4.374,4.2623,4.2269,4.2556,4.181,4.2386,4.3935,4.3146,4.3344,4.414,4.3681,4.3515,4.3515,4.3515,4.3322,4.3014,4.2788,4.2142,4.1402]},{"header":{"parameterUnit":"m.s-1","parameterCategory":1,"la1":30.6,"la2":28.766,"lo1":-90.7593,"lo2":-88.6598,"dx":0.0162,"dy":0.0183,"nx":116,"ny":114,"refTime":"2023-02-05T06:00:00:Z","depth":0,"parameterNumber":3,"parameterNumberName":"V-component_of_WINDS"},"data":[0.0,0.0,0.0,0.0,0.0,0.0,0.0,0.0,0.0,0.0,0.0,0.0,0.0,0.0,0.0,0.0,0.0,0.0,0.0,0.0,0.0,0.0,0.0,0.0,0.0,0.0,0.0,0.0,0.0,0.0,0.0,0.0,0.0,0.0,0.0,0.0,0.0,0.0,0.0,0.0,0.0,0.0,0.0,0.0,0.0,0.0,0.0,0.0,0.0,0.0,0.0,0.0,0.0,0.0,0.0,0.0,0.0,0.0,0.0,0.0,0.0,0.0,0.0,0.0,0.0,0.0,0.0,0.0,0.0,0.0,0.0,0.0,0.0,0.0,0.0,0.0,0.0,0.0,0.0,0.0,0.0,0.0,0.0,0.0,0.0,0.0,0.0,0.0,0.0,0.0,0.0,0.0,0.0,0.0,0.0,0.0,0.0,0.0,0.0,0.0,0.0,0.0,0.0,0.0,0.0,0.0,0.0,0.0,0.0,0.0,0.0,0.0,0.0,0.0,0.0,0.0,0.0,0.0,0.0,0.0,0.0,0.0,0.0,0.0,0.0,0.0,0.0,0.0,0.0,0.0,0.0,0.0,0.0,0.0,0.0,0.0,0.0,0.0,0.0,0.0,0.0,0.0,0.0,0.0,0.0,0.0,0.0,0.0,0.0,0.0,0.0,0.0,0.0,0.0,0.0,0.0,0.0,0.0,0.0,0.0,0.0,0.0,0.0,0.0,0.0,0.0,0.0,0.0,0.0,0.0,0.0,0.0,0.0,0.0,0.0,0.0,0.0,0.0,0.0,0.0,0.0,0.0,0.0,0.0,0.0,0.0,0.0,0.0,0.0,0.0,0.0,0.0,0.0,0.0,0.0,0.0,0.0,0.0,0.0,0.0,0.0,0.0,0.0,0.0,0.0,0.0,0.0,0.0,0.0,0.0,0.0,0.0,0.0,0.0,0.0,0.0,0.0,0.0,0.0,0.0,0.0,0.0,0.0,0.0,0.0,0.0,0.0,0.0,0.0,0.0,0.0,0.0,0.0,0.0,0.0,0.0,0.0,0.0,0.0,0.0,0.0,0.0,0.0,0.0,0.0,0.0,0.0,0.0,0.0,0.0,0.0,0.0,0.0,0.0,0.0,0.0,0.0,0.0,0.0,0.0,0.0,0.0,0.0,0.0,0.0,0.0,0.0,0.0,0.0,0.0,0.0,0.0,0.0,0.0,0.0,0.0,0.0,0.0,0.0,0.0,0.0,0.0,0.0,0.0,0.0,0.0,0.0,0.0,0.0,0.0,0.0,0.0,0.0,0.0,0.0,0.0,0.0,0.0,0.0,0.0,0.0,0.0,0.0,0.0,0.0,0.0,0.0,0.0,0.0,0.0,0.0,0.0,0.0,0.0,0.0,0.0,0.0,0.0,0.0,0.0,0.0,0.0,0.0,0.0,0.0,0.0,0.0,0.0,0.0,0.0,0.0,0.0,0.0,0.0,0.0,0.0,0.0,0.0,0.0,0.0,0.0,0.0,0.0,0.0,0.0,0.0,0.0,0.0,0.0,0.0,0.0,0.0,0.0,0.0,0.0,0.0,0.0,0.0,0.0,0.0,0.0,0.0,0.0,0.0,0.0,0.0,0.0,0.0,0.0,0.0,0.0,0.0,0.0,0.0,0.0,0.0,0.0,0.0,0.0,0.0,0.0,0.0,0.0,0.0,0.0,0.0,0.0,0.0,0.0,0.0,0.0,0.0,0.0,0.0,0.0,0.0,0.0,0.0,0.0,0.0,0.0,0.0,0.0,0.0,0.0,0.0,0.0,0.0,0.0,0.0,0.0,0.0,0.0,0.0,0.0,0.0,0.0,0.0,0.0,0.0,0.0,0.0,0.0,0.0,0.0,0.0,0.0,0.0,0.0,0.0,0.0,0.0,0.0,0.0,0.0,0.0,0.0,0.0,0.0,0.0,0.0,0.0,0.0,0.0,0.0,0.0,0.0,0.0,0.0,0.0,0.0,0.0,0.0,0.0,0.0,0.0,0.0,0.0,0.0,0.0,0.0,0.0,0.0,0.0,0.0,0.0,0.0,0.0,0.0,0.0,0.0,0.0,0.0,0.0,0.0,0.0,0.0,0.0,0.0,0.0,0.0,0.0,0.0,0.0,0.0,0.0,0.0,0.0,0.0,0.0,0.0,0.0,0.0,0.0,0.0,0.0,0.0,0.0,0.0,0.0,0.0,0.0,0.0,0.0,0.0,0.0,0.0,0.0,0.0,0.0,0.0,0.0,0.0,0.0,0.0,0.0,0.0,0.0,0.0,0.0,0.0,0.0,0.0,0.0,0.0,0.0,0.0,0.0,0.0,0.0,0.0,0.0,0.0,0.0,0.0,0.0,0.0,0.0,0.0,0.0,0.0,0.0,0.0,0.0,0.0,0.0,0.0,0.0,0.0,0.0,0.0,0.0,0.0,0.0,0.0,0.0,0.0,0.0,0.0,0.0,0.0,0.0,0.0,0.0,0.0,0.0,0.0,0.0,0.0,0.0,0.0,0.0,0.0,0.0,0.0,0.0,0.0,0.0,0.0,0.0,0.0,0.0,0.0,0.0,0.0,0.0,0.0,0.0,0.0,0.0,0.0,0.0,0.0,0.0,0.0,0.0,0.0,0.0,0.0,0.0,0.0,0.0,0.0,0.0,0.0,0.0,0.0,0.0,0.0,0.0,0.0,0.0,0.0,0.0,0.0,0.0,0.0,0.0,0.0,0.0,0.0,0.0,0.0,0.0,0.0,0.0,0.0,0.0,0.0,0.0,0.0,0.0,0.0,0.0,0.0,0.0,0.0,0.0,0.0,0.0,0.0,0.0,0.0,0.0,0.0,0.0,0.0,0.0,0.0,0.0,0.0,0.0,0.0,0.0,0.0,0.0,0.0,0.0,0.0,0.0,0.0,0.0,0.0,0.0,0.0,0.0,0.0,0.0,0.0,0.0,0.0,0.0,0.0,0.0,0.0,0.0,0.0,0.0,0.0,0.0,0.0,0.0,0.0,0.0,0.0,0.0,0.0,0.0,0.0,0.0,0.0,0.0,0.0,0.0,0.0,0.0,0.0,0.0,0.0,0.0,0.0,0.0,0.0,0.0,0.0,0.0,0.0,0.0,0.0,0.0,0.0,0.0,0.0,0.0,0.0,0.0,0.0,0.0,0.0,0.0,0.0,0.0,0.0,0.0,0.0,0.0,0.0,0.0,0.0,0.0,0.0,0.0,0.0,0.0,0.0,0.0,0.0,0.0,0.0,0.0,0.0,0.0,0.0,0.0,0.0,0.0,0.0,0.0,0.0,0.0,0.0,0.0,0.0,0.0,0.0,0.0,0.0,0.0,0.0,0.0,0.0,0.0,0.0,0.0,0.0,0.0,0.0,0.0,0.0,0.0,0.0,0.0,0.0,0.0,0.0,0.0,0.0,0.0,0.0,0.0,0.0,0.0,0.0,0.0,0.0,0.0,0.0,0.0,0.0,0.0,0.0,0.0,0.0,0.0,0.0,0.0,0.0,0.0,0.0,0.0,0.0,0.0,0.0,0.0,0.0,0.0,0.0,0.0,0.0,0.0,0.0,0.0,0.0,0.0,0.0,0.0,0.0,0.0,0.0,0.0,0.0,0.0,0.0,0.0,0.0,0.0,0.0,0.0,0.0,0.0,0.0,0.0,0.0,0.0,0.0,0.0,0.0,0.0,0.0,0.0,0.0,0.0,0.0,0.0,0.0,0.0,0.0,0.0,0.0,0.0,0.0,0.0,0.0,0.0,0.0,0.0,0.0,0.0,0.0,0.0,0.0,0.0,0.0,0.0,0.0,0.0,0.0,0.0,0.0,0.0,0.0,0.0,0.0,0.0,0.0,0.0,0.0,0.0,0.0,0.0,0.0,0.0,0.0,0.0,0.0,0.0,0.0,0.0,0.0,0.0,0.0,0.0,0.0,0.0,0.0,0.0,0.0,0.0,0.0,0.0,0.0,0.0,0.0,0.0,0.0,0.0,0.0,0.0,0.0,0.0,0.0,0.0,0.0,0.0,0.0,0.0,0.0,0.0,0.0,0.0,0.0,0.0,0.0,0.0,0.0,0.0,0.0,0.0,0.0,0.0,0.0,0.0,0.0,0.0,0.0,0.0,0.0,0.0,0.0,0.0,0.0,0.0,0.0,0.0,0.0,0.0,0.0,0.0,0.0,0.0,0.0,0.0,0.0,0.0,0.0,0.0,0.0,0.0,0.0,0.0,0.0,0.0,0.0,0.0,0.0,0.0,0.0,0.0,0.0,0.0,0.0,0.0,0.0,0.0,0.0,0.0,0.0,0.0,0.0,0.0,0.0,0.0,0.0,0.0,0.0,0.0,0.0,0.0,0.0,0.0,0.0,0.0,0.0,0.0,0.0,0.0,0.0,0.0,0.0,0.0,0.0,0.0,0.0,0.0,0.0,0.0,0.0,0.0,0.0,0.0,0.0,0.0,0.0,0.0,0.0,0.0,0.0,0.0,0.0,0.0,0.0,0.0,0.0,0.0,0.0,0.0,0.0,0.0,0.0,0.0,0.0,0.0,0.0,0.0,0.0,0.0,0.0,0.0,0.0,0.0,0.0,0.0,0.0,0.0,0.0,0.0,0.0,0.0,0.0,0.0,0.0,0.0,0.0,0.0,0.0,0.0,0.0,0.0,0.0,0.0,0.0,0.0,0.0,0.0,0.0,0.0,0.0,0.0,0.0,0.0,0.0,0.0,0.0,0.0,0.0,0.0,0.0,0.0,0.0,0.0,0.0,0.0,0.0,0.0,0.0,0.0,0.0,0.0,0.0,0.0,0.0,0.0,0.0,0.0,0.0,0.0,0.0,0.0,0.0,0.0,0.0,0.0,0.0,0.0,0.0,0.0,0.0,0.0,0.0,0.0,0.0,0.0,0.0,0.0,0.0,0.0,0.0,0.0,0.0,0.0,0.0,0.0,0.0,0.0,0.0,0.0,0.0,0.0,0.0,0.0,0.0,0.0,0.0,0.0,0.0,0.0,0.0,0.0,0.0,0.0,0.0,0.0,0.0,0.0,0.0,0.0,0.0,0.0,0.0,0.0,0.0,0.0,0.0,0.0,0.0,0.0,0.0,0.0,0.0,0.0,0.0,0.0,0.0,0.0,0.0,0.0,0.0,0.0,0.0,0.0,0.0,0.0,0.0,0.0,0.0,0.0,0.0,0.0,0.0,0.0,0.0,0.0,0.0,0.0,0.0,0.0,0.0,0.0,0.0,0.0,0.0,0.0,0.0,0.0,0.0,0.0,0.0,0.0,0.0,0.0,0.0,0.0,0.0,0.0,0.0,0.0,0.0,0.0,0.0,0.0,0.0,0.0,0.0,0.0,0.0,0.0,0.0,0.0,0.0,0.0,0.0,0.0,0.0,0.0,0.0,0.0,0.0,0.0,0.0,0.0,0.0,0.0,0.0,0.0,0.0,0.0,0.0,0.0,0.0,0.0,0.0,0.0,0.0,0.0,0.0,0.0,0.0,0.0,0.0,0.0,0.0,0.0,0.0,0.0,0.0,0.0,0.0,0.0,0.0,0.0,0.0,0.0,0.0,0.0,0.0,0.0,0.0,0.0,0.0,0.0,0.0,0.0,0.0,0.0,0.0,0.0,0.0,0.0,0.0,0.0,0.0,0.0,0.0,0.0,0.0,0.0,0.0,0.0,0.0,0.0,0.0,0.0,0.0,0.0,0.0,0.0,0.0,0.0,0.0,0.0,0.0,0.0,0.0,0.0,0.0,0.0,0.0,0.0,0.0,0.0,0.0,0.0,0.0,0.0,0.0,0.0,0.0,0.0,0.0,0.0,0.0,0.0,0.0,0.0,0.0,0.0,0.0,0.0,0.0,0.0,0.0,0.0,0.0,0.0,0.0,0.0,0.0,0.0,0.0,0.0,0.0,0.0,0.0,0.0,0.0,0.0,0.0,0.0,0.0,0.0,0.0,0.0,0.0,0.0,0.0,0.0,0.0,0.0,0.0,0.0,0.0,0.0,0.0,0.0,0.0,0.0,0.0,0.0,0.0,0.0,0.0,0.0,0.0,0.0,0.0,0.0,0.0,0.0,0.0,0.0,0.4439,0.0,0.0,0.0,0.0,0.0,0.0,0.0,0.0,0.0,0.0,0.0,0.0,0.0,0.0,0.0,0.0,0.0,0.0,0.0,0.0,0.0,0.0,0.0,0.0,0.0,0.0,0.0,0.0,0.0,0.0,0.0,0.0,0.0,0.0,0.0,0.0,0.0,0.0,0.0,0.0,0.0,0.0,0.0,0.0,0.0,0.0,0.0,0.0,0.0,0.0,0.0,0.0,0.0,0.0,0.0,0.0,0.0,0.0,0.0,0.0,0.0,0.0,0.0,0.0,0.0,0.0,0.0,0.0,0.0,0.0,0.0,0.0,0.0,0.0,0.0,0.0,0.0,0.0,0.0,0.0,0.0,0.0,0.0,0.0,0.0,0.0,0.0,0.0,0.0,0.0,0.0,0.0,0.0,0.0,0.0,0.0,0.0,0.0,0.0,0.0,0.0,0.0,0.0,0.0,0.0,0.0,0.0,0.0,0.0,0.0,0.0,0.0,0.0,0.0,0.0,0.0,0.5071,0.0,0.0,0.0,0.0,0.0,0.0,0.0,0.0,0.0,0.0,0.0,0.0,0.0,0.0,0.0,0.0,0.0,0.0,0.0,0.0,0.0,0.0,0.0,0.0,0.0,0.0,0.0,0.0,0.0,0.0,0.0,0.0,0.0,0.0,0.0,0.0,0.0,0.0,0.0,0.0,0.0,0.0,0.0,0.0,0.0,0.0,0.0,0.0,0.0,0.0,0.0,0.0,0.0,0.0,0.0,0.0,0.0,0.0,0.0,0.0,0.0,0.0,0.0,0.0,0.0,0.0,0.0,0.0,0.0,0.0,0.0,0.0,0.0,0.0,0.0,0.0,0.0,0.0,0.0,0.0,0.0,0.0,0.0,0.0,0.0,0.0,0.0,0.0,0.0,0.0,0.0,0.0,0.0,0.0,0.0,0.0,0.0,0.0,0.0,0.0,0.0,0.0,0.0,0.0,0.0,0.0,0.0,0.0,0.5637,0.5785,0.5786,0.5786,0.5786,0.5782,0.5782,0.5625,0.5387,0.0,0.0,0.0,0.0,0.0,0.0,0.0,0.0,0.0,0.0,0.0,0.0,0.0,0.0,0.0,0.0,0.0,0.0,0.0,0.0,0.0,0.0,0.0,0.0,0.0,0.0,0.0,0.0,0.0,0.0,0.0,0.0,0.0,0.0,0.0,0.0,0.0,0.0,0.0,0.93,0.9791,1.1229,1.3337,1.1604,0.0,0.0,0.0,0.0,0.0,0.0,0.0,0.0,0.0,0.0,0.0,0.0,0.0,0.0,0.0,0.0,0.0,0.0,0.0,0.0,0.0,0.0,0.0,0.0,0.0,0.0,0.0,0.0,0.0,0.0,0.0,0.0,0.0,0.0,0.0,0.0,0.0,0.0,0.0,0.0,0.0,0.0,0.0,0.736,0.7053,0.0,0.0,0.0,0.0,0.0,0.0,0.0,0.0,0.0,0.0,0.0,0.0,0.0,0.5011,0.4883,0.529,0.5497,0.5487,0.5933,0.6139,0.6138,0.6138,0.6138,0.6131,0.6132,0.0,0.5641,0.5681,0.0,0.0,0.0,0.0,0.0,0.0,0.0,0.0,0.0,0.0,0.0,0.0,0.0,0.0,0.0,0.0,0.0,0.0,0.0,0.0,0.0,0.0,0.0,0.0,0.0,0.0,0.0,0.0,0.0,0.0,0.0,0.0,0.0,0.0,0.0,0.0,0.6433,0.8042,0.9035,0.9644,1.0665,1.1953,1.1278,1.1571,1.2582,1.2223,0.0,0.0,0.0,0.0,0.0,0.0,0.0,0.0,0.0,0.0,0.0,0.0,0.0,0.0,0.0,0.0,0.0,0.0,0.0,0.0,0.0,0.0,0.0,0.0,0.0,0.0,0.0,0.0,0.0,0.0,0.0,0.0,0.0,0.0,0.0,0.0,0.0,0.0,0.0,0.7374,0.7393,0.7054,0.7609,0.7671,0.0,0.0,0.0,0.0,0.0,0.0,0.0,0.0,0.0,0.5075,0.4969,0.501,0.5201,0.5547,0.5832,0.6124,0.6481,0.682,0.7154,0.7154,0.7154,0.7148,0.6988,0.6747,0.6394,0.5901,0.5812,0.599,0.0,0.0,0.0,0.0,0.0,0.682,0.0,0.0,0.0,0.0,0.0,0.0,0.0,0.0,0.0,0.0,0.0,0.0,0.0,0.0,0.0,0.9112,0.0,0.0,0.0,0.0,0.0,0.0,0.0,0.0,0.0,0.0,0.0,0.0,0.7687,0.8445,0.8856,0.9719,1.0534,1.1273,1.1559,1.2017,1.2543,1.194,1.2006,0.0,0.0,0.0,0.0,0.0,0.0,0.0,0.0,0.0,0.0,0.0,0.0,0.0,0.0,0.0,0.0,0.0,0.0,0.0,0.0,0.0,0.0,0.0,0.0,0.0,0.0,0.0,0.0,0.0,0.0,0.0,0.0,0.0,0.0,0.0,0.0,0.0,0.0,0.6692,0.6839,0.678,0.7212,0.7351,0.0,0.0,0.0,0.0,0.0,0.0,0.5046,0.5016,0.5167,0.5521,0.5253,0.5354,0.5856,0.6052,0.642,0.6934,0.7126,0.7466,0.7905,0.7905,0.7905,0.7892,0.7682,0.7455,0.7166,0.628,0.6065,0.6283,0.6025,0.6299,0.6827,0.6727,0.6887,0.7154,0.0,0.0,0.0,0.0,0.0,0.0,0.0,0.0,0.0,0.0,0.0,0.0,0.0,0.0,0.9665,0.9576,0.8474,0.7942,0.0,0.0,0.0,0.0,0.0,0.0,0.0,0.0,0.0,0.855,0.8069,0.8477,0.9749,1.0625,1.1461,1.2255,1.2965,1.3312,1.3261,1.1765,1.1884,1.3014,0.0,0.0,0.0,0.0,0.0,0.0,0.0,0.0,0.0,0.0,0.0,0.0,0.0,0.0,0.0,0.0,0.0,0.0,0.0,0.0,0.0,0.0,0.0,0.0,0.0,0.0,0.0,0.0,0.0,0.0,0.0,0.0,0.0,0.0,0.0,0.0,0.0,0.0,0.0,0.5764,0.5458,0.0,0.0,0.0,0.0,0.5844,0.6037,0.6003,0.5668,0.5952,0.6131,0.6149,0.6379,0.6794,0.7392,0.739,0.7564,0.7839,0.7852,0.7879,0.7905,0.7905,0.7905,0.7905,0.7892,0.7872,0.7792,0.6914,0.6573,0.6586,0.6553,0.6921,0.741,0.7101,0.7188,0.743,0.0,0.0,0.0,0.0,0.0,0.0,0.0,0.0,0.0,0.0,0.0,0.0,0.0,1.0786,1.0669,1.0506,0.9993,0.8925,0.7183,0.0,0.0,0.0,0.0,0.0,0.0,0.0,0.783,0.8113,0.8374,0.8993,0.9941,1.0251,1.1072,1.2314,1.2567,1.321,1.4005,1.2517,1.1844,1.1783,1.1457,1.1425,0.0,0.0,0.0,0.0,0.0,0.0,0.0,0.0,0.0,0.0,0.0,0.0,0.0,0.0,0.0,0.0,0.0,0.0,0.0,0.0,0.0,0.0,0.0,0.0,0.0,0.0,0.0,0.0,0.0,0.0,0.0,0.0,0.0,0.0,0.0,0.0,0.0,0.5764,0.5691,0.0,0.591,0.6075,0.5985,0.5552,0.594,0.6043,0.5708,0.6191,0.6539,0.6707,0.7022,0.737,0.7762,0.7769,0.7916,0.8216,0.8216,0.831,0.8465,0.8465,0.8465,0.8465,0.8465,0.839,0.819,0.7893,0.7531,0.7156,0.6941,0.7114,0.7477,0.737,0.7645,0.806,0.0,0.0,0.0,0.0,0.0,0.0,0.0,0.0,0.0,0.0,0.0,0.9768,1.0471,1.0766,1.0842,1.0715,1.0613,0.9629,0.7423,0.0,0.0,0.0,0.0,0.0,0.0,0.8039,0.8149,0.8102,0.8897,0.9364,0.9578,1.0386,1.118,1.1925,1.244,1.321,1.4056,1.31,1.2324,1.1757,1.1433,1.1556,1.1814,0.0,0.0,0.0,0.0,0.0,0.0,0.0,0.0,0.0,0.0,0.0,0.0,0.0,0.0,0.0,0.0,0.0,0.0,0.0,0.0,0.0,0.0,0.0,0.0,0.0,0.0,0.0,0.0,0.0,0.0,0.0,0.0,0.0,0.0,0.0,0.498,0.5808,0.5855,0.5856,0.5899,0.6174,0.6164,0.5645,0.6062,0.6325,0.6306,0.6693,0.7089,0.7462,0.7692,0.794,0.8199,0.8199,0.8323,0.8543,0.8543,0.8617,0.8804,0.8804,0.8804,0.8804,0.8804,0.8821,0.886,0.8619,0.8425,0.8238,0.7803,0.7987,0.8441,0.8219,0.8462,0.8841,0.0,0.0,0.0,0.0,0.0,0.0,0.0,0.0,0.0,0.0,0.0,0.8473,0.8885,0.9655,1.0135,1.0106,1.0104,0.993,0.9552,0.7539,0.0,0.0,0.0,0.0,0.7848,0.8496,0.8801,0.8705,0.9545,0.9528,0.8761,1.1117,1.1823,1.1171,1.2702,1.3396,1.3447,1.3464,1.3353,1.313,1.2545,1.2481,1.266,0.0,0.0,0.0,0.0,0.0,0.0,0.0,0.0,0.0,0.0,0.0,0.0,0.0,0.0,0.0,0.0,0.0,0.0,0.0,0.0,0.0,0.0,0.0,0.0,0.0,0.0,0.0,0.0,0.0,0.0,0.0,0.0,0.0,0.5654,0.4962,0.4795,0.5792,0.5791,0.5773,0.5913,0.6276,0.6427,0.6233,0.6486,0.6901,0.7471,0.7533,0.7785,0.8382,0.8409,0.8549,0.8804,0.8804,0.8804,0.8804,0.8818,0.8818,0.8804,0.8818,0.8818,0.8804,0.8804,0.9159,0.971,0.9061,0.9218,0.9787,0.9167,0.9526,1.0301,0.9686,0.9595,0.9736,0.0,0.0,0.0,0.0,0.0,0.0,0.0,0.0,0.0,0.0,0.8221,0.9097,0.9631,1.0506,1.0771,1.0084,1.0073,0.9476,0.8031,0.0,0.0,0.0,0.0,0.0,0.857,0.8126,0.8204,0.8852,0.8983,0.8983,0.8869,1.0079,1.0802,1.113,1.2145,1.3193,1.4233,1.4766,1.4967,1.4761,1.3008,1.2866,1.354,0.0,0.0,0.0,0.0,0.0,0.0,0.0,0.0,0.0,0.0,0.0,0.0,0.0,0.0,0.0,0.0,0.0,0.0,0.0,0.0,0.0,0.0,0.0,0.0,0.0,0.0,0.0,0.0,0.0,0.0,0.0,0.0,0.5625,0.5688,0.5324,0.5371,0.623,0.6174,0.6235,0.6654,0.6807,0.6847,0.678,0.7246,0.7612,0.7772,0.8009,0.8228,0.8395,0.8577,0.8731,0.8804,0.8804,0.8804,0.8811,0.8991,0.8984,0.8818,0.8998,0.8978,0.8804,0.8804,0.891,0.9061,0.8883,0.9674,1.0932,0.9931,0.9723,1.0002,1.0297,1.0462,1.044,0.0,0.0,0.0,0.0,0.0,0.0,0.0,0.0,0.0,0.0,0.7646,0.8596,0.8348,0.9662,1.0239,0.9411,0.9798,0.9245,0.7226,0.0,0.0,0.0,0.0,0.7882,0.8434,0.8155,0.827,0.8818,0.9351,0.9455,0.9145,1.0706,1.1441,1.1477,1.2367,1.3413,1.4537,1.496,1.5494,1.5927,1.431,1.4463,1.5437,1.3525,1.3817,1.4991,1.3141,1.3241,1.3959,1.2224,0.0,0.0,0.0,0.0,0.0,0.0,0.0,0.0,0.0,0.0,0.0,0.0,0.0,0.0,0.0,0.0,0.0,0.0,0.0,0.0,0.0,0.0,0.0,0.0,0.6211,0.6258,0.6789,0.6257,0.5982,0.6478,0.683,0.7018,0.6996,0.732,0.7445,0.7229,0.7632,0.7959,0.811,0.8283,0.8456,0.855,0.8717,0.8804,0.8804,0.9087,0.9211,0.9211,0.9526,0.9575,0.9421,0.9424,0.9332,0.0,0.9542,0.9728,0.9845,0.9917,1.0711,0.0,0.0,0.0,0.0,0.0,1.104,1.0711,0.0,0.0,0.0,0.0,0.0,0.0,0.0,0.0,0.0,0.0,0.0,0.7439,0.6133,0.7918,0.889,0.8102,0.9308,0.9271,0.0,0.0,0.0,0.7322,0.8224,0.8502,0.7938,0.8437,0.8699,0.8699,1.009,1.032,0.9503,1.2072,1.2799,1.1984,1.3051,1.3887,1.452,1.4673,1.5494,1.6665,1.618,1.6762,1.7693,1.5595,1.6095,1.762,1.5601,1.4926,1.4812,1.3478,0.0,0.0,0.0,0.0,0.0,0.0,0.0,0.0,0.0,0.0,0.0,0.0,0.0,0.0,0.0,0.0,0.0,0.0,0.0,0.0,0.0,0.0,0.0,0.0,0.6687,0.7127,0.8363,0.7579,0.6916,0.7065,0.7854,0.8139,0.749,0.8026,0.8215,0.7743,0.7967,0.8241,0.8529,0.0,0.0,0.0,0.0,0.9002,0.8957,0.9646,0.9996,1.0003,1.0382,1.0541,1.0483,1.003,0.9862,0.9936,1.0571,1.1032,1.1339,1.1487,1.1964,1.2482,1.1464,1.2082,1.3449,1.2422,1.1673,0.0,0.0,0.0,0.0,0.0,0.0,0.0,0.0,0.0,0.0,0.469,0.5916,0.6656,0.6057,0.7258,0.7477,0.588,0.8515,0.9984,0.0,0.0,0.7946,0.882,0.8307,0.8226,0.8671,0.8693,0.8699,0.8699,0.958,0.9916,0.976,1.1649,1.2416,1.2285,1.3675,1.4368,1.4588,1.5774,1.6434,1.68,1.7839,1.842,1.8486,1.6658,1.6767,1.766,1.5913,1.5747,1.6144,1.4857,1.5172,1.595,1.4782,0.0,0.0,0.0,0.0,0.0,0.0,0.0,0.0,0.0,0.0,0.0,0.0,0.0,0.0,0.0,0.0,0.0,0.0,0.0,0.0,0.6854,0.7162,0.7681,0.8685,0.8982,0.9305,0.9913,0.9734,0.9694,1.0035,0.9524,0.9141,0.9045,0.9273,0.9453,0.9519,1.004,0.0,1.0021,1.0254,1.0272,1.0002,1.079,1.118,1.1188,0.0,0.0,1.1737,1.0989,1.0839,1.1123,1.0752,1.0895,1.1489,1.1833,1.237,1.2969,1.2744,1.32,1.3951,1.3748,1.3578,1.3296,0.0,0.0,0.0,0.0,0.0,0.0,0.0,0.0,0.0,0.0,0.5983,0.6286,0.4947,0.6412,0.7086,0.6085,0.7932,0.0,0.0,0.8288,0.7994,0.8665,0.8482,0.8519,0.8897,0.8765,0.8741,0.88,0.9842,1.0333,1.033,1.2043,1.2781,1.2698,1.3943,1.4706,1.5122,1.6231,1.6908,1.7304,1.8048,1.8792,1.9381,1.8668,1.8962,1.9569,1.8195,1.774,1.7634,1.6502,1.628,1.6363,1.5556,1.4841,1.415,0.0,0.0,0.0,0.0,0.0,0.0,0.0,0.0,0.0,0.0,0.0,0.0,0.0,0.0,0.6609,0.0,0.0,0.6787,0.7359,0.8015,0.8789,0.973,1.0092,1.033,1.0574,1.0451,1.0407,1.0577,0.9875,0.9549,0.9882,0.9829,0.9943,1.0287,1.0618,1.0832,1.0904,1.1054,1.117,1.1209,1.1937,1.2288,1.2297,1.2833,1.2806,1.2237,1.2033,1.1834,1.1689,1.2155,1.2422,1.2602,1.3193,1.3645,1.3978,1.4176,1.4199,1.4104,1.4104,1.4104,1.3972,0.0,0.0,0.0,0.0,0.0,0.0,0.0,0.0,0.0,0.0,0.0,0.6025,0.4078,0.5411,0.6654,0.0,0.0,0.0,0.0,0.8402,0.8167,0.8342,0.8736,0.8925,0.8897,0.8794,0.8844,0.9065,1.0326,1.0972,1.1071,1.2664,1.3353,1.3334,1.4286,1.5122,1.5859,1.6604,1.7253,1.7828,1.8184,1.8992,2.0056,2.0589,2.1142,2.1469,2.0449,1.9399,1.8389,1.7847,1.6943,1.6066,1.6227,1.5676,1.4718,1.3388,1.3094,0.0,0.0,0.0,0.0,0.0,0.0,0.0,0.0,0.0,0.815,0.709,0.6967,0.6955,0.6643,0.6874,0.7266,0.7819,0.874,0.9738,1.0663,1.0914,1.0956,1.0886,1.0959,1.0965,1.0898,1.0156,0.996,1.0626,1.0264,1.0295,1.0965,1.1192,1.1456,1.1751,1.1919,1.2143,1.2399,1.3094,1.3424,1.3433,1.3782,1.36,1.2998,1.3101,1.2863,1.2461,1.3761,1.422,1.4142,1.4677,1.4961,1.5068,1.541,1.5068,1.4358,1.4358,1.4358,1.4307,0.0,0.0,0.0,0.0,0.0,0.0,0.0,0.0,0.0,0.0,0.0,0.0,0.0,0.0,0.0,0.0,0.0,0.0,0.9531,0.8201,0.7898,0.9204,0.9133,0.9027,0.8897,0.888,0.9142,0.97,1.0625,1.1347,1.1892,1.2916,1.3726,1.4366,1.5119,1.5893,1.6631,1.7371,1.7715,1.7941,1.9556,2.0127,2.0132,2.1346,2.1738,2.15,2.073,1.8954,1.7122,1.8257,1.7075,1.5467,1.7346,1.6893,1.5415,1.4069,0.0,1.1614,0.9529,0.8528,0.8134,0.8391,0.8456,0.8422,0.0,0.0,0.8248,0.7049,0.7184,0.7329,0.6706,0.7062,0.7551,0.7852,0.874,0.9738,1.0663,1.1316,1.1913,1.256,1.2076,1.1935,1.2575,1.1423,1.0931,1.1603,1.104,1.099,1.1665,1.2641,1.307,1.276,1.3428,1.3688,1.3441,1.4223,1.4596,1.4596,1.5022,1.5158,1.5032,1.4123,1.3985,1.4468,1.4647,1.5138,1.5798,1.5469,1.5566,1.5958,1.5997,1.5693,1.5235,1.5235,1.5235,1.5216,0.0,0.0,0.0,0.0,0.0,0.0,0.0,0.0,0.0,0.0,0.0,0.0,0.0,0.0,0.0,0.0,0.0,0.0,0.8856,0.7868,0.7668,0.871,0.906,0.9184,0.9129,0.9598,0.9954,1.0209,1.1473,1.2407,1.3009,1.3836,1.4554,1.5199,1.6561,1.7346,1.7718,1.9073,1.9653,1.9734,2.049,2.0681,2.0529,2.0635,2.0285,1.9738,1.9784,1.8469,0.0,0.0,1.6311,1.5489,1.605,1.5762,1.4955,1.36,1.2816,0.0,0.9829,0.9041,0.8701,0.8283,0.872,0.9102,0.8411,0.8522,0.8553,0.7725,0.7729,0.7867,0.7823,0.7765,0.8056,0.0,0.9666,1.0311,1.1265,1.1421,1.1706,1.2396,1.1892,1.1822,1.2803,1.199,1.1674,1.2403,1.2032,1.2082,1.2752,1.3442,1.3903,1.3987,1.4347,1.455,1.4638,1.4974,1.5146,1.5146,1.5322,1.5138,1.4688,1.4724,1.4879,1.5146,1.5146,1.5527,1.6075,1.5899,1.6055,1.6455,1.6455,1.6338,1.6151,1.6151,1.6016,1.582,0.0,0.0,0.0,0.0,0.0,0.0,0.0,0.0,0.0,0.0,0.0,0.0,0.0,0.0,0.0,0.0,0.0,0.0,0.0,0.7913,0.7863,0.8337,0.9022,0.9466,0.9631,1.0209,1.0712,1.1132,1.2245,1.3246,1.4098,1.4625,1.5332,1.6171,1.7482,1.8313,1.8788,1.9879,2.0474,2.0662,2.0662,2.0466,2.0079,1.9403,1.8555,1.778,1.8444,1.7449,0.0,0.0,1.528,1.4829,1.4903,1.4674,1.421,1.3304,1.2578,1.1677,1.0034,0.9611,0.937,0.8406,0.9048,0.9605,0.8493,0.8625,0.8822,0.8298,0.8298,0.8472,0.8673,0.845,0.8633,0.9866,1.0302,1.082,1.1677,1.171,1.1855,1.2342,1.195,1.2001,1.2827,1.2236,1.2104,1.2847,1.2647,1.2793,1.3455,1.3987,1.4463,1.4803,1.4902,1.5107,1.541,1.5167,1.5167,1.541,1.5167,1.4874,1.454,1.5138,1.5478,1.5586,1.5586,1.5908,1.6447,1.633,1.6504,1.6882,1.6882,1.6804,1.6726,1.697,1.6728,1.6339,0.0,0.0,0.0,0.0,0.0,0.0,0.0,0.0,0.0,0.0,0.0,0.0,0.0,0.0,0.0,0.0,0.0,0.0,0.0,0.8593,0.868,0.8501,0.9205,0.9873,1.045,1.0498,1.1239,1.2735,1.2771,1.3576,1.5056,1.5092,1.5936,1.7436,1.7498,1.8349,1.9706,1.8985,1.9119,1.984,1.984,1.921,1.8252,1.7887,1.7019,1.6066,1.6816,0.0,0.0,0.0,1.4047,1.2909,1.472,1.4393,0.0,1.3614,1.2114,0.0,0.9732,0.9601,0.9446,0.8754,0.9242,0.9589,0.8385,0.8663,0.9042,0.8493,0.8803,0.907,0.8761,0.8888,0.9212,0.9653,1.0323,1.1017,1.1693,1.2412,1.2861,1.2886,1.2861,1.2861,0.0,1.2236,1.2104,1.2847,1.2647,1.2793,1.3455,1.4307,1.4803,1.4813,1.5176,1.54,1.541,1.4628,1.4628,1.5381,1.4599,1.4628,1.5352,1.5381,1.5644,1.6075,1.6075,1.6574,1.7347,1.6853,1.6973,1.7363,1.7363,1.7109,1.6794,1.7633,1.7432,1.6746,0.0,0.0,0.0,0.0,0.0,0.0,0.0,0.0,0.0,0.0,0.0,0.0,0.0,0.0,0.0,0.0,0.0,0.0,0.0,0.8027,0.7845,0.7778,0.8478,0.8949,0.9104,1.0242,1.1059,1.1546,1.2601,1.3582,1.4456,1.4977,1.6025,1.7462,1.8181,1.9085,2.0091,2.0545,2.0544,2.0226,1.9682,1.8608,1.7201,1.6039,1.4905,1.3973,0.0,0.0,0.0,0.0,0.0,0.0,1.2037,0.0,0.0,1.1598,0.0,0.0,0.9429,0.9875,1.0257,0.9414,0.9981,1.0605,1.0011,0.9874,0.9722,0.9234,0.9283,0.9336,0.9146,0.9108,0.9501,1.0765,1.0883,1.1191,1.2372,1.2484,1.2451,1.2451,1.2451,0.0,0.0,0.0,0.0,1.3246,1.3474,1.3803,1.4336,1.4893,1.5205,1.5205,1.5342,1.541,1.541,1.5138,1.5282,1.585,1.5867,1.5704,1.542,1.5713,1.5762,1.5644,1.5968,1.6437,1.6963,1.7109,1.7412,1.7803,1.7803,1.7705,1.7617,1.79,1.7798,1.7607,0.0,0.0,0.0,0.0,0.0,0.0,0.0,0.0,0.0,0.0,0.0,0.0,0.0,0.0,0.0,0.0,0.0,0.0,0.0,0.0,0.8116,0.7735,0.8521,0.9071,0.9316,1.0446,1.1139,1.1368,1.2405,1.3225,1.3835,1.4336,1.5236,1.6432,1.7117,1.8052,1.9118,1.921,1.9081,1.8779,1.7775,1.6417,1.4888,1.3725,1.3043,0.0,0.0,0.0,0.0,0.0,0.0,0.0,0.0,0.0,0.0,0.0,1.0266,1.0273,0.9905,1.0582,1.1154,1.0309,1.0771,1.1279,1.0698,1.0254,0.9824,0.9376,0.9363,0.9414,0.9307,0.9278,0.973,1.1124,1.0937,1.1107,1.2453,1.2389,1.2262,1.2418,1.2461,1.2496,0.0,0.0,0.0,1.3461,1.4153,1.4717,1.5,1.5566,1.5849,1.5849,1.5732,1.5644,1.5644,1.5368,1.5428,1.5878,1.6425,1.6404,1.5859,1.6172,1.623,1.6133,1.6447,1.6777,1.7174,1.749,1.7764,1.8008,1.8008,1.8008,1.8008,1.8008,1.8008,1.8008,0.0,0.0,0.0,0.0,0.0,0.0,0.0,0.0,0.0,0.0,0.0,0.0,0.0,0.0,0.0,0.0,0.0,0.0,0.0,0.0,0.0,0.8334,0.9211,1.0088,1.0845,1.0971,1.1376,1.2084,1.2112,1.2475,1.317,1.3212,1.3706,1.4547,1.4534,1.5485,1.6961,1.5296,1.5041,1.5661,1.4324,1.29,1.1506,1.1133,0.0,0.0,0.0,0.0,0.0,0.0,0.0,1.0574,1.0278,1.0423,1.0552,0.9814,1.0565,1.151,1.1031,1.1528,1.2032,1.1382,1.1526,1.1541,1.0528,0.9901,0.9434,0.9058,0.9168,0.9312,0.0,0.0,0.9932,1.081,1.0625,1.0801,1.2057,1.2242,1.2398,0.0,0.0,0.0,0.0,0.0,0.0,1.3475,0.0,1.5371,1.5478,1.6248,1.6687,1.6668,1.6309,1.6114,1.6095,1.5389,1.52,1.5588,1.6376,1.6746,1.6697,1.6726,1.6982,1.7353,1.7406,1.7607,1.7978,1.7998,1.8008,1.8008,1.8008,1.8018,1.8047,1.8047,1.8047,1.8047,0.0,0.0,0.0,0.0,0.0,0.0,0.0,0.0,0.0,0.0,0.0,0.0,0.0,0.0,0.0,0.0,0.0,0.0,0.0,0.0,0.0,0.0,0.0,0.0,0.0,0.0,0.0,0.0,0.0,1.1228,1.1521,1.2184,1.2914,1.3717,1.3761,1.4359,1.5304,1.4807,1.4386,1.3944,0.0,1.1817,1.0824,0.0,0.0,0.0,0.0,0.0,0.0,0.0,1.0574,0.9552,0.8933,0.9026,0.9417,0.955,1.0095,1.0656,1.0668,1.1406,1.2109,1.1752,1.1881,1.2039,1.1738,1.087,1.0074,0.9972,0.9724,0.963,0.9982,0.0,0.0,1.1677,1.1523,0.0,1.2578,1.2715,0.0,1.2895,0.0,1.3389,1.3496,1.4165,0.0,0.0,1.4277,1.5057,1.6296,1.658,1.6551,1.6271,1.6445,1.6406,1.6095,1.6551,1.6645,1.6402,1.7274,1.7321,1.6716,1.707,1.71,1.6882,1.7246,1.7451,1.7568,1.7881,1.8008,1.8008,1.8008,1.8169,1.8442,1.8442,1.8442,1.849,0.0,0.0,0.0,0.0,0.0,0.0,0.0,0.0,0.0,0.0,0.0,0.0,0.0,0.0,0.0,0.0,0.0,0.0,0.0,0.0,0.0,0.0,0.0,0.0,0.0,0.0,0.0,0.0,0.0,0.0,0.0,1.0905,1.1392,1.1875,1.1925,1.2432,1.3213,0.0,0.0,0.0,0.0,0.0,0.0,0.0,0.0,0.0,0.0,0.0,0.0,0.8754,0.8911,0.8648,0.8374,0.8704,0.9238,0.9414,1.0137,1.0882,1.0853,1.1673,1.2473,1.2312,1.2415,1.2501,1.23,1.1583,1.0845,1.0425,1.0259,1.0243,1.0292,1.0303,1.0576,0.0,0.0,0.0,1.2201,1.2471,1.2734,0.0,1.3359,0.0,1.4033,1.4563,1.4965,0.0,1.5445,1.5807,1.6331,1.6917,1.7178,1.6924,1.6567,1.6237,1.6002,1.6505,1.693,1.7272,1.7783,1.773,1.7272,1.7549,1.7529,1.7272,0.0,1.7656,1.7676,1.791,1.8008,1.8027,1.8178,1.8393,1.8627,1.8812,1.8926,1.8984,0.0,0.0,0.0,0.0,0.0,0.0,0.0,0.0,0.0,0.0,0.0,0.0,0.0,0.0,0.0,0.0,0.0,0.0,0.0,0.0,0.0,0.0,0.0,0.0,0.0,0.0,0.0,0.0,0.0,0.0,0.0,0.0,0.0,0.0,0.0,0.0,0.0,0.0,0.0,0.0,0.0,0.0,0.0,0.0,0.0,0.0,0.0,0.0,0.0,0.6339,0.7004,0.7866,0.8149,0.8856,0.9588,0.9459,1.0465,1.1562,1.1371,1.2091,1.2905,1.2905,1.2902,1.2798,1.2392,1.2057,1.1582,1.0733,1.0848,1.0992,1.0617,1.0508,1.0596,1.1016,0.0,1.0821,1.1565,1.2031,1.2593,1.3393,1.3555,1.3926,1.4813,1.4682,1.505,1.6325,1.6946,1.6968,1.6221,1.7088,1.7613,1.7613,1.6391,1.5788,1.5977,1.5977,1.6683,1.8008,1.8008,1.8008,1.8008,1.8008,1.8008,1.8008,0.0,0.0,1.8008,1.8008,1.8008,1.8047,1.8432,1.8637,1.8744,1.9209,1.9375,1.9434,0.0,0.0,0.0,0.0,0.0,0.0,0.0,0.0,0.0,0.0,0.0,0.0,0.0,0.0,0.0,0.0,0.0,0.0,0.0,0.0,0.0,0.0,0.0,0.0,0.0,0.0,0.0,0.0,0.0,0.0,0.0,0.0,0.0,0.0,0.0,0.0,0.0,0.0,0.0,0.0,0.0,0.0,0.0,0.0,0.0,0.0,0.0,0.0,0.0,0.0,0.6716,0.7387,0.7341,0.8382,0.9662,1.0012,1.0827,1.166,1.1962,1.2444,1.2905,1.2905,1.267,1.2402,1.2319,1.2066,1.1815,1.1535,1.1572,1.1705,1.1837,1.1592,1.1506,1.1901,1.1921,1.1921,1.2067,1.249,1.2949,0.0,1.3792,1.4338,1.5225,1.5874,0.0,0.0,0.0,1.7002,1.761,1.6401,1.5693,1.5693,1.5085,1.5309,1.6459,1.6493,1.6995,1.8008,1.8008,1.8008,1.8008,1.8008,1.8008,1.8008,1.8008,0.0,1.8008,1.8008,1.8008,1.8047,1.8432,1.8857,1.9228,1.9648,1.9805,1.9863,0.0,0.0,0.0,0.0,0.0,0.0,0.0,0.0,0.0,0.0,0.0,0.0,0.0,0.0,0.0,0.0,0.0,0.0,0.0,0.0,0.0,0.0,0.0,0.0,0.0,0.0,0.0,0.0,0.0,0.0,0.0,0.0,0.0,0.0,0.0,0.0,0.0,0.0,0.0,0.0,0.0,0.0,0.0,0.0,0.0,0.0,0.0,0.0,0.0,0.0,0.5957,0.6753,0.7529,0.8479,0.9356,0.9674,1.0631,1.1606,1.1667,1.2292,1.2968,1.3286,1.3019,1.2751,1.3106,1.312,1.2953,1.2601,1.2724,1.2861,1.2699,1.2235,1.1982,1.2174,1.2008,1.1963,1.2174,1.2389,1.2837,1.3704,1.3605,1.3877,1.4941,1.5667,1.5631,1.4585,0.0,1.5834,1.5772,1.5411,1.495,1.4458,1.4186,1.4665,1.586,1.586,1.6576,1.8008,1.8008,1.8008,1.8008,1.8008,1.8008,1.8008,1.8008,0.0,1.8008,1.8008,1.8008,1.8076,1.8721,1.9102,1.9365,2.0019,2.0254,2.0283,0.0,0.0,0.0,0.0,0.0,0.0,0.0,0.0,0.0,0.0,0.0,0.0,0.0,0.0,0.0,0.0,0.0,0.0,0.0,0.0,0.0,0.0,0.0,0.0,0.0,0.0,0.0,0.0,0.0,0.0,0.0,0.0,0.0,0.0,0.0,0.0,0.0,0.0,0.0,0.0,0.0,0.0,0.0,0.0,0.0,0.0,0.0,0.0,0.0,0.0,0.537,0.6075,0.7544,0.8392,0.8931,0.9266,1.0354,1.1446,1.1422,1.2139,1.3041,1.3637,1.3399,1.3167,1.3845,1.4144,1.4131,1.3562,1.3776,1.3906,1.3358,1.2751,1.2311,1.2223,1.2012,1.1956,1.2164,1.2291,1.2788,1.3968,1.3395,0.0,1.4972,1.5182,0.0,1.4967,0.0,0.0,1.3455,1.435,1.4414,1.3419,1.3382,1.3991,1.5199,1.5199,1.6158,1.8008,1.8008,1.8008,1.8008,1.8008,1.8008,1.8008,1.8008,0.0,0.0,1.8008,1.8057,1.8223,1.8994,1.9346,1.9512,2.0321,2.0605,2.0605,0.0,0.0,0.0,0.0,0.0,0.0,0.0,0.0,0.0,0.0,0.0,0.0,0.0,0.0,0.0,0.0,0.0,0.0,0.0,0.0,0.0,0.0,0.0,0.0,0.0,0.0,0.0,0.0,0.0,0.0,0.0,0.0,0.0,0.0,0.0,0.0,0.0,0.0,0.0,0.0,0.0,0.0,0.0,0.0,0.0,0.0,0.0,0.0,0.5085,0.5487,0.5471,0.5429,0.6371,0.7493,0.8603,0.9346,1.0235,1.1131,1.1901,1.2501,1.3041,1.3637,1.3399,1.3167,1.3845,1.4438,1.4654,1.4066,1.4304,1.4448,1.3846,1.3239,1.2695,1.2272,0.0,1.2637,1.2252,1.2578,1.3145,1.4007,0.0,0.0,1.6275,1.5118,1.484,0.0,0.0,0.0,1.2482,1.331,1.3419,1.2445,1.2445,1.3302,1.5163,1.5199,1.6158,1.8008,1.8008,1.8008,1.8008,1.8008,1.8008,1.8008,1.8008,0.0,0.0,1.8008,1.8232,1.8588,1.9102,1.9521,1.9912,2.0429,2.0605,2.0605,0.0,0.0,0.0,0.0,0.0,0.0,0.0,0.0,0.0,0.0,0.0,0.0,0.0,0.0,0.0,0.0,0.0,0.0,0.0,0.0,0.0,0.0,0.0,0.0,0.0,0.0,0.0,0.0,0.0,0.0,0.0,0.0,0.0,0.0,0.0,0.0,0.0,0.0,0.0,0.0,0.0,0.0,0.0,0.0,0.0,0.0,0.0,0.0,0.0,0.5336,0.55,0.5897,0.5762,0.6287,0.7211,0.8502,0.9839,1.1045,1.166,1.2367,1.3128,1.4107,1.3422,1.2858,1.422,1.448,1.4438,1.4531,1.4631,1.4629,1.4376,1.3539,1.2846,0.0,0.0,0.0,1.2009,1.2258,1.2539,1.2752,1.2571,1.3126,0.0,0.0,1.3733,0.0,0.0,0.0,1.2335,1.2666,1.2952,1.3135,1.3135,1.4091,1.6,1.6035,1.6715,1.8008,1.8008,1.8008,1.8008,1.8008,1.8144,1.8354,1.8354,0.0,0.0,1.8461,1.8607,1.9043,1.9219,1.9541,1.9971,2.0449,2.0605,2.0605,0.0,0.0,0.0,0.0,0.0,0.0,0.0,0.0,0.0,0.0,0.0,0.0,0.0,0.0,0.0,0.0,0.0,0.0,0.0,0.0,0.0,0.0,0.0,0.0,0.0,0.0,0.0,0.0,0.0,0.0,0.0,0.0,0.0,0.0,0.0,0.0,0.0,0.0,0.0,0.0,0.0,0.0,0.0,0.0,0.0,0.0,0.0,0.0,0.0,0.0,0.0,0.6462,0.5788,0.5844,0.0,0.7503,0.8887,1.0215,1.0996,1.1848,1.2839,1.4135,1.3429,1.2828,1.4322,1.4488,1.4381,1.4596,1.4674,1.4663,1.4468,1.3586,1.2905,0.0,0.0,1.2273,1.1852,1.2148,1.2322,1.2108,0.0,1.2781,0.0,1.4227,1.3812,0.0,0.0,0.0,0.0,1.2508,1.3025,1.3673,1.3991,1.4807,1.6175,1.6463,1.6922,1.7579,1.7872,1.8008,1.8008,1.8008,1.813,1.8412,0.0,0.0,0.0,1.8676,1.8896,1.9297,1.9424,1.9736,2.0146,2.0488,2.0605,2.0605,0.0,0.0,0.0,0.0,0.0,0.0,0.0,0.0,0.0,0.0,0.0,0.0,0.0,0.0,0.0,0.0,0.0,0.0,0.0,0.0,0.0,0.0,0.0,0.0,0.0,0.0,0.0,0.0,0.0,0.0,0.0,0.0,0.0,0.0,0.0,0.0,0.0,0.0,0.0,0.0,0.0,0.0,0.0,0.0,0.0,0.0,0.0,0.0,0.0,0.0,0.0,0.0,0.0,0.0,0.0,0.0,0.724,0.8359,0.9895,1.0939,1.1977,1.3521,1.3461,1.3195,1.3939,1.4513,1.4716,1.4138,1.4373,1.4514,1.3909,1.331,1.2905,0.0,0.0,0.0,1.1888,1.2418,1.2805,0.0,0.0,1.3122,1.5187,1.6159,0.0,0.0,0.0,0.0,0.0,1.3035,1.3709,1.3709,1.4665,1.5199,1.5199,1.614,1.6602,1.6636,1.7579,1.8008,1.8008,1.8008,1.8008,0.0,0.0,0.0,0.0,1.8432,1.8896,1.9326,1.9746,2.0176,2.0595,2.0605,2.0605,2.0605,0.0,0.0,0.0,0.0,0.0,0.0,0.0,0.0,0.0,0.0,0.0,0.0,0.0,0.0,0.0,0.0,0.0,0.0,0.0,0.0,0.0,0.0,0.0,0.0,0.0,0.0,0.0,0.0,0.0,0.0,0.0,0.0,0.0,0.0,0.0,0.0,0.0,0.0,0.0,0.0,0.0,0.0,0.0,0.0,0.0,0.0,0.0,0.0,0.0,0.0,0.0,0.0,0.0,0.0,0.0,0.0,0.0,0.8437,0.9209,1.0244,1.1352,1.2307,1.2276,1.2229,1.2919,1.3734,1.4174,1.357,1.4123,1.4514,1.3909,1.331,1.2783,1.2457,0.0,0.0,0.0,0.0,0.0,1.2186,1.35,1.4586,0.0,0.0,0.0,0.0,0.0,0.0,0.0,1.3035,1.4027,1.47,1.5649,1.6463,1.7113,1.7398,1.7579,1.7579,1.7862,1.8008,1.8008,1.8008,0.0,0.0,0.0,0.0,0.0,1.9033,1.9336,1.9727,1.9863,2.0185,2.0605,2.0605,2.0605,2.0605,0.0,0.0,0.0,0.0,0.0,0.0,0.0,0.0,0.0,0.0,0.0,0.0,0.0,0.0,0.0,0.0,0.0,0.0,0.0,0.0,0.0,0.0,0.0,0.0,0.0,0.0,0.0,0.0,0.0,0.0,0.0,0.0,0.0,0.0,0.0,0.0,0.0,0.0,0.0,0.0,0.0,0.0,0.7481,0.0,0.0,0.0,0.0,0.0,0.0,0.0,0.0,0.0,0.0,0.0,0.0,0.0,0.0,0.0,0.8622,0.958,1.0577,1.1378,1.1598,1.1755,1.22,1.3053,1.3591,1.2967,1.3663,1.4177,1.3576,1.3152,1.2793,1.252,0.0,0.0,0.0,0.0,0.0,1.2796,0.0,0.0,0.0,0.0,0.0,0.0,0.0,0.0,0.0,1.2971,1.3991,1.4593,1.5579,1.6184,1.6376,1.7113,1.7295,1.6941,1.7657,1.8008,1.8008,1.8008,0.0,0.0,0.0,0.0,0.0,1.9219,1.9531,1.9932,2.0098,2.0322,2.0605,2.0605,2.0713,2.0791,0.0,0.0,0.0,0.0,0.0,0.0,0.0,0.0,0.0,0.0,0.0,0.0,0.0,0.0,0.0,0.0,0.0,0.0,0.0,0.0,0.0,0.0,0.0,0.0,0.0,0.0,0.0,0.0,0.0,0.0,0.0,0.0,0.0,0.0,0.0,0.0,0.0,0.0,0.0,0.0,0.0,0.0,0.0,0.0,0.0,0.0,0.0,0.0,0.0,0.0,0.0,0.0,0.0,0.0,0.0,0.0,0.0,0.0,0.0,0.8975,0.9779,1.0683,1.1284,1.1663,1.1714,1.2488,0.0,1.2414,1.3104,1.3613,1.3017,1.2905,1.2895,1.2866,0.0,0.0,0.0,1.2761,0.0,0.0,1.4895,0.0,0.0,0.0,0.0,0.0,0.0,0.0,0.0,1.2792,1.36,1.36,1.4498,1.4597,1.378,1.5667,1.6166,1.5298,1.7139,1.8008,1.8008,1.8008,0.0,0.0,0.0,0.0,0.0,1.9111,1.9531,1.9961,2.0429,2.0605,2.0605,2.0605,2.085,2.1132,0.0,0.0,0.0,0.0,0.0,0.0,0.0,0.0,0.0,0.0,0.0,0.0,0.0,0.0,0.0,0.0,0.0,0.0,0.0,0.0,0.0,0.0,0.0,0.0,0.0,0.0,0.0,0.0,0.0,0.0,0.0,0.0,0.0,0.0,0.0,0.0,0.0,0.0,0.0,0.0,0.0,0.0,0.0,0.0,0.0,0.0,0.6847,0.7178,0.0,0.0,0.0,0.0,0.0,0.0,0.0,0.0,0.7806,0.0,0.0,0.0,0.9275,0.9796,1.0542,1.1153,0.0,1.2178,1.3018,1.2365,1.3068,1.3613,1.3017,1.2905,1.2773,1.2408,0.0,1.2715,1.2177,1.2658,0.0,1.4934,1.5034,1.501,0.0,0.0,0.0,0.0,0.0,0.0,0.0,1.2192,1.2629,1.2629,1.2648,1.3258,1.4466,1.5887,1.6379,1.5904,1.7315,1.8008,1.8008,1.8008,0.0,0.0,0.0,0.0,1.8637,1.9111,1.9531,1.9961,2.0429,2.0605,2.0605,2.0605,2.085,2.1132,0.0,0.0,0.0,0.0,0.0,0.0,0.0,0.0,0.0,0.0,0.0,0.0,0.0,0.0,0.0,0.0,0.0,0.0,0.0,0.0,0.0,0.0,0.0,0.0,0.0,0.0,0.0,0.0,0.0,0.0,0.0,0.0,0.0,0.0,0.0,0.0,0.0,0.0,0.0,0.0,0.0,0.0,0.0,0.0,0.0,0.0,0.6534,0.6746,0.0,0.7146,0.7414,0.7572,0.0,0.0,0.0,0.0,0.7876,0.0,0.0,0.8975,0.9328,0.9534,1.0278,1.0934,1.0921,1.1857,1.2649,1.227,1.2832,1.3286,1.2968,1.2608,1.2425,0.0,1.2464,0.0,0.0,0.0,1.3666,1.4963,1.5136,0.0,0.0,0.0,0.0,0.0,0.0,0.0,0.0,1.2058,1.2238,1.2104,1.2084,1.2492,1.3419,1.453,1.4981,1.4857,1.6524,1.7364,1.7354,1.7794,1.8008,0.0,0.0,0.0,1.8637,1.9111,1.9531,1.9961,2.0429,2.0605,2.0605,2.0605,2.085,2.1132,0.0,0.0,0.0,0.0,0.0,0.0,0.0,0.0,0.0,0.0,0.0,0.0,0.0,0.0,0.0,0.0,0.0,0.0,0.0,0.0,0.0,0.0,0.0,0.0,0.0,0.0,0.0,0.0,0.0,0.0,0.0,0.0,0.0,0.0,0.0,0.0,0.0,0.0,0.0,0.0,0.0,0.0,0.0,0.0,0.0,0.0,0.0,0.0,0.0,0.6313,0.6692,0.713,0.7113,0.0,0.0,0.0,0.0,0.0,0.8706,0.9236,0.9622,0.9758,1.0351,1.0927,1.1063,1.1667,1.2223,1.2291,1.2627,1.2886,1.2817,1.2275,0.0,0.0,0.0,0.0,1.352,1.3597,1.3833,1.4697,1.5042,0.0,0.0,0.0,0.0,0.0,0.0,0.0,0.0,1.2104,1.2124,1.1913,1.2064,1.2031,1.1772,1.2796,1.3319,1.3386,1.5498,1.658,1.6762,1.7619,1.8008,0.0,0.0,0.0,1.8637,1.9111,1.9531,1.9961,2.0429,2.0605,2.0605,2.0605,2.085,2.1142,0.0,0.0,0.0,0.0,0.0,0.0,0.0,0.0,0.0,0.0,0.0,0.0,0.0,0.0,0.0,0.0,0.0,0.0,0.0,0.0,0.0,0.0,0.0,0.0,0.0,0.0,0.0,0.0,0.0,0.0,0.0,0.0,0.0,0.0,0.0,0.0,0.0,0.0,0.0,0.0,0.0,0.0,0.0,0.0,0.0,0.0,0.0,0.0,0.0,0.6788,0.7143,0.7326,0.7157,0.0,0.0,0.0,0.0,0.0,0.8462,0.9042,0.9768,1.0517,1.079,1.1083,1.1833,1.2106,1.2311,1.2705,0.0,0.0,0.0,1.2198,1.2001,0.0,0.0,1.2907,0.0,0.0,1.3895,1.471,0.0,0.0,0.0,0.0,0.0,0.0,0.0,0.0,0.0,1.1946,1.1953,1.1906,1.167,1.1423,1.1129,1.2579,1.3384,1.3582,1.5347,1.655,1.7282,1.7774,1.8008,0.0,0.0,1.8217,1.8637,1.9111,1.9531,1.9961,2.0429,2.0605,2.0605,2.0605,2.085,2.1181,0.0,0.0,0.0,0.0,0.0,0.0,0.0,0.0,0.0,0.0,0.0,0.0,0.0,0.0,0.0,0.0,0.0,0.0,0.0,0.0,0.0,0.0,0.0,0.0,0.0,0.0,0.0,0.0,0.0,0.0,0.0,0.0,0.0,0.0,0.0,0.0,0.0,0.0,0.0,0.0,0.0,0.0,0.0,0.0,0.0,0.0,0.0,0.0,0.0,0.0,0.695,0.7227,0.714,0.0,0.0,0.0,0.0,0.0,0.8668,0.9148,0.9815,1.0673,1.0908,1.0995,1.1404,1.1699,1.1992,0.0,0.0,0.0,0.0,0.0,1.1983,1.1909,0.0,1.3603,1.4321,1.4096,0.0,0.0,0.0,0.0,0.0,0.0,0.0,0.0,0.0,0.0,0.0,0.0,1.1557,1.1437,1.157,1.1369,1.0801,1.177,1.2604,1.3232,1.4664,1.592,1.6979,1.7663,1.8008,1.8008,0.0,1.8081,1.8295,1.8724,1.9017,1.9251,1.9951,2.0215,2.0244,2.0517,2.0732,2.0908,0.0,0.0,0.0,0.0,0.0,0.0,0.0,0.0,0.0,0.0,0.0,0.0,0.0,0.0,0.0,0.0,0.0,0.0,0.0,0.0,0.0,0.0,0.0,0.0,0.0,0.0,0.0,0.0,0.0,0.0,0.0,0.0,0.0,0.0,0.0,0.0,0.0,0.0,0.0,0.0,0.0,0.0,0.0,0.0,0.0,0.0,0.0,0.0,0.0,0.0,0.0,0.0,0.0,0.0,0.0,0.0,0.7884,0.8324,0.874,0.9151,0.9698,1.0654,1.0986,1.1094,1.117,1.1575,1.1985,0.0,0.0,0.0,0.0,1.2005,0.0,1.2588,1.3374,1.3984,1.435,0.0,0.0,0.0,0.0,0.0,0.0,0.0,0.0,0.0,0.0,0.0,0.0,0.0,1.1223,1.1002,1.1464,1.1343,1.06,1.1069,1.1856,1.2945,1.3764,1.4926,1.6322,1.7166,1.7586,1.7681,1.7896,1.8066,1.8149,1.8471,1.8656,1.8831,1.9619,1.998,2.0107,2.0478,2.0605,2.0674,0.0,0.0,0.0,0.0,0.0,0.0,0.0,0.0,0.0,0.0,0.0,0.0,0.0,0.0,0.0,0.0,0.0,0.0,0.0,0.0,0.0,0.0,0.0,0.0,0.0,0.0,0.0,0.0,0.0,0.0,0.0,0.0,0.0,0.0,0.0,0.0,0.0,0.0,0.0,0.0,0.0,0.0,0.0,0.0,0.0,0.0,0.0,0.0,0.0,0.0,0.0,0.0,0.0,0.0,0.0,0.0,0.7431,0.7844,0.8318,0.8749,0.9346,1.0596,1.1232,1.1643,1.2018,1.2471,0.0,1.2856,0.0,0.0,0.0,1.1131,1.1283,1.3124,1.3295,1.3682,0.0,0.0,0.0,0.0,0.0,0.0,0.0,0.0,0.0,0.0,0.0,0.0,0.0,0.0,0.0,1.0995,1.1035,1.0928,1.0593,1.0901,1.1679,1.2999,1.2702,1.355,1.542,1.5978,1.6419,1.674,1.7613,1.8198,1.8559,1.8588,1.8877,1.9287,1.9736,2.0166,2.0556,2.0595,2.0605,2.0674,0.0,0.0,0.0,0.0,0.0,0.0,0.0,0.0,0.0,0.0,0.0,0.0,0.0,0.0,0.0,0.0,0.0,0.0,0.0,0.0,0.0,0.0,0.0,0.0,0.0,0.0,0.0,0.0,0.0,0.0,0.0,0.0,0.0,0.0,0.0,0.0,0.0,0.0,0.0,0.0,0.0,0.0,0.0,0.0,0.0,0.0,0.0,0.0,0.0,0.0,0.7373,0.0,0.0,0.0,0.0,0.0,0.7973,0.8545,0.872,0.9288,0.9912,1.04,1.1066,0.0,0.0,1.1728,1.1738,1.2025,1.2285,0.0,0.0,0.0,1.2737,1.3717,1.3427,0.0,0.0,0.0,0.0,0.0,0.0,0.0,0.0,0.0,0.0,0.0,0.0,0.0,0.0,0.0,0.0,1.0754,1.0902,1.0888,1.0593,1.0881,1.141,1.2235,1.2339,1.3305,1.4916,1.5128,1.5737,1.6636,1.7001,1.7552,1.8237,1.849,1.8695,1.8909,1.9639,2.0185,2.0605,2.0605,2.0605,2.0674,0.0,0.0,0.0,0.0,0.0,0.0,0.0,0.0,0.0,0.0,0.0,0.0,0.0,0.0,0.0,0.0,0.0,0.0,0.0,0.0,0.0,0.0,0.0,0.0,0.0,0.0,0.0,0.0,0.0,0.0,0.0,0.0,0.0,0.0,0.0,0.0,0.0,0.0,0.0,0.0,0.0,0.0,0.0,0.0,0.0,0.0,0.0,0.0,0.0,0.0,0.7373,0.0,0.0,0.0,0.0,0.0,0.0,0.9033,0.9143,0.9629,1.0137,1.041,0.0,0.0,1.1731,1.1543,1.1433,1.1907,1.2109,1.234,1.2803,0.0,0.0,0.0,0.0,0.0,0.0,0.0,0.0,0.0,0.0,0.0,0.0,0.0,0.0,0.0,0.0,0.0,0.0,0.0,0.0,0.0,1.0787,1.0794,1.0593,1.0787,1.107,1.1445,1.1803,1.2696,1.408,1.4114,1.4881,1.6175,1.6454,1.7213,1.8198,1.8481,1.8754,1.9056,1.9687,2.0185,2.0605,2.0605,2.0605,2.0674,0.0,0.0,0.0,0.0,0.0,0.0,0.0,0.0,0.0,0.0,0.0,0.0,0.0,0.0,0.0,0.0,0.0,0.0,0.0,0.0,0.0,0.0,0.0,0.0,0.0,0.0,0.0,0.0,0.0,0.0,0.0,0.0,0.0,0.0,0.0,0.0,0.0,0.0,0.0,0.0,0.0,0.8062,0.7666,0.0,0.0,0.0,0.0,0.0,0.0,0.0,0.7373,0.0,0.0,0.0,0.0,0.0,0.8698,0.9084,0.9503,0.9602,0.9825,1.0693,0.0,0.0,1.1999,1.2203,1.233,1.2807,1.2529,1.234,1.2803,1.2529,0.0,0.0,0.0,0.0,0.0,0.0,0.0,0.0,0.0,0.0,0.0,0.0,0.0,0.0,0.0,0.0,0.0,0.0,0.0,0.0,1.0593,1.0593,1.0593,1.0593,1.0593,1.0593,1.0855,1.1575,1.268,1.2815,1.3744,1.5269,1.6175,1.7327,1.8598,1.8598,1.9114,1.9922,1.9922,2.0185,2.0605,2.0605,2.0605,2.0674,0.0,0.0,0.0,0.0,0.0,0.0,0.0,0.0,0.0,0.0,0.0,0.0,0.0,0.0,0.0,0.0,0.0,0.0,0.0,0.0,0.0,0.0,0.0,0.0,0.0,0.0,0.0,0.0,0.0,0.0,0.0,0.0,0.0,0.0,0.0,0.0,0.0,0.0,0.0,0.0,0.0,0.8233,0.8037,0.0,0.0,0.0,0.0,0.0,0.0,0.0,0.0,0.0,0.0,0.0,0.0,0.8906,0.9104,0.9455,0.9563,0.9835,0.0,1.041,0.0,0.0,0.0,1.178,0.0,0.0,1.2301,1.234,1.2803,0.0,0.0,0.0,0.0,0.0,0.0,0.0,0.0,0.0,0.0,0.0,0.0,0.0,0.0,0.0,0.0,0.0,0.0,0.0,0.0,0.0,1.0593,1.0593,1.0593,1.0593,1.0593,1.0593,1.0855,1.1276,1.1806,1.2054,1.3306,1.5163,1.4736,1.5938,1.8242,1.8848,1.96,2.041,2.041,2.0488,2.0605,2.0605,2.0605,2.0674,0.0,0.0,0.0,0.0,0.0,0.0,0.0,0.0,0.0,0.0,0.0,0.0,0.0,0.0,0.0,0.0,0.0,0.0,0.0,0.0,0.0,0.0,0.0,0.0,0.0,0.0,0.0,0.0,0.0,0.0,0.0,0.0,0.0,0.0,0.0,0.0,0.0,0.0,0.0,0.0,0.0,0.8421,0.8258,0.0,0.0,0.0,0.0,0.0,0.0,0.0,0.0,0.0,0.0,0.0,0.0,0.926,0.9416,0.965,0.9825,1.0078,1.0342,1.0508,1.1076,1.1645,1.1809,0.0,0.0,0.0,1.249,1.2568,1.2856,1.2905,0.0,0.0,0.0,0.0,0.0,0.0,0.0,0.0,0.0,0.0,0.0,0.0,0.0,0.0,0.0,0.0,0.0,0.0,0.0,0.0,1.0526,1.0539,1.0388,1.0533,1.0593,1.0593,1.0855,1.1142,1.1402,1.173,1.3112,1.5199,1.4942,1.592,1.7745,1.8444,1.938,2.0322,2.0537,2.0605,2.0605,2.0605,2.0605,2.0644,0.0,0.0,0.0,0.0,0.0,0.0,0.0,0.0,0.0,0.0,0.0,0.0,0.0,0.0,0.0,0.0,0.0,0.0,0.0,0.0,0.0,0.0,0.0,0.0,0.0,0.0,0.0,0.0,0.0,0.0,0.0,0.0,0.0,0.0,0.0,0.0,0.0,0.0,0.0,0.0,0.8858,0.8648,0.8389,0.8712,0.0,0.0,0.0,0.0,0.0,0.0,0.0,0.0,0.9062,0.9092,0.9199,0.9562,0.9669,0.9757,1.0176,1.0303,1.0391,1.0752,1.1232,0.0,1.2155,1.2598,1.2895,1.2856,0.0,1.2905,1.2905,0.0,0.0,0.0,0.0,0.0,0.0,0.0,0.0,0.0,0.0,0.0,0.0,0.0,0.0,0.0,0.0,0.0,0.0,0.0,0.0,1.0043,1.0372,1.0399,1.009,1.0388,1.0566,0.0,1.0855,1.1129,1.1362,1.1822,1.3148,1.5128,1.607,1.6652,1.6991,1.7577,1.8583,1.9838,2.0352,2.0566,2.0605,2.0605,2.0605,2.0605,0.0,0.0,0.0,0.0,0.0,0.0,0.0,0.0,0.0,0.0,0.0,0.0,0.0,0.0,0.0,0.0,0.0,0.0,0.0,0.0,0.0,0.0,0.0,0.0,0.0,0.0,0.0,0.0,0.0,0.0,0.0,0.0,0.0,0.0,0.0,0.0,0.0,0.0,0.0,0.0,0.9262,0.9046,0.8673,0.8485,0.8414,0.0,0.0,0.0,0.0,0.0,0.0,0.0,0.9474,0.9736,1.0048,1.0117,1.0137,1.0166,1.0273,1.0303,0.0,1.042,1.1017,1.1812,1.2559,1.2837,1.2807,1.2418,1.2646,1.2905,1.2905,0.0,0.0,0.0,0.0,0.0,0.0,0.0,0.0,0.0,0.0,0.0,0.0,0.0,0.0,0.0,0.0,0.0,0.0,0.0,0.0,0.9773,0.9869,0.9953,1.0083,1.018,1.0327,0.0,1.0855,1.1022,1.1136,1.2414,1.3368,1.4099,1.5057,1.5297,1.5125,1.668,1.7916,1.8869,1.9707,2.0264,2.0605,2.0605,2.0605,2.0605,0.0,0.0,0.0,0.0,0.0,0.0,0.0,0.0,0.0,0.0,0.0,0.0,0.0,0.0,0.0,0.0,0.0,0.0,0.0,0.0,0.0,0.0,0.0,0.0,0.0,0.0,0.0,0.0,0.0,0.0,0.0,0.0,0.0,0.0,0.0,0.0,0.0,0.0,0.0,0.0,0.9474,0.9294,0.9126,0.8978,0.8948,0.9004,0.9226,0.0,0.0,0.0,0.0,0.0,0.0,0.0,1.001,1.0225,1.0137,0.9971,0.9971,0.0,0.0,1.0537,0.0,1.2002,1.2461,1.2734,1.2837,1.2588,1.2725,1.2905,0.0,0.0,0.0,0.0,0.0,0.0,0.0,0.0,0.0,0.0,0.0,0.0,0.0,0.0,0.0,0.0,0.0,0.0,0.0,0.9297,0.9284,0.9466,0.9613,0.9753,0.9907,1.0047,1.0267,1.0593,1.0747,1.119,1.1945,1.2863,1.3439,1.3745,1.4243,1.4588,1.4879,1.6035,1.7049,1.8025,1.9372,2.0049,2.0283,2.0527,2.0605,2.0605,0.0,0.0,0.0,0.0,0.0,0.0,0.0,0.0,0.0,0.0,0.0,0.0,0.0,0.0,0.0,0.0,0.0,0.0,0.0,0.0,0.0,0.0,0.0,0.0,0.0,0.0,0.0,0.0,0.0,0.0,0.0,0.0,0.0,0.0,0.0,0.0,0.0,0.0,0.0,0.0,0.967,0.9566,0.9629,0.9605,0.9595,0.9641,1.0039,0.9941,0.9679,1.0137,0.0,0.0,0.0,0.0,0.9698,1.0156,1.0029,0.0,0.0,1.001,1.04,1.0811,1.1433,0.0,1.2077,1.2451,1.2773,1.2773,1.2856,1.2847,0.0,0.0,0.0,0.0,0.0,0.0,0.0,0.0,0.0,0.0,0.0,0.0,0.0,0.0,0.0,0.0,0.0,0.0,0.9124,0.9138,0.9138,0.9138,0.9452,0.9633,0.9715,0.9973,1.0267,1.0593,1.0593,1.1288,1.2572,1.2804,1.3186,1.3709,1.3528,1.3918,1.4752,1.5404,1.6189,1.7135,1.8953,1.9785,1.9961,2.0322,2.0537,2.0605,0.0,0.0,0.0,0.0,0.0,0.0,0.0,0.0,0.0,0.0,0.0,0.0,0.0,0.0,0.0,0.0,0.0,0.0,0.0,0.0,0.0,0.0,0.0,0.0,0.0,0.0,0.0,0.0,0.0,0.0,0.0,0.0,0.0,0.0,0.0,0.0,0.0,0.0,0.0,0.0,0.0,1.008,1.0158,0.9749,0.9595,0.9602,0.9679,0.9659,0.9679,1.0137,0.9756,0.0,0.0,0.0,0.0,1.0156,1.0263,0.0,0.0,0.0,1.04,0.0,1.0996,1.1182,0.0,0.0,1.2291,0.0,1.2617,0.0,0.0,0.0,0.0,0.0,0.0,0.0,0.0,0.0,0.0,0.0,0.0,0.0,0.0,0.0,0.0,0.0,0.0,0.0,0.8864,0.8864,0.8864,0.8864,0.9118,0.9391,0.9708,0.9973,1.0267,1.0593,1.0593,1.0831,1.1247,1.1288,1.2191,1.3637,1.2842,1.2549,1.2806,1.4569,1.5563,1.6184,1.8054,1.9221,1.9922,1.998,2.0244,2.0605,0.0,0.0,0.0,0.0,0.0,0.0,0.0,0.0,0.0,0.0,0.0,0.0,0.0,0.0,0.0,0.0,0.0,0.0,0.0,0.0,0.0,0.0,0.0,0.0,0.0,0.0,0.0,0.0,0.0,0.0,0.0,0.903,0.903,0.0,0.0,0.0,0.0,0.0,0.0,0.0,0.0,0.0,0.0,0.0,0.9606,0.9622,0.9893,0.9815,0.9679,1.0137,0.9863,0.9445,1.0107,0.0,0.0,0.0,0.0,0.0,1.0303,1.0107,1.0001,0.0,1.0732,1.1025,1.1477,1.1904,1.2146,1.2001,0.0,0.0,0.0,0.0,0.0,0.0,0.0,0.0,0.0,0.0,0.0,0.0,0.0,0.0,0.0,0.0,0.0,0.0,0.0,0.8804,0.8804,0.8804,0.8804,0.8804,0.8904,0.9111,0.9404,0.9726,1.0107,1.0593,1.0593,1.0747,1.0995,1.0995,1.192,1.3405,1.2483,1.2471,1.3164,1.4027,1.4788,1.5652,1.7479,1.8781,1.9619,2.0098,2.0439,2.0605,0.0,0.0,0.0,0.0,0.0,0.0,0.0,0.0,0.0,0.0,0.0,0.0,0.0,0.0,0.0,0.0,0.0,0.0,0.0,0.0,0.0,0.0,0.0,0.0,0.0,0.0,0.0,0.0,0.0,0.0,0.9425,0.9487,0.9666,0.0,1.0493,0.0,0.0,0.0,0.0,0.0,0.0,0.0,0.0,0.0,0.0,0.0,0.0,0.0,0.0,0.0,0.0,0.0,0.0,0.0,0.0,0.0,0.0,0.0,0.0,0.0,0.9854,1.0215,1.0537,1.0859,0.0,0.0,1.1775,0.0,0.0,0.0,0.0,0.0,0.0,0.0,0.0,0.0,0.0,0.0,0.0,0.0,0.0,0.0,0.0,0.0,0.0,0.0,0.0,0.8804,0.8804,0.8804,0.8804,0.8804,0.8878,0.8991,0.9211,0.9532,1.001,1.0593,1.0512,1.0633,1.0882,1.0882,1.1556,1.2684,1.215,1.2462,1.3382,1.3882,1.4522,1.5399,1.7207,1.8502,1.9365,2.0048,2.0419,2.0605,0.0,0.0,0.0,0.0,0.0,0.0,0.0,0.0,0.0,0.0,0.0,0.0,0.0,0.0,0.0,0.0,0.0,0.0,0.0,0.0,0.0,0.0,0.0,0.0,0.0,0.0,0.0,0.0,0.0,0.0,1.0337,1.0717,1.0908,1.0887,1.0053,0.9655,0.9629,0.0,0.0,0.0,0.0,0.0,0.0,0.0,0.0,0.0,0.0,0.0,0.0,0.0,0.0,0.0,0.0,0.0,0.0,0.0,0.0,0.0,0.0,1.0283,0.0,1.0293,1.0322,1.0449,0.0,0.0,0.0,0.0,0.0,0.0,0.0,0.0,0.0,0.0,0.0,0.0,0.0,0.0,0.0,0.0,0.0,0.0,0.0,0.0,0.0,0.0,0.0,0.8804,0.8804,0.8804,0.8804,0.8804,0.9044,0.9198,0.9211,0.9532,1.001,1.0586,1.0274,1.0294,1.0613,1.0613,1.0813,1.1135,1.1665,1.2067,1.2519,1.4343,1.5163,1.5376,1.7273,1.8539,1.9297,1.9336,1.9901,2.0605,0.0,0.0,0.0,0.0,0.0,0.0,0.0,0.0,0.0,0.0,0.0,0.0,0.0,0.0,0.0,0.0,0.0,0.0,0.0,0.0,0.0,0.0,0.0,0.0,0.0,0.0,0.0,0.0,0.0,0.8502,1.034,1.0482,1.0897,1.1475,1.0803,1.0331,1.0059,1.0234,0.0,0.0,0.0,0.0,0.0,0.0,0.0,0.0,0.0,0.0,0.0,0.0,0.0,0.0,0.0,0.0,0.0,0.0,0.0,0.0,0.0,0.0,0.0,1.0303,1.0303,1.0488,1.1193,1.1284,1.1314,0.0,0.0,0.0,0.0,0.0,0.0,0.0,0.0,0.0,0.0,0.0,0.0,0.0,0.0,0.0,0.0,0.0,0.0,0.0,0.0,0.0,0.8804,0.8804,0.8804,0.8804,0.8884,0.9024,0.9211,0.9317,0.9693,1.0274,1.0167,1.0274,1.0593,1.0593,1.0854,1.1283,1.1496,1.175,1.2146,1.362,1.4629,1.539,1.7225,1.8499,1.9355,1.994,2.0341,2.0605,0.0,0.0,0.0,0.0,0.0,0.0,0.0,0.0,0.0,0.0,0.0,0.0,0.0,0.0,0.0,0.0,0.0,0.0,0.0,0.0,0.0,0.0,0.0,0.0,0.0,0.0,0.0,0.0,0.0,0.0,0.0,1.0299,1.0745,1.1505,1.0981,1.0592,0.0,0.0,0.0,1.0341,0.0,0.0,1.1169,0.0,0.0,0.0,0.0,0.0,0.0,0.0,0.0,0.0,0.0,0.0,0.0,0.0,0.0,0.0,1.0303,0.0,0.0,0.0,1.041,1.0643,1.1149,0.0,1.1131,0.0,0.0,0.0,0.0,0.0,0.0,0.0,0.0,0.0,0.0,0.0,0.0,0.0,0.0,0.0,0.0,0.0,0.0,0.0,0.0,0.0,0.8804,0.8804,0.8804,0.8804,0.8804,0.8918,0.9211,0.9118,0.9411,1.0083,1.002,1.018,1.0593,1.0593,1.0801,1.1142,1.1309,1.165,1.2132,1.362,1.4593,1.5407,1.7352,1.8596,1.9375,2.0088,2.0478,2.0605,0.0,0.0,0.0,0.0,0.0,0.0,0.0,0.0,0.0,0.0,0.0,0.0,0.0,0.0,0.0,0.0,0.0,0.0,0.0,0.0,0.0,0.0,0.0,0.0,0.0,0.0,0.0,0.0,0.0,0.0,0.0,0.0,1.0553,0.0,1.0525,1.0322,1.0303,0.0,1.0322,1.0361,0.0,1.1667,1.2589,0.0,0.0,0.0,1.2505,1.156,0.0,1.0848,0.0,0.0,0.0,0.0,0.0,0.0,0.0,0.0,0.0,0.0,0.0,0.0,0.0,0.0,1.0658,0.0,1.0148,0.0,0.0,0.0,0.0,0.0,0.0,0.0,0.0,0.0,0.0,0.0,0.0,0.0,0.0,0.0,0.0,0.0,0.0,0.0,0.0,0.8804,0.8804,0.8804,0.8804,0.8804,0.8804,0.8911,0.9198,0.8918,0.9245,1.01,0.982,1.0023,1.0593,1.0593,1.0593,1.0633,1.1176,1.1757,1.2432,1.4371,1.5207,1.5426,1.772,1.8926,1.9355,1.9775,2.0205,2.0605,0.0,0.0,0.0,0.0,0.0,0.0,0.0,0.0,0.0,0.0,0.0,0.0,0.0,0.0,0.0,0.0,0.0,0.0,0.0,0.0,0.0,0.0,0.0,0.0,0.0,0.0,0.0,0.0,0.0,0.0,0.0,0.0,0.0,0.0,1.0867,1.0611,1.0303,1.0303,0.0,0.0,1.1793,1.2298,0.0,0.0,0.0,0.0,0.0,1.1737,1.1348,0.0,1.0905,1.0745,0.0,0.0,0.0,0.0,0.0,0.0,1.0303,0.0,0.0,0.0,0.0,0.0,0.0,0.0,0.0,0.0,0.0,0.0,0.0,0.0,0.0,0.0,0.0,0.0,0.0,0.0,0.0,0.0,0.0,0.0,0.0,0.0,0.0,0.0,0.8804,0.8804,0.8804,0.8804,0.8804,0.8804,0.8804,0.8844,0.8898,0.8844,0.9145,0.98,0.9726,1.0023,1.0593,1.0593,1.0707,1.0895,1.1263,1.1637,1.2184,1.4312,1.5383,1.5875,1.8187,1.9365,1.9795,2.0225,2.0498,2.0644,0.0,0.0,0.0,0.0,0.0,0.0,0.0,0.0,0.0,0.0,0.0,0.0,0.0,0.0,0.0,0.0,0.0,0.0,0.0,0.0,0.0,0.0,0.0,0.0,0.0,0.0,0.0,0.0,0.0,0.0,0.0,0.0,0.0,0.0,0.0,0.0,0.0,0.0,0.0,0.0,1.2242,0.0,0.0,1.3228,1.3077,0.0,0.0,0.0,1.1449,1.1356,1.1057,0.0,0.0,0.0,0.0,0.0,0.0,0.0,0.0,0.0,0.0,0.0,0.0,0.0,1.0307,1.0349,1.0466,0.0,0.0,0.0,0.0,0.0,0.0,0.0,0.0,0.0,0.0,0.0,0.0,0.0,0.0,0.0,0.0,0.0,0.0,0.8804,0.8804,0.8804,0.8804,0.8804,0.8804,0.8804,0.8804,0.8804,0.8804,0.8804,0.9105,0.9715,0.9715,1.0023,1.0593,1.0593,1.0687,1.0835,1.1243,1.1523,1.1857,1.3793,1.4964,1.5816,1.8327,1.9434,1.9727,2.038,2.0605,2.0644,0.0,0.0,0.0,0.0,0.0,0.0,0.0,0.0,0.0,0.0,0.0,0.0,0.0,0.0,0.0,0.0,0.0,0.0,0.0,0.0,0.0,0.0,0.0,0.0,0.0,0.0,0.0,0.0,0.0,0.0,0.0,0.0,0.0,0.0,0.0,0.0,0.0,0.0,0.0,1.2092,1.251,1.3249,0.0,0.0,1.3287,0.0,1.3221,1.236,1.129,1.1682,1.1124,0.0,0.0,0.0,0.0,0.0,1.0332,0.0,0.0,0.0,0.0,0.0,0.0,0.0,0.974,1.0084,1.0338,0.9159,0.0,0.0,0.0,0.0,0.0,0.0,0.0,0.0,0.0,0.0,0.0,0.0,0.0,0.0,0.0,0.8804,0.8804,0.8804,0.8804,0.8804,0.8804,0.8804,0.8804,0.8804,0.8804,0.8804,0.8804,0.8804,0.9105,0.9715,0.9715,1.0023,1.0593,1.0593,1.0593,1.0626,1.1176,1.1389,1.1538,1.3049,1.4353,1.5595,1.8162,1.9273,1.9558,2.0321,2.0605,2.0615,0.0,0.0,0.0,0.0,0.0,0.0,0.0,0.0,0.0,0.0,0.0,0.0,0.0,0.0,0.0,0.0,0.0,0.0,0.0,0.0,0.0,0.0,0.0,0.0,0.0,0.0,0.0,0.0,0.0,0.0,0.0,0.0,0.0,0.0,0.0,0.0,0.0,0.0,0.0,1.3654,1.3757,0.0,1.41,1.3961,1.3618,1.3213,1.3201,1.3012,1.2668,0.0,1.1124,1.0303,0.0,0.0,0.0,0.0,0.0,0.0,0.0,0.0,0.0,0.0,0.0,0.0,0.929,0.9539,0.9917,0.0,0.0,0.0,0.0,0.0,0.0,0.0,0.0,0.0,0.0,0.0,0.0,0.0,0.0,0.0,0.0,0.8804,0.8804,0.8804,0.8804,0.8804,0.8804,0.8804,0.8804,0.8804,0.8804,0.8804,0.8804,0.8804,0.9105,0.9715,0.9715,1.0023,1.0593,1.0593,1.0593,1.0626,1.1176,1.1389,1.1538,1.3049,1.4663,1.6292,1.7666,1.9052,2.038,2.0537,2.0605,2.0654,0.0,0.0,0.0,0.0,0.0,0.0,0.0,0.0,0.0,0.0,0.0,0.0,0.0,0.0,0.0,0.0,0.0,0.0,0.0,0.0,0.0,0.0,0.0,0.0,0.0,0.0,0.0,0.0,0.0,0.0,0.0,0.0,0.0,0.0,0.0,0.0,0.0,0.0,1.439,1.4794,1.4306,0.0,1.4437,1.3866,1.3647,1.3609,1.3315,1.2908,1.2401,1.1653,1.0916,0.0,0.0,1.0742,1.0869,0.0,1.0742,1.082,0.0,0.0,0.0,0.9692,0.0,0.0,0.0,1.0035,1.0517,0.9517,0.9309,0.0,0.0,0.0,0.0,0.0,0.0,0.0,0.0,0.0,0.0,0.0,0.0,0.0,0.0,0.8804,0.8804,0.8804,0.8804,0.8804,0.8804,0.8804,0.8804,0.8804,0.8804,0.8804,0.8804,0.8924,0.9245,0.9715,0.9833,1.0164,1.0593,1.0593,1.0593,1.0626,1.1176,1.1389,1.147,1.2555,1.3948,1.5576,1.7239,1.8751,2.0018,2.0449,2.0605,2.0635,0.0,0.0,0.0,0.0,0.0,0.0,0.0,0.0,0.0,0.0,0.0,0.0,0.0,0.0,0.0,0.0,0.0,0.0,0.0,0.0,0.0,0.0,0.0,0.9547,0.0,0.0,0.0,0.0,0.0,0.0,0.0,0.0,0.0,0.0,0.0,0.0,0.0,0.0,0.0,1.541,0.0,1.4676,1.4947,1.3917,1.3778,1.4035,1.3546,1.2824,1.2042,1.1716,0.0,1.0775,1.1113,1.1177,0.0,0.0,0.0,0.0,0.0,0.0,0.0,0.0,0.0,1.1603,0.0,0.0,0.0,0.9361,0.0,0.0,0.0,0.0,0.0,0.0,0.0,0.0,0.0,0.0,0.0,0.0,0.0,0.0,0.0,0.8804,0.8804,0.8804,0.8804,0.8804,0.8804,0.8804,0.8804,0.8804,0.8804,0.8804,0.8804,0.9071,0.9357,0.9715,0.998,1.0274,1.0593,1.0593,1.0593,1.062,1.1116,1.1342,1.1429,1.1997,1.3043,1.4477,1.65,1.8044,1.9234,2.0005,2.0401,2.0605,1.0812,1.0753,0.0,0.0,0.0,0.0,0.0,0.0,0.0,0.0,0.0,0.0,0.0,0.0,0.0,0.0,0.0,0.0,1.1308,0.0,0.0,0.0,0.0,0.0,1.0828,0.0,0.0,0.0,0.0,0.0,0.0,0.0,0.0,0.0,1.2069,0.0,0.0,0.0,1.5157,0.0,1.5359,1.5542,0.0,1.4947,1.4462,1.4091,1.4009,1.3619,1.3182,0.0,1.308,1.2257,0.0,1.2211,1.1979,0.0,0.0,0.0,0.0,0.0,0.0,0.0,1.0713,0.0,0.0,0.0,1.0686,0.9865,0.0,0.0,0.0,0.0,0.0,0.0,0.0,0.0,0.0,0.0,0.0,0.0,0.0,0.0,0.0,0.0,0.8804,0.8804,0.8804,0.8804,0.8804,0.8804,0.8804,0.8804,0.8804,0.8804,0.8804,0.9071,0.9357,0.9715,0.998,1.0274,1.0593,1.0593,1.0593,1.0613,1.0935,1.1189,1.1415,1.1784,1.2655,1.3865,1.4774,1.6558,1.866,1.903,1.9766,2.0605,1.114,1.1245,0.0,0.0,0.0,0.0,0.0,0.0,0.0,0.0,0.0,0.0,0.0,0.0,0.0,0.0,0.0,1.2604,0.0,0.0,0.0,0.0,0.0,0.0,0.0,0.0,0.0,0.0,0.9846,0.0,0.0,0.0,0.0,0.0,1.3421,0.0,1.5772,0.0,1.609,0.0,0.0,0.0,0.0,1.489,1.4079,1.3609,1.3972,1.376,1.3371,0.0,1.3628,0.0,0.0,0.0,0.0,0.0,0.0,0.0,0.0,0.0,0.0,0.0,0.0,0.0,1.1078,0.0,1.1592,0.0,0.0,0.0,0.0,0.0,0.0,0.0,0.0,0.0,0.0,0.0,0.0,0.0,0.0,0.0,0.0,0.0,0.0,0.0,0.0,0.8804,0.8804,0.8804,0.8804,0.8804,0.8804,0.8804,0.8804,0.9265,0.9559,0.9722,1.0184,1.0472,1.0593,1.0593,1.0593,1.062,1.1042,1.1316,1.1429,1.1931,1.2447,1.2942,1.3603,1.5621,1.8214,1.881,1.9283,1.9766,1.1078,0.0,0.0,0.0,0.0,0.0,0.0,0.0,0.0,0.0,0.0,0.0,1.4365,1.4345,0.0,0.0,1.3137,1.3024,0.0,0.0,1.3011,1.2646,1.2625,0.0,0.0,0.0,0.0,0.0,0.0,0.0,0.0,0.0,0.0,0.0,0.0,1.5639,1.6353,0.0,0.0,1.6147,1.6981,1.6902,1.6137,1.4972,1.428,1.3942,1.4381,1.428,1.4046,1.4574,1.4417,0.0,1.4408,0.0,0.0,0.0,0.0,0.0,1.1932,0.0,0.0,0.0,0.0,0.0,0.0,0.0,0.0,0.0,0.0,0.0,0.0,0.0,0.0,0.0,0.0,0.0,0.0,0.0,0.0,0.0,0.0,0.0,0.0,0.0,0.0,0.8804,0.8804,0.8804,0.8804,0.8804,0.8804,0.8804,0.8804,0.8844,0.8898,0.9432,0.9726,0.9813,1.0352,1.0593,1.0593,1.0593,1.0633,1.0727,1.1042,1.1323,1.157,1.1917,1.2158,1.2365,1.2973,1.4778,1.7142,1.7825,1.827,1.8647,1.0482,1.117,0.0,0.0,0.0,0.0,0.0,0.0,0.0,0.0,0.0,0.0,0.0,0.0,0.0,0.0,0.0,1.2238,1.3139,0.0,1.3669,1.3193,1.3163,1.3103,0.0,0.0,1.1243,1.136,0.0,0.0,0.0,0.0,0.0,0.0,0.0,1.634,1.6402,1.7913,1.7382,1.5622,1.681,1.6669,1.5718,0.0,1.563,1.5618,1.563,0.0,0.0,1.6241,1.6024,0.0,0.0,0.0,0.0,0.0,0.0,0.0,0.0,0.0,0.0,1.2301,0.0,0.0,0.0,0.0,1.1641,0.0,0.0,0.0,0.0,0.0,0.0,0.0,0.0,0.0,0.0,0.0,0.0,0.0,0.0,0.0,0.0,0.0,0.0,0.8804,0.8804,0.8804,0.8804,0.8804,0.8804,0.8804,0.8804,0.8911,0.9191,0.9532,0.9826,1.0077,1.0445,1.0593,1.0593,1.0593,1.0747,1.0962,1.0734,1.1102,1.1873,1.1563,1.1784,1.2365,1.2973,1.3888,1.4955,1.5579,1.6478,1.7432,0.0,0.0,0.0,0.0,0.0,0.0,0.0,1.3792,0.0,0.0,0.0,0.0,0.0,1.384,1.354,0.0,0.0,1.2668,1.3164,1.3422,0.0,0.0,0.0,1.3466,0.0,0.0,1.2113,1.1664,1.2652,0.0,0.0,0.0,0.0,0.0,0.0,1.6855,0.0,0.0,0.0,0.0,0.0,1.6545,1.6158,0.0,0.0,1.5223,1.5567,1.5693,0.0,1.6333,1.6358,1.6129,1.5732,1.5186,1.4583,1.398,1.3529,0.0,0.0,0.0,1.2866,1.2695,0.0,0.0,0.0,0.0,0.0,0.0,0.0,0.0,0.0,0.0,0.0,0.0,0.0,0.0,0.0,0.0,0.0,0.0,0.0,0.0,0.0,0.0,0.0,0.8804,0.8804,0.8804,0.0,0.8804,0.8804,0.8804,0.8964,0.9111,0.9211,0.9697,1.002,1.009,1.0452,1.0593,1.0593,1.0593,1.0754,1.0995,1.1096,1.141,1.1913,1.1971,1.2238,1.2677,1.3046,1.3519,1.4126,1.5293,1.6039,1.6599,1.135,0.0,0.0,0.0,0.0,0.0,0.0,0.0,0.0,0.0,1.441,0.0,1.3842,0.0,1.3361,0.0,1.2951,1.3186,1.4073,1.4039,0.0,1.4598,1.4327,0.0,0.0,0.0,1.2821,1.2549,0.0,1.3687,0.0,0.0,0.0,0.0,0.0,1.7325,1.7203,0.0,1.8303,0.0,0.0,1.65,0.0,0.0,1.5475,1.5505,0.0,1.5982,1.6045,1.6375,1.65,1.6423,1.6051,1.5644,1.522,1.4618,1.4014,1.3501,1.3286,1.3055,0.0,0.0,1.2905,0.0,1.2905,0.0,0.0,0.0,0.0,0.0,0.0,0.0,0.0,0.0,0.0,0.0,0.0,0.0,0.0,0.0,0.0,0.0,0.0,0.0,0.8804,0.8804,0.8804,0.8804,0.0,0.0,0.8804,0.8804,0.9058,0.9264,0.9364,0.9844,1.0167,1.0274,1.0499,1.0593,1.0593,1.07,1.0875,1.1156,1.1309,1.165,1.2067,1.2118,1.2422,1.2817,1.3093,1.3347,1.3715,1.4739,1.5361,1.5842,0.0,0.0,0.0,0.0,1.3116,0.0,0.0,0.0,1.4282,0.0,1.4169,1.3737,1.3692,1.3163,1.3059,1.3692,1.3208,1.3685,1.5619,1.527,0.0,0.0,1.512,1.4361,1.3803,0.0,0.0,0.0,0.0,0.0,0.0,0.0,0.0,0.0,1.7402,0.0,1.7296,1.8994,1.8713,1.7101,1.669,1.6522,1.65,1.65,0.0,1.65,1.65,1.65,1.65,1.65,1.65,1.6488,1.6466,1.6457,1.6324,1.571,1.5096,1.4514,1.3909,1.3334,1.2905,1.2905,0.0,0.0,0.0,0.0,1.2691,0.0,0.0,0.0,0.0,0.0,0.0,0.0,0.0,0.0,0.0,0.0,0.0,0.0,0.0,0.0,0.0,0.8804,0.8804,0.8804,0.8804,0.8804,0.0,0.0,0.0,0.8831,0.9098,0.9391,0.9729,0.9993,1.0281,1.0593,1.0593,1.06,1.0626,1.0868,1.1162,1.1415,1.1415,1.177,1.2278,1.206,1.2288,1.2837,1.3113,1.3407,1.366,1.4015,1.4526,1.5183,1.1668,1.2187,1.2799,0.0,1.3931,1.443,0.0,0.0,0.0,0.0,1.3478,1.2879,1.2373,1.2594,1.2876,1.3044,1.3361,0.0,0.0,0.0,0.0,1.5349,1.4874,1.4361,1.3803,1.3714,0.0,1.3904,0.0,0.0,1.5387,0.0,0.0,0.0,0.0,0.0,1.8498,1.9332,1.8975,1.7807,1.7287,1.6858,0.0,0.0,1.65,1.65,1.65,1.65,1.65,1.65,1.65,1.6423,1.5974,1.582,1.561,1.4572,1.4156,1.3897,1.3286,1.3017,1.2905,1.2905,1.2905,1.2905,0.0,0.0,0.0,0.0,0.0,0.0,0.0,0.0,0.0,0.0,0.0,0.0,0.0,0.0,0.0,0.0,0.0,0.0,0.0,0.8804,0.8804,0.8804,0.8804,0.8804,0.0,0.0,0.0,0.9098,0.9597,0.9897,1.0007,1.0301,1.0519,1.0593,1.0593,1.0707,1.0882,1.0962,1.1276,1.1757,1.1757,1.1964,1.2311,1.2496,1.2784,1.312,1.3373,1.3673,1.4035,1.4549,1.4881,1.5127,1.2746,0.0,0.0,1.4079,0.0,0.0,1.4629,0.0,0.0,1.4318,1.3645,0.0,1.3121,1.2924,1.3041,1.3613,1.4032,0.0,1.5561,0.0,0.0,1.5798,1.518,1.459,1.4128,1.3937,0.0,1.4337,0.0,0.0,1.5996,0.0,0.0,0.0,0.0,1.8893,1.8893,1.8968,1.865,1.8027,1.725,0.0,0.0,1.65,1.65,1.65,1.65,1.65,1.65,1.65,1.65,1.6445,1.6095,1.5986,1.5798,1.4858,1.4388,1.405,1.3467,1.3104,1.2905,1.2905,1.2905,1.2905,1.2905,1.2905,1.2905,0.0,0.0,0.0,0.0,0.0,0.0,0.0,0.0,0.0,0.0,0.0,0.0,0.0,0.0,0.0,0.0,0.8804,0.8804,0.8804,0.8898,0.8911,0.0,0.0,0.0,0.9211,0.9933,1.0247,1.0083,1.0668,1.0847,1.0593,1.072,1.0835,1.1002,1.1256,1.1591,1.1913,1.2004,1.2151,1.2325,1.2663,1.2965,1.3253,1.3674,1.3941,1.4142,1.4603,1.485,1.5075,1.4085,0.0,0.0,0.0,0.0,0.0,0.0,1.4828,0.0,1.4616,0.0,1.3795,1.4453,1.3568,1.3445,1.4691,0.0,1.5411,1.6517,1.6084,1.6039,1.6562,1.5636,1.4907,1.4517,1.4119,0.0,0.0,0.0,0.0,1.6522,0.0,0.0,0.0,0.0,0.0,0.0,1.8302,1.8066,0.0,1.6972,1.6552,1.65,1.65,1.65,1.65,1.65,1.65,1.65,1.65,1.65,1.65,1.65,1.6457,1.6259,1.5654,1.505,1.4445,1.3849,1.331,1.2905,1.2905,1.2905,1.2905,1.2905,1.2905,1.2905,1.2905,1.2905,0.0,0.0,0.0,0.0,0.0,0.0,0.0,0.0,0.0,0.0,0.0,0.0,0.0,0.0,0.0,0.8804,0.8804,0.9011,0.9044,0.0,0.0,0.0,0.0,1.012,0.0,1.0256,0.0,1.1189,1.0767,1.0949,1.1069,1.1122,1.1672,1.1926,1.198,1.2191,1.2325,1.2385,1.2717,1.3052,1.3373,1.3888,1.4088,1.4122,1.4409,1.471,1.5055,0.0,0.0,0.0,0.0,0.0,1.4494,1.3946,1.3548,1.328,1.3175,1.2579,1.2415,1.3074,1.3421,1.3944,1.4736,1.5319,0.0,0.0,0.0,0.0,1.5949,1.5402,1.4907,1.4517,1.4542,1.4655,0.0,1.5337,1.5865,0.0,0.0,0.0,0.0,0.0,0.0,1.8243,1.8145,0.0,1.7435,1.7229,1.69,1.65,1.65,1.65,1.65,1.65,1.65,1.65,1.65,1.65,1.65,1.65,1.6173,1.5632,1.5028,1.4422,1.3826,1.3214,1.2968,1.2905,1.2905,1.2905,1.2905,1.2905,1.2905,1.2905,1.2905,1.2905,1.2905,1.2905,0.0,0.0,0.0,0.0,0.0,0.0,0.0,0.0,0.0,0.0,0.0,0.0,0.0,0.0,0.0,0.8851,0.8864,0.0,0.0,0.0,0.0,0.0,0.0,0.0,0.0,0.0,1.1672,1.1443,1.1476,1.1752,1.1859,1.2033,1.2231,1.2278,1.2445,1.273,1.2999,1.3447,1.3941,1.4048,1.4088,1.4122,1.4409,1.471,1.5055,0.0,0.0,0.0,0.0,0.0,0.0,0.0,1.3675,0.0,1.3792,1.3568,1.3735,1.4709,1.4515,1.4588,1.526,1.5619,1.5799,1.5799,1.5799,1.5799,1.5799,1.527,0.0,1.4517,1.4366,1.4496,1.4896,1.516,1.5693,0.0,0.0,0.0,0.0,0.0,1.8516,0.0,0.0,0.0,1.7666,1.7118,1.6731,1.65,1.65,1.65,1.65,1.65,1.65,1.65,1.65,1.65,1.65,1.65,1.6303,1.5898,1.4971,1.4491,1.4061,1.3162,1.2905,1.2905,1.2905,1.2905,1.2905,1.2905,1.2905,1.2905,1.2905,1.2905,1.2905,1.2905,1.2295,0.0,0.0,0.0,0.0,0.0,0.0,0.0,0.0,0.0,0.0,0.0,0.0,0.0,0.0,0.0,0.0,0.0,0.0,0.0,0.0,0.0,0.0,0.0,0.0,0.0,1.1637,1.165,1.173,1.1906,1.2024,1.2171,1.2311,1.2465,1.265,1.2817,1.3247,1.3694,1.4088,1.4088,1.4182,1.4329,1.4469,1.4803,1.5211,0.0,1.6477,0.0,0.0,1.5743,0.0,1.4599,1.3867,1.3618,1.4348,1.4528,1.5008,1.6174,1.5397,1.5065,1.5739,1.5799,1.5799,1.5799,1.5799,1.5799,1.5799,1.5344,1.4907,1.4517,1.4181,1.4315,0.0,1.4896,1.5462,0.0,0.0,0.0,0.0,0.0,0.0,0.0,0.0,1.7927,1.7847,1.69,1.65,1.65,1.65,1.65,1.65,1.65,1.65,1.65,1.65,1.65,1.65,1.65,1.6402,1.6107,1.5017,1.4606,1.4271,1.3176,1.2905,1.2905,1.2905,1.2905,1.2905,1.2905,1.2905,1.2905,1.2905,1.2905,1.2905,1.2905,1.2427,0.0,0.0,0.0,0.0,0.0,0.0,0.0,0.0,0.0,0.0,0.0,0.0,0.0,0.0,0.0,0.9044,0.8884,0.9151,0.0,0.0,0.0,0.0,1.1269,0.0,1.2104,0.0,1.1877,1.2027,1.21,1.2291,1.2432,1.2512,1.2784,1.2918,1.3018,1.3514,1.3874,1.4095,1.4155,1.4315,1.4536,1.4656,1.4997,1.5404,0.0,0.0,0.0,0.0,0.0,0.0,0.0,1.3074,1.2299,1.3151,1.3618,1.4169,1.4887,1.4871,1.5065,1.5739,1.5799,1.5799,1.5799,1.5799,1.5799,1.5799,1.5755,1.5329,1.4517,1.4454,1.4593,0.0,0.0,1.5462,0.0,0.0,0.0,0.0,0.0,0.0,0.0,1.7605,1.7374,1.7333,1.6731,1.65,1.65,1.65,1.65,1.65,1.65,1.65,1.65,1.65,1.65,1.65,1.65,1.6117,1.5543,1.4903,1.4306,1.3732,1.3079,1.2905,1.2905,1.2905,1.2905,1.2905,1.2905,1.2905,1.2905,1.2905,1.2905,1.2905,1.2905,1.2847,1.2798,0.0,0.0,0.0,0.0,0.0,0.0,0.0,0.0,0.0,0.0,0.0,0.0,0.0,0.0,0.8924,0.9158,0.9479,0.993,1.0492,0.0,1.1643,1.2171,1.2265,0.0,1.2656,1.2378,1.2405,1.2703,1.273,1.2898,1.3126,1.316,1.3313,1.354,1.3908,1.4062,1.4115,1.4376,1.4496,1.4583,1.5117,1.5351,1.5431,0.0,0.0,0.0,0.0,0.0,0.0,0.0,1.4674,1.4332,1.4676,1.4393,1.4483,1.5305,1.5395,1.5514,1.5784,1.5799,1.5799,1.5799,1.5799,1.5799,1.5799,1.5448,1.5028,1.4517,1.4262,1.423,0.0,0.0,1.5286,1.6032,0.0,0.0,0.0,0.0,1.8233,1.8086,1.7867,1.7585,1.725,1.671,1.65,1.65,1.65,1.65,1.65,1.65,1.65,1.65,1.65,1.65,1.65,1.65,1.6324,1.603,1.541,1.4801,1.4213,1.36,1.3176,1.2905,1.2905,1.2905,1.2905,1.2905,1.2905,1.2905,1.2905,1.2905,1.2905,1.2905,1.2905,1.2905,0.0,0.0,0.0,0.0,0.0,0.0,0.0,0.0,0.0,0.0,0.0,0.0,0.0,0.0,0.9091,0.9204,0.9519,0.9983,1.0573,0.0,1.145,1.2037,1.2218,1.2365,1.2516,1.2576,1.267,1.279,1.2978,1.3186,1.344,1.3661,1.3901,1.4153,1.4489,1.466,1.4666,1.4743,1.4897,1.5077,1.5311,1.5504,1.5671,1.7365,0.0,1.6246,0.0,1.713,1.6847,1.5948,1.5799,1.5799,1.5799,1.523,1.5065,1.5724,1.5799,1.5799,1.5799,1.5799,1.5799,1.5799,1.5799,1.5799,1.5799,1.5389,0.0,1.4517,1.4214,1.417,1.4343,1.4872,0.0,0.0,0.0,0.0,0.0,1.8194,1.8302,1.8554,1.84,1.8027,1.7483,1.6951,1.6637,1.65,1.65,1.65,1.65,1.65,1.65,1.65,1.65,1.65,1.65,1.65,1.65,1.638,1.5776,1.5163,1.456,1.3956,1.3348,1.2905,1.2905,1.2905,1.2905,1.2905,1.2905,1.2905,1.2905,1.2905,1.2905,1.2905,1.2905,1.2905,0.0,0.0,0.0,0.0,0.0,0.0,0.0,1.0249,0.9549,0.8965,0.0,0.0,0.0,0.0,0.0,0.9597,0.9746,0.0,0.0,0.0,0.0,0.0,0.0,1.2432,1.2438,1.2777,1.2965,1.3058,1.3327,1.3627,1.3873,1.4122,1.4382,1.4669,1.4877,1.5008,1.5015,1.5102,1.5217,1.5404,1.5491,1.5651,1.5784,1.6175,1.5949,1.5814,1.5829,1.5829,1.5829,1.5799,1.5799,1.5799,1.5799,1.5784,1.5784,1.5799,1.5799,1.5799,1.5799,1.5799,1.5799,1.5799,1.5799,1.5799,0.0,0.0,1.5389,1.4517,1.4501,1.4627,1.4884,0.0,0.0,1.7286,0.0,1.8251,1.8883,1.8744,1.9061,1.9639,1.9132,1.8574,1.8046,1.7504,1.6972,1.65,1.65,1.65,1.65,1.65,1.65,1.65,1.65,1.65,1.65,1.65,1.65,1.638,1.5776,1.5163,1.456,1.3956,1.3348,1.2905,1.2905,1.2905,1.2905,1.2905,1.2905,1.2905,1.2905,1.2905,1.2905,1.2905,1.2905,1.2905,1.2905,0.0,0.0,0.0,0.0,0.0,0.0,1.0347,0.9552,0.9237,0.0,0.0,0.0,0.0,0.0,0.0,0.0,0.0,1.1355,1.1703,0.0,1.2291,1.263,1.2777,1.2784,1.306,1.3313,1.36,1.3941,1.4235,1.4509,1.4466,1.4683,1.5001,1.5008,1.5008,1.5035,1.5284,1.5391,1.5431,1.5718,1.5778,1.5784,1.5906,1.5847,1.5799,1.5799,1.5799,1.5799,1.5799,1.6578,1.6837,1.5912,1.5799,1.5799,1.5799,1.5799,1.5799,0.0,1.5799,1.5799,0.0,1.5799,1.5799,1.5799,1.6189,1.6155,1.5609,1.6039,1.6182,1.5992,0.0,0.0,0.0,1.7843,1.8452,1.9413,1.8917,1.8871,1.9151,1.8968,1.8593,1.8046,1.7524,1.7188,1.7013,1.6637,1.65,1.65,1.65,1.65,1.65,1.65,1.65,1.65,1.65,1.65,1.638,1.5776,1.5163,1.456,1.3956,1.3348,1.2905,1.2905,1.2905,1.2905,1.2905,1.2905,1.2905,1.2905,1.2905,1.2905,1.2905,1.2905,1.2905,1.2905,0.0,0.0,0.0,0.0,0.0,0.0,0.9855,0.9045,0.0,0.9184,0.0,0.0,0.0,0.0,0.0,0.0,0.0,0.0,1.1904,0.0,1.2643,1.2945,1.3066,1.3066,1.332,1.362,1.3955,1.4249,1.4436,1.4543,1.4943,1.517,1.5277,1.5471,1.5558,1.5565,1.5658,1.5691,1.5705,1.5751,1.5784,1.5784,1.5799,1.5799,1.5799,1.5799,1.5799,1.5799,1.5799,1.6512,1.676,1.5912,1.6025,1.6081,1.5827,1.5925,0.0,1.5813,1.5799,1.5799,1.5799,1.5799,1.6009,1.6503,1.6742,1.6734,1.6479,0.0,0.0,1.6804,1.7118,1.7715,1.8571,1.8323,1.8732,1.9678,1.9001,1.8889,1.9207,1.9207,1.8893,1.838,1.8046,1.7787,1.7544,1.6993,1.6795,1.6774,1.6573,1.65,1.65,1.65,1.65,1.65,1.65,1.65,1.6423,1.6051,1.5511,1.4926,1.4306,1.3695,1.3176,1.2954,1.2905,1.2905,1.2905,1.2905,1.2905,1.2905,1.2905,1.2905,1.2905,1.2905,1.2905,1.2905,0.0,1.2905,1.2905,0.0,0.0,0.0,0.0,0.0,0.0,0.9411,0.0,0.0,0.0,0.0,0.0,0.0,0.0,1.1583,1.2051,0.0,1.2958,1.322,1.3333,1.3333,1.3633,1.3961,1.4255,1.4436,1.4643,1.487,1.5237,1.5458,1.5571,1.5752,1.5784,1.5784,1.5784,1.5784,1.5784,1.5784,1.5784,1.5784,1.5799,1.5799,0.0,0.0,1.5799,0.0,1.5799,1.5799,1.5799,1.5799,1.638,1.6541,1.587,1.6145,1.6241,1.5827,0.0,0.0,0.0,1.5799,1.6368,1.7654,1.7341,0.0,1.7214,1.7258,1.7322,1.7399,1.8445,1.9192,1.9618,1.9031,1.9091,1.9678,1.9046,1.9106,1.9708,1.9708,1.9406,1.8949,1.8912,1.8593,1.8106,1.7565,1.7333,1.7229,1.6731,1.6543,1.65,1.65,1.65,1.65,1.65,1.65,1.65,1.6445,1.603,1.5477,1.4858,1.426,1.3661,1.3104,1.2929,1.2905,1.2905,1.2905,1.2905,1.2905,1.2905,1.2905,1.2905,1.2905,1.2905,1.2905,1.2905,1.2905,1.2905,0.0,0.0,0.0,0.0,0.0,0.0,1.0033,1.0194,0.0,0.0,0.0,0.0,0.0,1.1356,1.1919,1.2225,1.2665,1.3233,1.3487,1.3633,1.3633,1.3975,1.4262,1.4522,1.4519,1.4877,1.5398,1.5418,1.5578,1.5784,1.5784,1.5784,1.5784,1.5784,1.5784,1.5784,1.5784,1.5784,1.5784,0.0,0.0,1.5799,1.5799,1.5799,1.5799,1.5799,1.5799,1.5799,1.5799,1.638,1.6541,1.587,1.6122,1.6176,1.5842,1.5799,1.5799,1.5799,1.5799,1.6368,1.7654,1.7609,1.78,1.8312,1.882,1.8838,1.8361,1.9149,1.9298,1.8942,1.9286,1.9558,1.9693,1.9525,1.9558,1.9708,1.9708,1.9621,1.946,1.9062,1.8817,1.865,1.8125,1.7666,1.7271,1.7146,1.6858,1.65,1.65,1.65,1.65,1.65,1.65,1.6402,1.5964,1.5698,1.5477,1.4858,1.426,1.3779,1.3613,1.3238,1.2905,1.2905,1.2905,1.2905,1.2905,1.2905,1.2905,1.2905,1.2905,1.2905,1.2905,1.2905,1.2905,1.2905,1.1692,0.0,0.0,1.0354,0.9659,0.9586,0.9967,1.0227,0.0,0.0,0.0,0.0,0.0,1.2328,1.2204,1.2894,1.3353,1.35,1.3834,1.3981,1.3988,1.4275,1.4456,1.4536,1.4983,1.5264,1.5404,1.5631,1.5718,1.5784,1.5784,1.5784,1.5784,1.5784,1.5784,1.5784,1.5784,1.5784,1.5784,1.5799,1.5799,1.5799,1.5799,1.5799,1.6011,1.6617,1.619,1.5799,1.5799,1.6123,1.6328,1.626,1.6311,1.6188,1.5842,1.5799,1.5799,1.5799,1.5799,1.6577,1.8312,1.8146,1.8459,1.9417,1.962,1.9602,1.9417,1.9797,1.9782,1.9432,1.9797,1.9874,1.9708,1.9708,1.9708,1.9708,1.9708,1.9708,1.9672,1.9387,1.9262,1.9207,1.8669,1.8283,1.8007,1.7747,1.7333,1.6879,1.6879,1.6689,1.65,1.65,1.65,1.6445,1.6117,1.6008,1.5886,1.5287,1.4869,1.4503,1.3933,1.3348,1.2905,1.2905,1.2905,1.2964,1.315,1.3164,1.3232,1.3418,1.3301,1.3164,1.3164,1.3032,1.2905,1.2905,1.1818,0.0,1.2031,1.0928,1.0285,1.0721,1.0705,1.0728,1.0787,0.0,0.0,1.1817,1.2672,1.2953,1.2556,1.3247,1.3666,1.3841,1.4008,1.4155,1.4282,1.4442,1.4663,1.493,1.5251,1.5471,1.5605,1.5758,1.5784,1.5784,1.5784,1.5784,1.5784,1.5784,1.5784,1.5784,1.5784,1.5784,1.5784,1.5799,1.5799,1.5799,1.5799,1.5969,1.6501,1.7635,1.6821,1.6108,1.6108,1.5926,1.6025,1.6581,1.6625,1.6387,1.5841,1.587,1.5898,1.5898,1.6019,1.7071,1.9215,1.8819,1.9098,2.0282,1.9965,1.9982,2.0416,2.0331,2.0297,2.0297,2.0229,2.0035,1.9708,1.9708,1.9708,1.9708,1.9708,1.9708,1.9708,1.9708,1.9708,1.9639,1.9188,1.8968,1.8836,1.8302,1.7807,1.7415,1.7229,1.693,1.6616,1.6543,1.65,1.65,1.65,1.65,1.6402,1.5886,1.5676,1.5309,1.4086,1.342,1.3017,1.2929,1.2954,1.3101,1.3437,1.3555,1.3685,1.4036,1.3763,1.3545,1.3682,1.3291,1.3042,1.3179,0.0,1.2079,1.313,1.2009,1.1463,1.2258,1.1954,1.1608,1.1404,1.1948,0.0,0.0,1.3167,1.3427,1.3005,1.3447,1.3813,1.4148,1.4155,1.4295,1.4589,1.4629,1.4917,1.5398,1.5444,1.5591,1.5784,1.5784,1.5784,1.5784,1.5784,1.5784,1.5784,1.5784,1.5784,1.5784,1.5784,1.5784,1.5784,1.5799,1.5799,1.5799,1.5799,1.6747,1.7566,1.7777,1.7624,1.7491,1.7491,1.6499,1.5842,1.5941,1.6923,1.7097,1.5898,1.6119,1.632,1.632,1.7054,1.8191,1.9709,1.9437,1.9567,2.0282,2.0229,2.0433,2.0894,2.05,2.0297,2.0297,1.9947,1.9764,1.9708,1.9708,1.9708,1.9708,1.9708,1.9708,1.9708,1.9708,1.9708,1.969,1.9603,1.9281,1.8836,1.8302,1.8046,1.7847,1.693,1.6879,1.7097,1.6637,1.65,1.65,1.65,1.65,1.6466,1.638,1.5986,1.5309,1.4086,1.3732,1.3529,1.3017,1.3154,1.3428,1.3496,1.3763,1.4026,1.4094,1.3763,1.374,1.4473,1.3926,1.3662,0.0,0.0,1.3562,1.3979,1.3848,1.3786,1.3949,1.3361,1.3072,1.3285,1.2656,1.2525,1.3046,1.3393,1.3673,1.3874,1.3968,1.4162,1.4449,1.4449,1.4603,1.4941,1.5144,1.5311,1.5404,1.5651,1.5738,1.5784,1.5784,1.5784,1.5784,1.5784,1.5784,1.5784,1.5784,1.5784,1.5784,1.5784,1.5784,1.5784,1.5799,1.5799,1.6039,1.676,1.7396,1.78,1.78,1.78,1.78,1.78,1.663,1.5799,1.5799,1.6353,1.6757,1.6876,1.6821,1.678,1.678,1.7441,1.8393,1.9637,1.9709,2.002,2.065,2.0682,2.0878,2.1322,2.1118,2.0894,2.0666,2.0482,2.0154,1.9708,1.9708,1.9708,1.9708,1.9708,1.9498,1.9181,1.9558,1.9465,1.9196,1.9573,1.9548,1.9262,1.8708,1.8535,1.838,1.7291,1.7097,1.7209,1.668,1.65,1.65,1.65,1.65,1.65,1.65,1.6051,1.5477,1.4903,1.4272,1.3794,1.3716,1.3601,1.3643,1.4102,1.4355,1.4551,1.4747,1.4473,1.4394,1.5019,1.4404,0.0,0.0,1.4475,1.4414,1.5416,1.5156,1.5155,1.5817,1.5314,1.5011,1.5133,1.4902,1.4881,1.516,1.5675,1.5821,1.5469,1.4897,1.4549,1.4522,1.4676,1.4903,1.5197,1.5331,1.5478,1.5631,1.5718,1.5784,1.5784,1.5784,1.5784,1.5784,1.5784,1.5784,1.5784,1.5784,1.5784,1.5784,1.5784,1.5784,1.5784,1.5799,1.6038,1.6591,1.7624,1.78,1.78,1.78,1.78,1.78,1.78,1.6914,1.6258,1.6258,1.6258,1.6683,1.7704,1.7479,1.726,1.726,1.7967,1.8755,1.9585,2.0111,2.0617,2.1134,2.1134,2.1337,2.1764,2.1568,2.1291,2.1007,2.078,2.0396,1.9854,1.9729,1.9671,1.9642,1.9669,1.9211,1.8553,1.9378,1.9286,1.8777,1.9435,1.9708,1.9621,1.9095,1.8987,1.8893,1.7706,1.7394,1.7374,1.671,1.65,1.65,1.65,1.65,1.65,1.65,1.6173,1.58,1.5787,1.497,1.4233,1.4528,1.419,1.4014,1.4775,1.5038,1.5244,1.5644,1.5371,1.5283,1.5781,0.0,0.0,0.0,1.548,1.5607,1.6983,1.6638,1.6688,1.7587,1.7125,1.6754,1.6847,1.6887,1.6965,1.714,1.7697,1.7538,1.6556,1.5596,1.4957,1.4723,1.495,1.5211,1.5498,1.5498,1.5611,1.5784,1.5784,1.5784,1.5784,1.5784,1.5784,1.5784,1.5784,1.5784,1.5784,1.5784,1.5784,1.5784,1.5784,1.5784,1.5784,1.5799,1.6799,1.7681,1.7789,1.78,1.78,1.78,1.78,1.78,1.78,1.7704,1.7658,1.7658,1.7658,1.7681,1.7789,1.7777,1.7755,1.7755,1.9058,1.9883,1.9959,2.0934,2.1502,2.1552,2.1568,2.1779,2.2254,2.1447,2.1039,2.0975,2.0174,1.9962,2.0229,1.9874,1.9609,1.9429,1.9615,1.8957,1.7893,1.9166,1.9286,1.8777,1.9435,1.9708,1.9621,1.9095,1.9225,1.9406,1.7827,1.7626,1.7867,1.6837,1.65,1.65,1.65,1.65,1.65,1.65,1.6466,1.6427,1.6355,1.5763,1.5178,1.5154,1.4905,1.4814,1.5273,1.5684,1.6134,1.6521,1.6269,1.6281,1.7132,0.0,0.0,1.7637,1.7745,1.7886,1.8412,1.8799,1.9054,1.9129,1.8322,1.7882,1.8127,1.7389,1.7189,1.7888,1.7979,1.7467,1.634,1.5687,1.5351,1.5331,1.5351,1.5511,1.5751,1.5751,1.5758,1.5784,1.5784,1.5784,1.5784,1.5784,1.5784,1.5784,1.5784,1.5784,1.5784,1.5784,1.5784,1.5784,1.5784,1.5784,1.5784,1.5799,1.6219,1.6825,1.7658,1.78,1.78,1.78,1.78,1.78,1.78,1.78,1.78,1.78,1.78,1.78,1.78,1.78,1.8065,1.8685,1.9524,2.0424,2.1383,2.1818,2.2032,2.2032,2.1749,2.1688,2.1869,2.1538,2.1244,2.0991,2.0649,2.0431,2.028,1.9874,1.9665,1.9596,1.9674,1.9166,1.8386,1.9333,1.9286,1.8777,1.9435,1.9708,1.9621,1.9095,1.9024,1.9006,1.7727,1.7442,1.7463,1.6731,1.65,1.6563,1.6948,1.7049,1.7124,1.7476,1.7027,1.6473,1.637,1.5808,1.5334,1.5484,1.5318,1.5293,1.5723,1.6162,1.6533,1.6668,1.6592,1.6768,1.7627,0.0,1.7367,1.8623,1.8574,1.8529,1.8984,1.9414,1.9678,1.9678,1.961,1.9706,2.0055,1.9748,1.9829,2.0412,1.9936,1.9592,1.9424,1.7713,1.631,1.5176,1.5484,1.5718,1.5784,1.5784,1.5784,1.5784,1.5784,1.5784,1.5784,1.5784,1.5784,1.5784,1.5784,1.5784,1.5784,1.5784,1.5784,1.592,1.6669,1.648,1.592,1.5799,1.5799,1.6523,1.8809,1.8425,1.78,1.78,1.78,1.78,1.78,1.78,1.78,1.78,1.78,1.78,1.78,1.78,1.8234,1.9239,1.9976,2.0891,2.2025,2.2223,2.2166,2.1901,2.1705,2.1536,2.1414,2.1259,2.1055,2.078,2.0649,2.0499,2.028,1.9874,1.9659,1.9619,1.9671,1.9181,1.8446,1.9346,1.9286,1.8777,1.9435,1.9708,1.9639,1.9281,1.9043,1.8746,1.7867,1.7442,1.7209,1.668,1.65,1.6613,1.7212,1.741,1.7524,1.8053,1.7639,1.6995,1.6836,1.629,1.584,1.6104,1.5892,1.5781,1.6388,1.6719,1.6989,1.7252,1.7301,1.7535,1.8291,1.8174,1.834,1.9346,1.9228,1.9199,1.9639,1.9941,2.0117,2.0117,2.0518,2.0908,2.1171,2.1317,2.1631,2.206,2.1312,2.0959,2.1157,1.8899,1.7055,1.5708,1.5765,1.5784,1.5784,1.5784,1.5784,1.5784,1.5784,1.5784,1.5784,1.5784,1.5784,1.5784,1.5784,1.5784,1.5784,1.5784,1.5784,1.5927,1.6763,1.6574,1.592,1.5799,1.5799,1.7167,2.1546,1.9811,1.7834,1.78,1.78,1.78,1.78,1.78,1.7817,1.7834,1.7817,1.78,1.78,1.78,1.8234,1.9256,2.0496,2.1317,2.1595,2.2046,2.1901,2.1039,2.1384,2.1399,2.0991,2.0533,2.0297,2.0297,1.9892,1.9927,2.028,1.9874,1.9596,1.9415,1.9617,1.8927,1.7833,1.9151,1.9286,1.8777,1.9453,1.9708,1.9708,1.9708,1.935,1.8817,1.8283,1.7747,1.7188,1.668,1.65,1.6635,1.7234,1.741,1.7536,1.8078,1.8229,1.8175,1.7949,1.7338,1.6878,1.7148,1.6638,1.6349,1.7239,1.7425,1.7646,1.8451,1.8607,1.8754,1.9219,1.9287,1.9443,1.9853,1.9922,2.0078,2.0546,2.0605,2.0605,2.0605,2.0977,2.12,2.121,2.165,2.208,2.249,2.1773,2.121,2.0907,1.8817,1.7566,1.7206,1.6273,1.5784,1.5784,1.5784,1.5784,1.5784,1.5784,1.5784,1.5784,1.5784,1.5784,1.5784,1.5784,1.5784,1.5784,1.5784,1.5784,1.5784,1.5832,1.5832,1.5784,1.5799,1.5799,1.7167,2.1546,2.1552,2.0234,1.8121,1.78,1.78,1.78,1.78,1.8611,2.0724,1.9068,1.78,1.78,1.8268,1.9147,2.053,2.1465,2.2001,2.2089,2.224,2.218,2.1915,2.1431,2.1118,2.0991,2.0533,2.0297,2.0297,2.0193,2.0193,2.028,1.9874,1.9659,1.9602,1.9671,1.9465,1.9136,1.9543,1.9588,1.9405,1.9633,1.9708,1.9708,1.9708,1.9114,1.8322,1.8165,1.7483,1.671,1.6552,1.6798,1.7237,1.779,1.8229,1.8744,1.9673,1.995,1.9706,1.8706,1.7867,1.7374,1.7694,1.7377,1.7181,1.7705,1.8057,1.8437,1.8994,1.9092,1.9228,1.9658,1.9727,1.9883,2.0312,2.041,2.0458,2.0586,2.084,2.1035,2.1035,2.1435,2.1816,2.2109,2.2487,2.2779,2.2896,2.2698,2.2161,2.1219,1.9748,1.8899,1.8825,1.6793,1.5784,1.5784,1.5784,1.5784,1.5784,1.5784,1.5784,1.5784,1.5784,1.5784,1.5784,1.5784,1.5784,1.5784,1.5784,1.5784,1.592,1.6803,1.6574,1.592,1.5799,1.6638,1.8158,2.0813,2.184,2.1688,1.9862,1.856,1.8003,1.8594,1.8155,1.8493,2.0318,1.8882,1.78,1.78,1.8729,1.9875,2.1123,2.1887,2.2296,2.2296,2.2296,2.2209,2.2032,2.1354,2.091,2.0715,2.0278,2.0054,2.0054,2.0054,2.0054,2.0037,1.9818,1.9708,1.9708,1.9708,1.9708,1.9708,1.9708,1.9708,1.9708,1.9708,1.9708,1.9708,1.9708,1.9006,1.8106,1.8106,1.7553,1.6861,1.6861,1.725,1.7815,1.8367,1.8744,1.9246,2.039,2.0691,2.0515,1.9797,1.8872,1.8108,1.8019,1.7815,1.7803,1.8389,1.8711,1.9023,1.9453,1.9541,1.9736,2.0303,2.0401,2.0586,2.1065,2.1124,2.1124,2.1124,2.1328,2.1494,2.1494,2.1885,2.2305,2.2734,2.2955,2.3091,2.3091,2.3091,2.2775,2.2031,2.0845,2.0215,2.0215,1.7755,1.6574,1.6574,1.6574,1.6292,1.5784,1.5784,1.5784,1.5784,1.5784,1.5784,1.5784,1.5784,1.5784,1.5784,1.5784,1.5784,1.5872,1.6669,1.648,1.592,1.6098,1.7881,1.9438,1.9663,2.115,2.2296,2.2296,1.9896,1.8527,1.9833,1.8729,1.78,1.78,1.78,1.78,1.78,1.9203,2.042,2.1241,2.1921,2.2296,2.2296,2.2296,2.2106,2.1673,2.126,2.0829,2.0365,1.9947,1.9744,1.9708,1.9708,1.9708,1.9708,1.9708,1.9708,1.9708,1.9708,1.9708,1.9708,1.9708,1.9708,1.9708,1.9708,1.9708,1.9708,1.9708,1.9006,1.8086,1.8042,1.7761,1.741,1.7461,1.784,1.8392,1.8907,1.9108,1.9384,2.0541,2.0826,2.0813,2.0992,2.0129,1.9051,1.8342,1.813,1.8369,1.9228,1.9404,1.9541,2.0,2.0088,2.0352,2.1122,2.1249,2.1385,2.1836,2.1885,2.1885,2.1885,2.1924,2.1943,2.1943,2.2324,2.2734,2.3062,2.3091,2.3091,2.3091,2.3091,2.3047,2.295,2.1845,2.1293,2.1293,1.8993,1.7824,1.7692,1.7598,1.6897,1.5784,1.5784,1.5784,1.5784,1.5784,1.5784,1.5784,1.5784,1.5784,1.5784,1.5784,1.5784,1.5784,1.5784,1.5784,1.5825,1.845,1.7656,1.7282,1.9348,2.115,2.2296,2.2296,2.1092,2.0111,2.0002,1.8729,1.78,1.78,1.78,1.78,1.78,1.9524,2.1042,2.2006,2.2212,2.2296,2.2296,2.2296,2.2237,2.2149,2.1705,2.1275,2.0845,2.0382,2.0017,1.9708,1.9708,1.9708,1.9708,1.9708,1.9708,1.9708,1.9708,1.9708,1.9708,1.9708,1.9708,1.9708,1.9708,1.9708,1.9708,1.9708,1.9006,1.8036,1.7687,1.7486,1.7473,1.789,1.8405,1.892,1.9472,1.9962,2.0578,2.1656,2.1709,2.1436,2.1192,2.0708,2.0136,1.9603,1.9234,1.9258,2.0155,2.0321,2.0566,2.1309,2.1455,2.1523,2.1719,2.1748,2.1777,2.1875,2.1885,2.1885,2.1885,2.2178,2.2373,2.2373,2.2711,2.3003,2.3091,2.3091,2.3091,2.3091,2.3091,2.2677,2.1702,2.1436,2.1293,2.1293,1.9852,1.8634,1.7692,1.6669,1.6062,1.5784,1.5784,1.5784,1.5784,1.5784,1.5784,1.5784,1.5784,1.5784,1.5784,1.5784,1.5784,1.5784,1.5784,1.5784,1.592,1.8779,1.8315,1.809,1.9468,2.0464,2.1197,2.1631,2.1582,2.14,2.113,1.9794,1.8577,1.7884,1.78,1.8087,1.8797,2.0162,2.1363,2.2229,2.2296,2.2296,2.2296,2.2296,2.2296,2.2296,2.2046,2.172,2.1291,2.0617,2.0177,1.9982,1.9782,1.9708,1.9708,1.9708,1.9708,1.9708,1.9708,1.9708,1.9708,1.9708,1.9708,1.9708,1.9708,1.9708,1.9708,1.9708,1.9189,1.8406,1.7944,1.7944,1.8216,1.8481,1.8945,1.9447,1.9723,2.0239,2.088,2.1694,2.1806,2.1722,2.1883,2.1412,2.072,2.0063,1.9902,2.0088,2.0742,2.1045,2.1378,2.1797,2.1885,2.1953,2.2158,2.2187,2.2256,2.2461,2.248,2.248,2.248,2.2676,2.2812,2.2812,2.2964,2.3091,2.3091,2.3091,2.3091,2.3091,2.3091,2.2818,2.2173,2.2173,2.1889,2.1293,2.0079,1.9177,1.8542,1.7894,1.7257,1.6716,1.7304,1.6929,1.5832,1.6433,1.6339,1.5784,1.5784,1.5784,1.5784,1.5784,1.5784,1.5784,1.5784,1.6204,1.6803,1.8555,1.9199,1.9708,1.9708,1.9797,2.012,2.0878,2.1645,2.218,2.2282,2.1197,1.993,1.8696,1.8104,1.8493,2.0238,2.1008,2.1647,2.2245,2.2296,2.2296,2.2296,2.2296,2.2296,2.2296,2.2296,2.2077,2.1597,2.0813,2.0382,2.0297,1.9892,1.9708,1.9708,1.9708,1.9708,1.9708,1.9708,1.9708,1.9708,1.9708,1.9708,1.9708,1.9708,1.9708,1.9708,1.9708,1.9354,1.883,1.8467,1.8634,1.9033,1.9221,1.961,1.9987,2.0175,2.0577,2.1091,2.1549,2.1705,2.1888,2.243,2.1881,2.1022,2.0377,2.0478,2.083,2.1307,2.1738,2.2012,2.209,2.21,2.2217,2.2568,2.2617,2.2744,2.3042,2.3091,2.3091,2.3091,2.3091,2.3091,2.3091,2.3091,2.3091,2.3091,2.3091,2.3091,2.3091,2.3091,2.3091,2.3091,2.3091,2.253,2.1401,2.0408,1.9941,2.0,1.9941,1.9242,1.8048,1.9039,1.8257,1.6204,1.7225,1.699,1.5784,1.5784,1.5784,1.5784,1.5784,1.5784,1.5832,1.6062,1.703,1.8319,1.9513,1.9618,1.9708,1.9708,2.0137,2.0614,2.0958,2.1307,2.1705,2.2223,2.211,2.1907,2.1705,1.9355,1.8932,2.1738,2.2076,2.2178,2.2296,2.2296,2.2296,2.2296,2.2296,2.2296,2.2296,2.2296,2.2077,2.1597,2.1134,2.0715,2.0297,1.9892,1.9708,1.9708,1.9708,1.9708,1.9708,1.9708,1.9708,1.9708,1.9708,1.9708,1.9708,1.9708,1.9708,1.9708,1.9708,1.9354,1.8898,1.8888,1.8933,1.9171,2.015,2.0515,2.0767,2.1694,2.2033,2.2122,2.2318,2.2126,2.1897,2.1985,2.1612,2.1272,2.1574,2.1367,2.1327,2.2178,2.2383,2.2539,2.2857,2.2925,2.2945,2.3003,2.3013,2.3033,2.3091,2.3091,2.3091,2.3091,2.3091,2.3091,2.3091,2.3091,2.3091,2.3091,2.3091,2.3091,2.3091,2.3091,2.3091,2.3091,2.3091,2.2682,2.1751,2.1714,2.1783,2.2011,2.1774,2.0833,1.9268,1.9451,1.8772,1.7451,1.7645,1.699,1.5784,1.5784,1.5784,1.5784,1.5784,1.5784,1.592,1.7037,1.8856,2.08,1.9708,1.9708,1.9708,1.9708,1.9925,2.0137,2.026,2.1197,2.2003,2.2268,2.2296,2.2296,2.2296,2.1113,2.0842,2.2178,2.2296,2.2296,2.2296,2.2296,2.2296,2.2296,2.2296,2.2296,2.2296,2.2296,2.2077,2.1597,2.1197,2.0764,2.0297,1.9892,1.9708,1.9708,1.9708,1.9708,1.9708,1.9708,1.9708,1.9708,1.9708,1.9708,1.9708,1.9708,1.9708,1.9698,1.9692,1.9555,1.941,1.9449,1.9666,2.0024,2.0541,2.0905,2.1245,2.1707,2.2284,2.2755,2.2819,2.2612,2.27,2.4104,2.2815,2.1679,2.3532,2.291,2.2051,2.2432,2.2705,2.2877,2.3062,2.3091,2.3091,2.3091,2.3091,2.3091,2.3091,2.3091,2.3091,2.3091,2.3091,2.3091,2.3091,2.3091,2.3091,2.3091,2.3091,2.3091,2.3091,2.3091,2.3208,2.3496,2.3218,2.2447,2.1144,2.1468,2.1557,2.1393,2.1835,2.1712,2.1276,2.1707,2.0559,1.8311,1.8816,1.7898,1.6066,1.5899,1.5784,1.5784,1.5784,1.6251,1.6943,1.7505,1.8818,2.0305]}]]